[[[{"header":{"parameterUnit":"kt","parameterCategory":2,"dx":1,"dy":1,"la1":29.587661999999998,"la2":31.0,"lo1":-88.76705300000003,"lo2":-86.6583820000003,"nx":115,"ny":88,"refTime":"2022-10-29T00:00:00:Z","depth":0,"parameterNumber":1,"parameterNumberName":"U-component_of_WINDS"},"data":[4.5456,4.3655,4.4662,4.4062,4.2283,4.207,4.0306,3.7765,3.8153,3.7362,3.5579,3.5172,3.6162,4.0489,4.0703,4.0703,3.9923,4.1494,4.1873,4.3068,4.4451,4.4045,4.4925,4.7144,4.6017,4.7176,4.8974,4.9887,5.0494,5.0323,5.0096,5.021,5.0115,5.0077,5.0058,5.0058,5.002,5.002,5.002,5.002,5.002,5.002,5.002,5.002,5.002,5.002,5.002,5.002,5.002,5.002,5.002,5.002,5.002,5.002,5.002,5.002,5.002,5.002,5.002,5.002,5.002,5.002,5.002,5.002,4.9982,4.9963,4.9564,4.9564,4.9165,4.8881,4.8767,4.8558,4.8444,4.7951,4.7647,4.7656,4.772,4.7769,4.778,4.7742,4.7742,4.7742,4.7761,4.778,4.7799,4.7837,4.7856,4.7856,4.7913,4.7571,4.7248,4.7096,4.6944,4.6071,4.5312,4.5369,4.5369,4.516,4.5027,4.5103,4.5103,4.4989,4.4989,4.4989,4.4989,4.5291,4.6264,4.7061,4.7686,4.8963,5.0771,5.203,5.2256,5.2845,5.3895,4.9034,4.8236,4.4451,4.2479,4.2267,4.2267,3.9525,3.6162,3.9525,3.9923,3.7362,3.5172,3.4586,3.5172,3.5362,3.6958,3.874,4.1297,4.3476,4.5051,4.6841,4.6438,4.7001,4.8428,4.8474,4.8918,4.9414,4.9812,5.002,5.002,5.002,5.002,5.002,5.002,5.002,5.002,5.002,5.002,5.002,5.002,5.002,5.002,5.002,5.002,5.002,5.002,5.002,5.002,5.002,5.002,5.002,5.002,5.002,5.002,5.002,5.002,5.002,4.9963,4.9887,4.9811,4.983,4.9887,5.002,5.0001,4.9944,4.9602,4.8919,4.852,4.8027,4.7742,4.7723,4.7628,4.759,4.74,4.7408,4.735,4.7457,4.7467,4.7334,4.7419,4.74,4.74,4.7419,4.7438,4.7457,4.7514,4.7514,4.7476,4.7267,4.6736,4.6413,4.628,4.6166,4.5787,4.5179,4.5103,4.5141,4.4989,4.4989,4.4989,4.4989,4.4989,4.4989,4.497,4.5629,4.6096,4.7061,4.8676,4.9595,5.0685,5.2306,5.3688,5.382,5.4087,5.5369,4.7835,4.7243,4.3671,4.2267,4.2267,4.2267,3.9908,3.716,3.874,3.914,3.7952,3.716,3.7347,3.8725,3.8725,4.0107,4.0703,4.1692,4.2692,4.3671,4.4662,4.6649,4.7033,4.672,4.8309,4.9717,4.9849,5.002,5.002,5.002,5.002,5.002,5.002,5.002,5.002,5.002,5.002,5.002,5.002,5.002,5.002,5.002,5.002,5.002,5.002,5.002,5.002,5.002,5.002,5.002,5.002,5.002,4.9944,4.9887,4.9944,4.9944,4.9849,4.9811,4.9393,4.9109,4.8881,4.8507,4.8526,4.8677,4.8734,4.8539,4.7856,4.7742,4.7248,4.6907,4.6869,4.6755,4.6717,4.6489,4.628,4.636,4.6375,4.637,4.6294,4.6394,4.6375,4.6375,4.6394,4.6394,4.6318,4.6318,4.6128,4.5976,4.5938,4.5635,4.5578,4.5502,4.5426,4.5122,4.4989,4.4989,4.4989,4.4989,4.4989,4.4989,4.4989,4.4989,4.5121,4.5422,4.5908,4.6795,4.8737,5.1071,5.2167,5.2352,5.3735,5.5053,5.5001,5.484,5.4649,4.5068,4.4857,4.3068,4.1692,4.1297,4.1297,3.9525,3.716,3.716,3.716,3.716,3.716,3.7937,3.8725,3.8925,3.8925,3.9724,3.9923,4.0901,4.1297,4.2479,4.4451,4.5649,4.6228,4.7362,4.8997,5.002,5.002,5.002,5.002,5.002,5.002,5.002,5.002,5.002,5.002,5.002,5.002,5.002,5.002,5.002,5.002,5.002,5.002,5.002,5.002,5.002,5.002,5.002,5.0001,5.002,4.9868,4.9697,4.9469,4.9412,4.9393,4.9184,4.8881,4.8558,4.8311,4.814,4.7675,4.7599,4.7505,4.7259,4.7058,4.685,4.6831,4.6641,4.6337,4.6109,4.5938,4.5768,4.5426,4.5103,4.5103,4.5103,4.5122,4.5122,4.5103,4.5084,4.5103,4.5141,4.5103,4.4989,4.4989,4.4989,4.5008,4.5141,4.5198,4.5217,4.5179,4.5008,4.4989,4.4989,4.4989,4.4989,4.4989,4.4932,4.4951,4.4989,4.4913,4.4818,4.5494,4.6206,4.7245,4.885,5.1727,5.3383,5.362,5.44,5.4816,5.4962,5.4064,5.3427,4.2479,4.2479,4.2283,4.0703,3.854,3.8354,3.6958,3.4573,3.4777,3.4573,3.4777,3.4573,3.4981,3.5959,3.5959,3.5972,3.6553,3.775,3.854,3.854,3.9908,4.2283,4.4256,4.5842,4.6018,4.8408,4.9812,4.9224,4.9622,5.002,5.002,5.002,5.002,5.002,5.002,5.002,5.002,5.002,5.002,5.002,5.002,5.002,5.002,5.002,5.002,4.9944,4.9963,4.9982,5.002,5.0001,4.9849,4.9431,4.8881,4.833,4.7989,4.7894,4.8064,4.7837,4.7666,4.7533,4.74,4.7324,4.7457,4.721,4.6521,4.6204,4.5862,4.5768,4.5843,4.5597,4.554,4.5426,4.5369,4.5141,4.4989,4.4989,4.4989,4.4989,4.4989,4.4989,4.4989,4.4989,4.4989,4.4989,4.4989,4.4989,4.4989,4.4989,4.5046,4.5046,4.5046,4.5046,4.4989,4.4989,4.4989,4.4989,4.4989,4.4913,4.4856,4.4818,4.4591,4.4591,4.4498,4.521,4.6049,4.7069,4.8814,5.1089,5.3113,5.3687,5.4118,5.4522,5.3981,5.2932,5.2297,3.9724,3.9724,3.9739,3.8153,3.5959,3.5783,3.5172,3.4381,3.419,3.419,3.419,3.419,3.419,3.419,3.419,3.4177,3.4381,3.5566,3.5959,3.6162,3.6567,3.9325,4.052,4.1312,4.328,4.5051,4.6438,4.8027,4.8027,4.8635,5.002,5.002,5.002,5.002,4.9963,4.9906,4.9944,4.9906,4.9944,5.002,5.002,5.002,5.002,5.002,5.002,4.9659,4.9298,4.9203,4.89,4.852,4.8482,4.8254,4.8008,4.7704,4.7457,4.7343,4.7305,4.7115,4.6793,4.6717,4.6413,4.6109,4.5919,4.6033,4.5673,4.554,4.5236,4.4989,4.4989,4.4989,4.4989,4.4989,4.4989,4.4989,4.4989,4.4989,4.4989,4.4989,4.4989,4.4989,4.4989,4.4989,4.4989,4.4989,4.4989,4.4989,4.4989,4.4875,4.4742,4.4648,4.4553,4.4534,4.4648,4.4724,4.4989,4.4989,4.4837,4.4686,4.4534,4.4211,4.4116,4.3964,4.3679,4.446,4.5529,4.7655,4.9558,5.1416,5.235,5.3132,5.35,5.3396,5.2737,5.1931,5.1736,3.6958,3.6958,3.6972,3.5972,3.4381,3.419,3.419,3.419,3.419,3.419,3.419,3.419,3.419,3.419,3.419,3.419,3.419,3.419,3.419,3.4381,3.4981,3.6176,3.7563,3.874,4.0107,4.2283,4.4662,4.6456,4.6649,4.8844,5.0039,5.0001,5.002,5.002,4.9849,4.9507,4.926,4.9109,4.9052,4.9033,4.9071,4.9052,4.9071,4.9052,4.9033,4.8843,4.8482,4.8368,4.8178,4.7666,4.7533,4.7248,4.7191,4.7115,4.6888,4.6831,4.6717,4.6584,4.6033,4.5881,4.5711,4.5293,4.5141,4.4989,4.4989,4.5046,4.5046,4.4989,4.4989,4.4989,4.4989,4.4989,4.4989,4.4989,4.4989,4.4989,4.4989,4.4989,4.4989,4.4989,4.4989,4.4989,4.4989,4.4913,4.4686,4.4875,4.4856,4.4553,4.4325,4.4021,4.3869,4.3831,4.3869,4.3736,4.404,4.4306,4.4325,4.4287,4.3774,4.3395,4.3319,4.3129,4.2749,4.2945,4.3527,4.5955,4.9103,5.0425,5.0769,5.1699,5.2526,5.2151,5.1871,5.1773,5.1601,3.4381,3.4381,3.4381,3.4381,3.4177,3.4125,3.4138,3.4151,3.4164,3.419,3.419,3.419,3.419,3.419,3.419,3.419,3.419,3.419,3.419,3.419,3.419,3.5566,3.6958,3.775,3.874,4.1494,4.4062,4.5262,4.6246,4.8469,4.9641,4.9906,4.964,4.8776,4.8215,4.749,4.7079,4.7299,4.7299,4.7519,4.8102,4.7894,4.7989,4.8027,4.797,4.7818,4.7552,4.7381,4.7286,4.7248,4.7267,4.6869,4.6546,4.628,4.5749,4.5388,4.5236,4.5293,4.5179,4.5217,4.5027,4.5027,4.4989,4.4989,4.4989,4.4989,4.4989,4.4989,4.4989,4.4989,4.4989,4.4989,4.4989,4.497,4.497,4.4875,4.4875,4.4818,4.4818,4.4629,4.4591,4.4553,4.4458,4.4553,4.4249,4.4325,4.4154,4.3888,4.3566,4.3281,4.3281,4.3243,4.311,4.2901,4.2882,4.3129,4.3243,4.3452,4.2958,4.2559,4.2522,4.2389,4.1952,4.1787,4.181,4.3066,4.5687,4.7456,4.9021,5.0265,5.1453,5.1272,5.1724,5.1577,5.1552,3.419,3.419,3.419,3.419,3.4125,3.3787,3.3618,3.3696,3.4021,3.419,3.4164,3.4164,3.4151,3.4151,3.419,3.419,3.419,3.4177,3.4164,3.419,3.4164,3.4698,3.5309,3.5579,3.6616,3.7736,4.0703,4.341,4.3505,4.7253,4.8626,4.8643,4.8615,4.6787,4.4591,4.4124,4.3781,4.5035,4.5758,4.5993,4.6947,4.7343,4.7381,4.7362,4.7305,4.7153,4.6893,4.6649,4.6323,4.5843,4.5787,4.5654,4.554,4.5407,4.5274,4.5103,4.4989,4.4989,4.497,4.4951,4.4875,4.4875,4.4989,4.4989,4.4989,4.4799,4.4837,4.4856,4.4989,4.4951,4.4913,4.4989,4.497,4.4781,4.4837,4.4458,4.4363,4.4135,4.404,4.3452,4.3262,4.3281,4.3262,4.3471,4.3547,4.3471,4.3376,4.311,4.2787,4.2768,4.2787,4.2749,4.2654,4.2427,4.2313,4.2218,4.2256,4.2503,4.218,4.1743,4.1667,4.1496,4.1117,4.091,4.1751,4.2763,4.3693,4.5423,4.8443,5.0141,5.0858,5.1285,5.1419,5.1552,5.1552,3.3592,3.3605,3.3605,3.3605,3.3553,3.319,3.3047,3.3125,3.341,3.3592,3.3605,3.3605,3.3605,3.3605,3.3553,3.354,3.3553,3.3592,3.3592,3.3566,3.3514,3.3657,3.367,3.3767,3.3793,3.4865,3.7513,4.0106,4.0457,4.342,4.5458,4.5941,4.4661,4.2928,4.0692,4.0726,4.1305,4.2787,4.3919,4.4831,4.6231,4.6565,4.6527,4.6508,4.6489,4.6261,4.5843,4.5731,4.5502,4.5217,4.5198,4.5141,4.5084,4.5065,4.5008,4.4989,4.4989,4.4989,4.497,4.4648,4.4591,4.442,4.423,4.3983,4.4135,4.4154,4.4173,4.4078,4.3926,4.3964,4.4192,4.4192,4.4268,4.4287,4.423,4.3888,4.366,4.3433,4.3148,4.2578,4.254,4.2711,4.2749,4.3034,4.2484,4.2199,4.1743,4.1496,4.161,4.1762,4.1914,4.1914,4.1914,4.18,4.1629,4.1269,4.1212,4.1307,4.1117,4.0946,4.0737,4.0528,4.0472,4.0529,4.1597,4.2838,4.3693,4.4828,4.7865,5.0158,5.0858,5.1419,5.1552,5.1552,5.1552,3.2527,3.2476,3.2527,3.2501,3.2437,3.245,3.2463,3.2476,3.2579,3.2631,3.2657,3.2631,3.2631,3.2644,3.2761,3.2774,3.2735,3.2683,3.267,3.2735,3.2826,3.2578,3.2616,3.2681,3.2771,3.3259,3.5537,3.7353,3.6998,4.0423,4.1103,4.1206,4.0388,3.8799,3.8059,3.9854,4.106,4.1616,4.3352,4.4169,4.5122,4.535,4.5388,4.5388,4.5407,4.5464,4.5255,4.5254,4.5046,4.4989,4.4989,4.4989,4.4989,4.4989,4.4989,4.4989,4.4989,4.4989,4.4894,4.4154,4.3812,4.3679,4.3357,4.3034,4.2749,4.2692,4.2882,4.3167,4.2939,4.2806,4.2692,4.2692,4.2825,4.292,4.2996,4.2844,4.2692,4.2503,4.2256,4.1819,4.2142,4.2446,4.2408,4.2199,4.1402,4.0832,4.0206,4.0073,4.0301,4.0471,4.0642,4.0699,4.0737,4.0737,4.0756,4.0357,4.0225,4.0092,4.013,4.0282,4.0187,4.0092,4.0224,4.0186,4.1141,4.2122,4.3256,4.4397,4.7284,5.0022,5.0858,5.1552,5.1552,5.1552,5.1552,3.2476,3.2476,3.2476,3.2021,3.1372,3.1709,3.1878,3.1956,3.2268,3.2476,3.2476,3.2476,3.2476,3.2476,3.245,3.2424,3.2359,3.2385,3.2424,3.2398,3.2333,3.2372,3.2359,3.2372,3.2268,3.3206,3.4953,3.6191,3.609,3.8328,3.8926,3.7816,3.5855,3.4317,3.3272,3.3803,3.5578,3.8059,4.0013,4.1251,4.463,4.463,4.463,4.48,4.463,4.463,4.48,4.4989,4.4989,4.4989,4.4989,4.4989,4.4989,4.4989,4.4989,4.4989,4.4989,4.4989,4.461,4.385,4.2939,4.2882,4.254,4.2465,4.2559,4.2559,4.2294,4.237,4.2446,4.2578,4.2597,4.2351,4.2275,4.2104,4.2142,4.1952,4.18,4.1648,4.1364,4.1155,4.0927,4.0946,4.0984,4.1022,4.0509,4.0357,3.9997,3.9997,3.9997,3.9997,3.9997,3.9997,3.9997,3.9997,3.9997,4.0073,4.0111,3.9997,3.9997,3.9997,3.9997,3.9997,4.0148,4.0411,4.0842,4.14,4.2817,4.4541,4.6981,4.9886,5.0723,5.1552,5.1552,5.1552,5.1552,3.1813,3.1826,3.1826,3.1411,3.08,3.1138,3.1307,3.1372,3.167,3.1813,3.1787,3.1826,3.1813,3.18,3.1826,3.1813,3.1813,3.1826,3.1787,3.1813,3.1813,3.1886,3.1847,3.1696,3.1739,3.2161,3.3022,3.4237,3.4425,3.4746,3.5662,3.5192,3.2818,3.0972,3.0761,3.1471,3.3272,3.5952,3.7721,3.8959,4.1962,4.2153,4.2671,4.3377,4.3549,4.391,4.48,4.4989,4.4989,4.4989,4.4989,4.4989,4.4989,4.4989,4.4799,4.4496,4.4439,4.423,4.3793,4.3167,4.2389,4.2199,4.1743,4.1477,4.1364,4.1496,4.1534,4.1591,4.1458,4.1326,4.1534,4.1572,4.1667,4.1572,4.1383,4.1136,4.0946,4.0813,4.0623,4.0585,4.0225,3.9997,3.9997,3.9997,3.9997,3.9997,3.9997,3.9997,3.9997,3.9997,3.9997,3.9997,3.9997,3.9997,3.9997,3.9997,3.9997,3.9997,3.9997,3.9997,3.9997,4.0129,4.0411,4.0842,4.1271,4.2715,4.396,4.5051,4.6981,4.9863,5.1151,5.1552,5.1552,5.1552,5.1552,3.0761,3.0761,3.0787,3.08,3.0774,3.0761,3.0787,3.0852,3.0826,3.0878,3.0943,3.0826,3.0917,3.0865,3.0969,3.0943,3.0826,3.0774,3.0917,3.0904,3.0774,3.0917,3.0956,3.0956,3.093,3.0956,3.1406,3.1525,3.1169,3.2211,3.1393,3.0761,3.1156,3.0959,3.0761,3.0761,3.2205,3.3817,3.6132,3.7543,3.8429,3.9118,4.0013,4.139,4.1927,4.2653,4.48,4.4989,4.4989,4.4989,4.4856,4.495,4.4629,4.4515,4.4135,4.3812,4.3679,4.2513,4.1734,4.1213,4.1503,4.1056,4.0507,4.0357,4.0433,4.0149,4.0054,4.0282,4.049,4.0338,4.0206,4.0035,4.0414,4.0509,4.0604,4.0452,4.0414,4.0244,4.0206,4.0054,3.9997,3.9997,3.9997,3.9997,3.9997,3.9997,3.9997,3.9997,3.9997,3.9997,3.9997,3.9997,3.9997,3.9997,3.9997,3.9997,3.9997,3.9997,3.9997,3.9997,4.0129,4.0411,4.0692,4.1122,4.1678,4.3855,4.5554,4.6381,4.7703,5.027,5.1552,5.1552,5.1552,5.1552,5.1552,3.0761,3.0761,3.0761,3.0761,3.0761,3.0761,3.0761,3.0761,3.0761,3.0761,3.0761,3.0761,3.0761,3.0761,3.0761,3.0761,3.0761,3.0761,3.0761,3.0761,3.0761,3.0761,3.0761,3.0761,3.0761,3.0787,3.0761,3.0761,3.0761,3.0761,3.0761,3.0761,3.0761,3.0761,3.0761,3.0761,3.0946,3.2218,3.418,3.5952,3.7527,3.9118,4.0154,4.139,4.2997,4.427,4.48,4.4725,4.4706,4.478,4.4832,4.4545,4.4002,4.3476,4.2859,4.2614,4.2388,4.0825,3.9153,3.905,3.9415,3.9058,3.8782,3.9789,3.9808,3.9997,3.9997,3.9997,3.9997,3.9997,3.9997,3.9997,3.9997,3.9997,3.9997,3.9997,4.0016,4.0073,4.0054,3.9997,3.9997,3.9997,3.9997,3.9997,3.9997,3.9997,3.9997,3.9997,3.9997,3.9997,3.9997,3.9997,3.9997,3.9997,3.9997,3.9997,3.9997,3.9997,3.9997,4.0129,4.028,4.0542,4.0692,4.1251,4.1826,4.3692,4.561,4.7032,4.8605,5.0158,5.1552,5.1552,5.1552,5.1552,5.1528,3.0761,3.0761,3.0761,3.0761,3.0761,3.0761,3.0761,3.0761,3.0761,3.0761,3.0761,3.0761,3.0761,3.0761,3.0761,3.0761,3.0761,3.0761,3.0761,3.0761,3.0761,3.0761,3.0761,3.0761,3.0761,3.0761,3.0761,3.0761,3.0761,3.0761,3.0761,3.0761,3.0761,3.071,3.0761,3.0761,3.0749,3.1091,3.2008,3.3454,3.4678,3.5907,3.7156,3.8236,3.9136,4.0745,4.161,4.2106,4.1797,4.3869,4.4676,4.4347,4.333,4.1958,4.0935,4.0714,4.0365,3.8918,3.6714,3.8016,3.8043,3.7611,3.7988,3.8616,3.8827,3.9374,3.9997,3.9978,3.9978,3.9997,3.9997,3.9997,3.9997,3.9997,3.9997,3.9997,3.9997,3.9997,3.9997,3.9997,3.9997,3.9997,3.9997,3.9997,3.9997,3.9997,3.9997,3.9997,3.9997,3.9997,3.9997,3.9997,3.9997,3.9997,3.9997,3.9997,3.9997,3.9997,3.9997,4.0129,4.0411,4.0561,4.0411,4.0842,4.1826,4.3423,4.5323,4.6885,4.8305,4.9863,5.1419,5.1552,5.1552,5.1504,5.0906,3.0761,3.0761,3.0761,3.0761,3.0761,3.0761,3.0761,3.0761,3.0761,3.0761,3.0761,3.0761,3.0761,3.0761,3.0761,3.0761,3.0761,3.0761,3.0761,3.0761,3.0761,3.0761,3.0761,3.0761,3.0761,3.0761,3.0761,3.0736,3.0424,3.0398,3.0476,3.0437,3.0385,3.0528,3.0333,3.0294,3.058,3.0541,3.0502,3.0671,3.1023,3.1515,3.2934,3.406,3.4971,3.6351,3.9181,3.8048,3.8056,4.134,4.3225,4.3271,4.1746,3.9604,3.8445,3.7389,3.6818,3.6832,3.6849,3.6832,3.6247,3.5595,3.6177,3.6433,3.6857,3.7727,3.8726,3.9486,3.9978,3.9978,3.9997,3.9997,3.9997,3.9997,3.9997,3.9997,3.9997,3.9997,3.9997,3.9997,3.9997,3.9997,3.9997,3.9997,3.9997,3.9997,3.9997,3.9997,3.9997,3.9997,3.9997,3.9997,3.9997,3.9997,3.9997,3.9997,3.9997,3.9997,3.9997,4.0129,4.0411,4.0842,4.0561,4.0692,4.1974,4.3423,4.5323,4.6885,4.8143,4.9401,5.0617,5.1028,5.1224,5.0858,5.0321,3.0761,3.0761,3.0761,3.0761,3.0761,3.0761,3.0736,3.0761,3.0723,3.0697,3.0761,3.0736,3.071,3.0736,3.0723,3.0723,3.0761,3.0723,3.0671,3.0645,3.0658,3.0723,3.0749,3.0761,3.0658,3.0554,3.0606,3.0294,2.9723,2.958,2.9476,2.9567,2.9476,2.9437,2.9515,2.9606,2.9424,2.9424,2.9424,2.9424,2.9926,3.1286,3.2633,3.292,3.4729,3.5652,3.6645,3.4898,3.5331,3.7539,3.9314,3.9677,3.6947,3.5396,3.3904,3.2454,3.1867,3.1007,3.1487,3.2285,3.3771,3.2795,3.3598,3.416,3.4701,3.5422,3.6213,3.7466,3.8879,3.9978,3.9997,3.9997,3.9997,3.9997,3.9997,3.9997,3.9997,3.9997,3.9997,3.9997,3.9997,3.9997,3.9997,3.9997,3.9997,3.9997,3.9997,3.9997,3.9997,3.9997,3.9997,3.9997,3.9997,3.9997,3.9997,3.9997,3.9997,3.9997,3.9997,3.9997,4.0411,4.0823,4.0542,4.026,4.1638,4.3133,4.5237,4.7048,4.8119,4.9143,4.9927,5.0199,5.0052,4.9759,4.9345,2.9956,2.9956,2.9956,2.9956,2.9956,2.9956,2.9956,2.9956,2.9956,2.9956,2.9956,2.9956,2.9956,2.9956,2.9956,2.9956,2.993,2.9956,2.9956,2.9956,2.9956,2.9956,2.9917,2.993,2.9956,2.9956,2.9943,2.958,2.9125,2.906,2.9151,2.9261,2.9274,2.9274,2.9261,2.9047,2.9125,2.9125,2.93,2.93,2.9461,3.0117,3.0782,3.1015,3.1871,3.2818,3.3018,3.1951,3.2043,3.4575,3.6227,3.5832,3.4256,3.2355,3.0554,3.07,3.0686,3.0364,3.1182,3.0846,3.1746,3.0729,3.1412,3.2397,3.3553,3.4464,3.6523,3.8097,3.9675,3.9997,3.9997,3.9997,3.9997,3.9997,3.9997,3.9997,3.9997,3.9997,3.9997,3.9997,3.9997,3.9997,3.9997,3.9997,3.9997,3.9997,3.9997,3.9997,3.9997,3.9997,3.9997,3.9997,3.9997,3.9997,3.9997,3.9997,3.9997,3.9997,3.9997,3.9997,4.028,4.0411,4.026,4.0311,4.1221,4.2453,4.4525,4.6271,4.7823,4.9168,4.8983,4.8948,4.8778,4.8612,4.8198,2.9274,2.9274,2.9274,2.9274,2.9287,2.9287,2.9164,2.9274,2.9177,2.9112,2.9138,2.93,2.919,2.9164,2.9112,2.9112,2.9255,2.9281,2.9242,2.9229,2.9229,2.9242,2.9281,2.9307,2.9047,2.8879,2.8788,2.8801,2.871,2.8814,2.8606,2.8736,2.871,2.8697,2.8671,2.8788,2.8645,2.858,2.8606,2.8619,2.8632,2.8962,2.9133,2.9093,2.8932,2.9569,2.9833,2.8844,2.8984,3.208,3.2587,3.2634,3.1707,2.9332,2.8803,2.9424,2.9748,3.0056,3.0861,3.0686,3.0174,2.9971,3.0013,3.0949,3.2278,3.3823,3.4654,3.6814,3.7926,3.9201,3.9827,3.9997,3.9997,3.9997,3.9997,3.9997,3.9997,3.9997,3.9997,3.9997,3.9997,3.9997,3.9997,3.9997,3.9997,3.9997,3.9997,3.9997,3.9997,3.9997,3.9997,3.9997,3.9997,3.9997,3.9997,3.9997,3.9997,3.9997,3.994,3.994,3.994,3.9959,4.0305,4.06,4.139,4.2573,4.3792,4.4987,4.6631,4.8243,4.796,4.7603,4.7412,4.7319,4.6953,2.9274,2.9274,2.9274,2.9274,2.9274,2.9235,2.9195,2.9047,2.9274,2.8944,2.9261,2.9274,2.8918,2.9047,2.9009,2.9248,2.9047,2.9009,2.8892,2.8905,2.8905,2.8892,2.8918,2.884,2.8554,2.7697,2.7762,2.7762,2.7762,2.7658,2.7866,2.771,2.7684,2.7827,2.7723,2.7658,2.7775,2.7827,2.784,2.7814,2.7788,2.7775,2.7788,2.7801,2.7619,2.7924,2.8023,2.7904,2.7798,2.8328,2.8328,2.8328,2.8178,2.7549,2.77,2.7851,2.8178,2.8477,2.8965,2.8491,2.8001,2.7851,2.8014,2.8204,2.8694,2.9776,3.1327,3.2572,3.4464,3.6523,3.9505,3.9808,3.9827,3.9997,3.9997,3.9997,3.9997,3.9997,3.9997,3.9997,3.9997,3.9997,3.9997,3.9997,3.9997,3.9997,3.9997,3.9997,3.9997,3.9997,3.9997,3.9997,3.9997,3.9997,3.9997,3.9997,3.9997,3.9959,3.9883,3.9864,3.9845,3.971,3.9617,4.0396,4.1369,4.3048,4.4248,4.46,4.5475,4.7147,4.7361,4.6683,4.6271,4.593,4.5855,2.8177,2.8177,2.8177,2.819,2.819,2.819,2.8177,2.8177,2.8177,2.8177,2.8177,2.819,2.819,2.819,2.8177,2.8203,2.819,2.8177,2.8203,2.8216,2.8216,2.8203,2.8177,2.81,2.7983,2.7528,2.7385,2.7385,2.7385,2.7411,2.7385,2.7385,2.7398,2.7385,2.7385,2.7411,2.7385,2.7385,2.7385,2.7385,2.7385,2.7385,2.7385,2.7385,2.7385,2.7385,2.7385,2.7385,2.7385,2.7385,2.7385,2.7385,2.7385,2.7385,2.7385,2.7385,2.7385,2.7385,2.7385,2.7385,2.7385,2.7385,2.7385,2.8014,2.8789,2.91,3.0056,3.1791,3.3221,3.4811,3.7944,3.8403,3.9183,3.9656,3.9997,3.9997,3.9997,3.9997,3.9997,3.9997,3.9997,3.9997,3.9997,3.9997,3.9978,3.9826,3.9826,3.9788,3.9807,3.9655,3.9731,3.9693,3.9788,3.9826,3.9807,3.9769,3.9674,3.9579,3.9408,3.9332,3.9252,3.9036,3.8798,3.9053,3.9469,4.1628,4.3047,4.3652,4.417,4.5293,4.576,4.5545,4.5327,4.5662,4.5611,2.7385,2.7385,2.7385,2.7385,2.7385,2.7385,2.7398,2.7424,2.7411,2.7489,2.7411,2.7411,2.7437,2.7424,2.7489,2.7385,2.7476,2.7476,2.7385,2.7385,2.7385,2.7385,2.7424,2.7476,2.7411,2.7398,2.7385,2.7385,2.7385,2.7385,2.7385,2.7385,2.7385,2.7385,2.7385,2.7385,2.7385,2.7385,2.7385,2.7385,2.7385,2.7385,2.7385,2.7385,2.7385,2.7385,2.7385,2.7385,2.7385,2.7385,2.7385,2.7385,2.7385,2.7385,2.7385,2.7385,2.7385,2.7385,2.7385,2.7385,2.7385,2.7385,2.7536,2.8164,2.9734,2.9572,3.054,3.1807,3.2746,3.3694,3.6058,3.7021,3.8574,3.9675,3.9997,3.9997,3.9997,3.9997,3.9997,3.9997,3.9997,3.9997,3.9997,3.9997,3.9845,3.9693,3.9636,3.9598,3.9427,3.92,3.9086,3.8915,3.8934,3.8839,3.8839,3.8801,3.8801,3.8782,3.8592,3.844,3.8071,3.7934,3.8052,3.8186,3.8198,3.9064,4.0621,4.1413,4.2667,4.3023,4.3629,4.4201,4.5012,4.5373,4.5611,2.7385,2.7385,2.7385,2.7385,2.7385,2.7385,2.7208,2.7385,2.7385,2.7385,2.7385,2.7385,2.7385,2.7385,2.7385,2.7385,2.7385,2.7385,2.7385,2.7385,2.7385,2.7385,2.7385,2.7385,2.7385,2.7385,2.7385,2.7385,2.7385,2.7385,2.7385,2.7385,2.7385,2.7385,2.7385,2.7385,2.7385,2.7385,2.7385,2.7385,2.7385,2.7385,2.7385,2.7385,2.7385,2.7385,2.7385,2.7385,2.7385,2.7385,2.7385,2.7385,2.7385,2.7385,2.7385,2.7385,2.7385,2.7385,2.7385,2.7385,2.7385,2.7385,2.7385,2.7536,2.7851,2.8001,2.8328,2.8816,2.9909,3.1647,3.3694,3.7294,3.8708,3.9467,3.9732,3.994,3.9997,3.9997,3.9997,3.9997,3.994,3.9978,3.9997,3.9921,3.9674,3.8934,3.8839,3.8687,3.844,3.8402,3.8326,3.8231,3.8136,3.7947,3.7928,3.7928,3.8023,3.8117,3.7947,3.7586,3.7213,3.6881,3.7141,3.7763,3.8207,3.8755,3.9276,3.9973,4.1071,4.1774,4.214,4.3248,4.4389,4.4583,4.5495,2.4318,2.5334,2.3986,2.5015,2.7208,2.6006,2.6183,2.7208,2.7385,2.7385,2.7385,2.7385,2.7385,2.7385,2.7385,2.7385,2.7385,2.7385,2.7385,2.7385,2.7385,2.7385,2.7385,2.7385,2.7385,2.7385,2.7385,2.7385,2.7385,2.7385,2.7385,2.7385,2.7385,2.7385,2.7385,2.7385,2.7385,2.7385,2.7385,2.7385,2.7385,2.7385,2.7385,2.7385,2.7385,2.7385,2.7385,2.7385,2.7385,2.7385,2.7385,2.7385,2.7385,2.7385,2.7385,2.7385,2.7385,2.7385,2.7385,2.7385,2.7385,2.7385,2.7385,2.7385,2.7372,2.7385,2.7385,2.7346,2.8178,2.9128,3.0393,3.273,3.5402,3.7593,3.7581,3.7474,3.8516,3.8446,3.8535,3.8535,3.8535,3.8516,3.8535,3.8516,3.8326,3.8117,3.8004,3.7757,3.7453,3.7548,3.7586,3.77,3.7681,3.7529,3.7453,3.7453,3.7529,3.7624,3.7453,3.7016,3.647,3.5728,3.595,3.6306,3.7724,3.8557,3.8747,3.9254,3.9938,4.0346,4.0871,4.163,4.2768,4.3436,4.4679,2.1621,2.28,2.1296,2.2811,2.6019,2.4649,2.5322,2.7208,2.7385,2.7385,2.7385,2.7385,2.7385,2.7385,2.7385,2.7385,2.7385,2.7385,2.7385,2.7385,2.7385,2.7385,2.7385,2.7385,2.7385,2.7385,2.7385,2.7385,2.7385,2.7385,2.7385,2.7385,2.7385,2.7385,2.7385,2.7385,2.7385,2.7385,2.7385,2.7385,2.7385,2.7385,2.7385,2.7385,2.7385,2.7385,2.7385,2.7385,2.7385,2.7385,2.7385,2.7385,2.7385,2.7385,2.7385,2.7385,2.7385,2.7385,2.7385,2.7385,2.7385,2.7385,2.7217,2.7165,2.7165,2.7022,2.6931,2.6944,2.6944,2.7201,2.799,2.934,3.167,3.4677,3.4063,3.3903,3.5508,3.6477,3.6601,3.6154,3.6532,3.6731,3.6911,3.7178,3.751,3.7244,3.713,3.7035,3.6618,3.6523,3.6409,3.6713,3.6922,3.6903,3.6922,3.6922,3.6941,3.6998,3.6732,3.6257,3.5669,3.5175,3.5023,3.4947,3.653,3.6938,3.7473,3.8053,3.8388,3.8696,3.9284,3.9886,4.1058,4.2087,4.332,2.0625,2.0783,2.0625,2.1788,2.3963,2.3631,2.4649,2.7044,2.7044,2.688,2.7031,2.6702,2.7044,2.7208,2.6702,2.6702,2.7208,2.7044,2.7044,2.7044,2.7044,2.7208,2.7385,2.7385,2.7385,2.7385,2.7385,2.7385,2.7385,2.7385,2.7385,2.7385,2.7385,2.7385,2.7385,2.7385,2.7385,2.7385,2.7385,2.7385,2.7385,2.7385,2.7385,2.7385,2.7385,2.7385,2.7385,2.7385,2.7385,2.7385,2.7385,2.7385,2.7385,2.7385,2.7385,2.7385,2.7385,2.7333,2.7359,2.7256,2.7256,2.7178,2.684,2.6567,2.6528,2.623,2.5996,2.5983,2.5931,2.6626,2.7982,2.8731,2.9538,3.1477,3.0512,3.0449,3.2019,3.3886,3.4416,3.3425,3.3903,3.4951,3.5203,3.652,3.6801,3.6523,3.6295,3.601,3.5688,3.5574,3.5289,3.5346,3.5612,3.5688,3.5915,3.5915,3.5934,3.5934,3.5726,3.5479,3.5137,3.5004,3.5004,3.4984,3.5393,3.5339,3.5595,3.6304,3.6723,3.6826,3.7401,3.8357,3.9321,4.0259,4.1443,1.7264,1.8282,1.6925,1.8434,2.1621,2.0289,2.0971,2.2977,2.3155,2.3144,2.3155,2.3155,2.3155,2.3155,2.3155,2.3155,2.331,2.4661,2.5157,2.5157,2.5157,2.6006,2.7372,2.7385,2.7385,2.7385,2.7385,2.7385,2.7385,2.7385,2.7385,2.7385,2.7385,2.7385,2.7385,2.7385,2.7385,2.7385,2.7385,2.7385,2.7385,2.7385,2.7385,2.7385,2.7385,2.7385,2.7385,2.7385,2.7385,2.7385,2.7385,2.7385,2.7385,2.7359,2.7385,2.732,2.7087,2.6853,2.6827,2.6563,2.6236,2.6214,2.6163,2.5915,2.584,2.5853,2.5671,2.5671,2.5645,2.5966,2.6691,2.6844,2.6764,2.6951,2.7212,2.777,2.8792,3.1265,3.282,3.3602,3.4155,3.4806,3.4943,3.5644,3.5628,3.5574,3.546,3.5251,3.5156,3.5004,3.5042,3.5061,3.5004,3.5004,3.5004,3.5004,3.5004,3.4852,3.4758,3.4625,3.4606,3.4606,3.4511,3.4451,3.4453,3.4542,3.4533,3.5065,3.5089,3.4785,3.4806,3.5996,3.7281,3.8316,3.9664,1.4728,1.5918,1.4392,1.6073,1.9119,1.7952,1.8621,2.0457,2.0625,2.0625,2.0625,2.0625,2.0625,2.0625,2.0625,2.0625,2.0625,2.1286,2.1798,2.1965,2.2622,2.414,2.5841,2.6348,2.6702,2.7385,2.7385,2.7385,2.7385,2.7385,2.7385,2.7385,2.7385,2.7385,2.7385,2.7385,2.7385,2.7385,2.7385,2.7385,2.7385,2.7385,2.7385,2.7385,2.7385,2.7178,2.6892,2.6853,2.6853,2.6827,2.6853,2.6853,2.6853,2.684,2.684,2.6814,2.6463,2.6256,2.623,2.58,2.5788,2.5608,2.5543,2.5466,2.5438,2.5217,2.5087,2.5087,2.5126,2.5139,2.5139,2.5126,2.4924,2.4009,2.498,2.6013,2.6961,2.8413,3.0146,3.1408,3.2104,3.2643,3.3083,3.3941,3.43,3.4796,3.5061,3.5061,3.5004,3.5004,3.5004,3.5004,3.5004,3.5004,3.5004,3.5004,3.453,3.3998,3.3846,3.3713,3.3808,3.3827,3.3713,3.3593,3.3861,3.3955,3.3939,3.3922,3.3584,3.3346,3.2931,3.3752,3.514,3.6549,3.7847,1.3878,1.4049,1.3878,1.5235,1.7111,1.7111,1.8452,1.9953,2.0121,1.9784,1.9784,2.0121,1.9784,2.0289,1.9784,2.0289,1.9616,1.8282,1.7782,1.8122,1.9784,2.1788,2.3797,2.3786,2.4637,2.6614,2.7182,2.7182,2.7066,2.6864,2.7053,2.7294,2.7217,2.7165,2.732,2.7204,2.7282,2.7243,2.7217,2.7269,2.7359,2.7243,2.7217,2.7269,2.7256,2.6801,2.5814,2.5775,2.584,2.5801,2.5788,2.571,2.5827,2.5672,2.5608,2.5504,2.5556,2.553,2.5517,2.5466,2.5542,2.5438,2.5087,2.4653,2.4723,2.4214,2.3956,2.4126,2.41,2.4035,2.4074,2.3943,2.3734,2.3918,2.4049,2.4892,2.5744,2.5177,2.4192,2.5163,2.7266,2.7825,2.9475,3.1712,3.3303,3.4532,3.4758,3.4682,3.4606,3.4587,3.4852,3.4852,3.4587,3.4378,3.4682,3.4852,3.3903,3.3144,3.3011,3.303,3.3182,3.3201,3.3106,3.2631,3.2883,3.265,3.2653,3.2283,3.1971,3.1816,3.1177,3.1133,3.2903,3.4584,3.5892,1.3878,1.3878,1.3878,1.4214,1.4899,1.4907,1.5405,1.591,1.6073,1.6081,1.6073,1.5903,1.6081,1.6073,1.5903,1.6073,1.591,1.5398,1.5747,1.7281,1.8113,1.9625,2.1276,2.0714,2.1073,2.2529,2.3738,2.4373,2.4334,2.4286,2.4931,2.6085,2.623,2.623,2.623,2.6047,2.5889,2.623,2.657,2.6426,2.623,2.623,2.623,2.623,2.623,2.6035,2.571,2.5671,2.5671,2.5671,2.5671,2.5671,2.5517,2.4399,2.3625,2.3577,2.3278,2.2935,2.3051,2.3943,2.449,2.4464,2.3148,2.2879,2.402,2.283,2.2743,2.3619,2.3918,2.3918,2.3619,2.2731,2.2574,2.3619,2.3918,2.4205,2.475,2.525,2.5547,2.5802,2.7843,3.0113,3.1374,3.2447,3.328,3.404,3.3638,3.3227,3.3334,3.3334,3.3315,3.3334,3.3429,3.3467,3.3044,3.317,3.2612,3.2499,3.23,3.2451,3.2707,3.2669,3.2461,3.1891,3.1511,3.1284,3.0961,3.0581,3.0525,3.0487,3.022,3.0294,3.1442,3.289,3.4731,1.1446,1.1446,1.2312,1.3184,1.3706,1.3878,1.3878,1.3878,1.3878,1.3878,1.3878,1.3878,1.3878,1.3864,1.3667,1.3574,1.3574,1.3574,1.4239,1.5562,1.5737,1.6878,1.8838,1.8133,1.8473,1.9941,2.1278,2.1768,2.1744,2.2513,2.3458,2.4566,2.5209,2.5619,2.5695,2.5261,2.5235,2.5672,2.5749,2.5684,2.571,2.5671,2.5567,2.5373,2.5347,2.536,2.536,2.5152,2.4735,2.3957,2.3957,2.3655,2.2899,2.1661,2.1041,2.1019,2.0606,2.0443,2.0559,2.1313,2.1865,2.172,2.0603,2.0469,2.1262,2.0693,2.0391,2.143,2.172,2.1732,2.1575,2.0693,2.0682,2.2455,2.29,2.2994,2.3685,2.4561,2.531,2.5419,2.6947,2.8973,2.9093,3.0734,3.1757,3.2337,3.2486,3.2508,3.2414,3.2414,3.2612,3.2414,3.2376,3.2083,3.1231,3.1146,3.1506,3.1506,3.1544,3.1506,3.1154,3.0922,3.1097,3.067,2.9935,2.975,3.0428,3.0202,3.0164,3.0088,3.0088,3.0294,3.106,3.2576,3.4176,0.6939,0.7458,0.9367,1.1451,1.3356,1.3356,1.3356,1.3012,1.3534,1.3534,1.3534,1.3686,1.3673,1.3425,1.2962,1.2879,1.304,1.3067,1.3235,1.3242,1.3228,1.4147,1.6172,1.6172,1.7284,1.8865,1.9023,1.9142,1.9396,2.1301,2.26,2.2875,2.4558,2.5551,2.5453,2.5156,2.5222,2.5349,2.5107,2.5184,2.5542,2.5619,2.5425,2.4983,2.5002,2.5054,2.4976,2.4295,2.3263,2.132,2.15,2.0592,1.8836,1.8542,1.8424,1.8267,1.81,1.7943,1.7952,1.8237,1.8365,1.8218,1.8198,1.807,1.8511,1.8218,1.8218,1.8218,1.8168,1.7845,1.7982,1.7894,1.8746,2.0646,2.1037,2.171,2.2949,2.322,2.2786,2.2542,2.2895,2.4121,2.534,2.6489,2.8613,3.0105,3.1469,3.213,3.2016,3.1989,3.1829,3.181,3.1735,3.1212,2.8617,2.8931,2.9781,2.9837,2.9927,2.9935,2.931,2.9026,2.9329,2.9329,2.9077,2.9192,2.9671,2.9728,2.9615,2.9255,2.9141,2.9314,2.937,3.1631,3.3128,0.6939,0.7112,0.7631,0.8326,0.8844,0.8844,0.8844,0.9013,1.0756,1.1457,1.1612,1.2983,1.2616,1.1087,1.0798,1.1551,1.2859,1.3027,1.3027,1.3027,1.3027,1.3343,1.3811,1.3972,1.417,1.4601,1.4711,1.4597,1.4687,1.7682,2.0058,2.1542,2.3494,2.436,2.4282,2.4321,2.4291,2.4382,2.4291,2.424,2.4516,2.523,2.5606,2.5451,2.5425,2.5438,2.5412,2.4853,2.4382,2.378,2.3389,2.2887,2.2298,2.0972,1.9516,1.8218,1.6752,1.6011,1.6011,1.7334,1.807,1.7933,1.6752,1.6604,1.7491,1.6752,1.6604,1.7443,1.532,1.429,1.5262,1.5324,1.6708,1.9485,2.006,2.0723,2.2072,2.2407,2.2272,2.2282,2.21,2.2869,2.4902,2.6797,2.8227,2.9013,2.9975,3.0657,3.0541,2.9763,2.9157,2.9003,2.9021,2.8554,2.7983,2.8188,2.8072,2.8188,2.8205,2.8665,2.9615,2.9615,2.9615,2.8665,2.9255,2.9369,2.855,2.8205,2.7975,2.728,2.7344,2.7991,2.7584,2.9408,3.1001,0.4173,0.4169,0.5165,0.6139,0.6939,0.6935,0.6935,0.7104,0.8461,0.8966,0.9285,1.0085,0.9914,0.8502,0.8414,0.9013,1.0124,1.1077,1.1403,1.1554,1.2357,1.2671,1.2671,1.2671,1.2592,1.2421,1.2414,1.2481,1.2635,1.4532,1.6743,1.8638,2.0536,2.1442,2.1465,2.1599,2.2021,2.2636,2.2978,2.3414,2.3917,2.484,2.5308,2.5308,2.5308,2.5308,2.523,2.4503,2.3483,2.1972,2.1366,2.0367,1.879,1.7643,1.652,1.5397,1.4232,1.3799,1.3935,1.4979,1.5714,1.5723,1.4681,1.4391,1.5426,1.4681,1.425,1.487,1.3058,1.1958,1.3066,1.3042,1.4157,1.6754,1.7445,1.832,2.0431,2.0803,2.1084,2.1555,2.1516,2.2018,2.3241,2.4567,2.567,2.6539,2.8078,2.8871,2.9045,2.8779,2.855,2.8435,2.7379,2.7048,2.7512,2.7628,2.7628,2.7495,2.7147,2.6797,2.7628,2.7611,2.7362,2.7842,2.7013,2.643,2.6664,2.6564,2.6447,2.6029,2.6213,2.6134,2.5402,2.7092,2.8271,0.0,0.0,0.2385,0.4328,0.6064,0.6206,0.6203,0.62,0.6519,0.6509,0.6146,0.6179,0.612,0.6254,0.5988,0.5933,0.6389,0.8046,0.8972,0.9436,1.1097,1.2013,1.2196,1.219,1.217,1.2334,1.2334,1.2183,1.2321,1.2431,1.33,1.507,1.7093,1.8225,1.8421,1.8381,1.9286,2.1163,2.12,2.1978,2.3615,2.4395,2.4853,2.4853,2.5028,2.4853,2.4594,2.3581,2.1291,1.8151,1.7346,1.5422,1.2534,1.1698,1.1559,1.1712,1.1673,1.1794,1.2045,1.2091,1.2356,1.2241,1.22,1.22,1.2349,1.2071,1.1694,1.129,1.1127,1.0956,1.1234,1.1326,1.2221,1.4221,1.4382,1.5277,1.7857,1.8689,1.9169,2.0334,2.0535,2.0652,2.0893,2.1114,2.1633,2.3468,2.6011,2.7859,2.7859,2.8321,2.8798,2.8894,2.7617,2.6447,2.6564,2.7164,2.703,2.6797,2.5978,2.5759,2.5507,2.4797,2.3604,2.5844,2.4663,2.4425,2.4797,2.4955,2.4907,2.4145,2.3742,2.3747,2.3693,2.5137,2.5612,0.0,0.0,0.0512,0.1011,0.1507,0.1646,0.1634,0.1797,0.3587,0.3198,0.1707,0.1541,0.2457,0.3833,0.3814,0.4559,0.5924,0.653,0.7589,0.9108,0.9566,1.0638,1.2163,1.217,1.217,1.217,1.217,1.217,1.2137,1.1933,1.2829,1.4668,1.6504,1.7945,1.9286,1.934,2.0348,2.2261,1.9102,1.8974,2.2048,2.2842,2.3907,2.5324,2.5464,2.4839,2.322,2.2297,2.071,1.8455,1.7455,1.6635,1.5797,1.4424,1.3466,1.3336,1.2166,1.1412,1.1471,1.1478,1.1478,1.1478,1.1478,1.1478,1.1336,1.0322,0.9403,0.9299,0.9125,0.944,1.0525,1.0772,1.1394,1.3051,1.3302,1.4069,1.6025,1.7545,1.838,1.8696,1.9777,2.0516,2.0639,2.0639,2.1239,2.2883,2.5609,2.7512,2.7512,2.6698,2.703,2.7617,2.8272,2.7154,2.4398,2.5034,2.5271,2.4067,2.4559,2.49,2.4868,2.49,2.49,2.4702,2.4615,2.4198,2.3514,2.3067,2.2302,2.1426,2.0875,2.0624,2.1486,2.3233,2.377,-0.1375,-0.1371,-0.0336,0.0,0.0,0.0,0.0,0.0,0.1425,0.1092,0.0,0.0,0.061,0.1677,0.1677,0.2284,0.3346,0.4258,0.532,0.6375,0.736,0.8816,1.0602,1.0637,1.1021,1.1761,1.1761,1.1761,1.1748,1.1596,1.1938,1.3044,1.3978,1.4921,1.5794,1.5936,1.7046,1.915,1.7602,1.7921,2.0367,2.109,2.1991,2.322,2.337,2.3045,2.1968,2.1117,1.9443,1.7186,1.6188,1.521,1.4066,1.3134,1.2474,1.2481,1.1547,1.1089,1.1089,1.1201,1.1273,1.1273,1.1273,1.047,0.8718,0.7611,0.7201,0.7197,0.7786,0.839,0.9316,1.0118,1.0796,1.1808,1.1937,1.256,1.4186,1.5341,1.6461,1.7935,1.885,1.9777,2.0516,2.0639,2.0994,2.17,2.3138,2.4916,2.6213,2.5408,2.5133,2.6489,2.6649,2.5977,2.5399,2.4781,2.3828,2.3109,2.3138,2.2916,2.2742,2.258,2.2448,2.2346,2.2257,2.191,2.1314,2.0701,2.0333,1.9346,1.8828,1.8699,1.9416,2.0261,2.055,-0.3521,-0.3349,-0.1317,-0.0491,-0.0326,-0.0156,0.0,0.0,-0.0611,-0.0915,-0.0762,-0.0304,-0.0152,-0.0455,-0.0151,0.0,0.0,0.1811,0.2865,0.3163,0.4867,0.6561,0.8288,0.8402,0.9299,1.0848,1.0855,1.0994,1.1273,1.124,1.1221,1.1214,1.1175,1.1148,1.1181,1.1728,1.2628,1.4147,1.6054,1.7418,1.8208,1.8815,1.9412,2.0289,2.0592,2.0727,2.0424,1.953,1.7676,1.5079,1.3946,1.2519,1.0605,1.0281,1.0229,1.0242,1.03,1.0277,1.0145,1.0396,1.054,1.0396,1.0433,0.8875,0.5202,0.4917,0.4923,0.4945,0.6384,0.7417,0.7934,0.9372,1.0552,1.0552,1.0552,1.1175,1.2934,1.3443,1.477,1.7584,1.8068,1.9,1.9975,2.0218,2.0339,2.0469,2.1373,2.1967,2.4233,2.4328,2.4691,2.5666,2.4899,2.4937,2.5469,2.4491,2.3124,2.2642,2.1548,2.082,2.0063,1.9646,1.9477,1.898,1.8993,1.8919,1.9098,1.8828,1.8824,1.8784,1.8244,1.7854,1.7922,1.715,1.6909,-0.5565,-0.5402,-0.3427,-0.261,-0.2441,-0.0794,0.0,-0.0157,0.0,0.0,0.0,-0.1492,-0.1035,-0.251,-0.0724,0.0,0.0,0.0431,0.1434,0.3151,0.3422,0.4692,0.6535,0.6504,0.7468,0.9154,0.9154,0.9859,1.1267,1.1049,1.0937,1.0917,1.0693,1.0575,1.0719,1.231,1.2744,1.2281,1.2839,1.4038,1.5706,1.5863,1.7038,1.938,1.9527,1.9098,1.808,1.657,1.4903,1.3367,1.1528,1.0417,1.036,0.9417,0.8808,0.8563,0.8166,0.7704,0.6965,0.6903,0.6759,0.6373,0.625,0.5341,0.3158,0.3024,0.3054,0.2992,0.4683,0.6242,0.7676,0.9372,1.0552,1.0552,1.0552,1.1203,1.2784,1.414,1.5528,1.709,1.8418,1.9293,1.9244,1.9294,1.9283,1.9803,2.0721,2.2258,2.3216,2.4309,2.5274,2.6371,2.5582,2.4666,2.3677,2.2805,2.2443,2.1226,2.0964,2.0553,1.9312,1.8034,1.7784,1.8328,1.7837,1.7569,1.8515,1.8247,1.814,1.8005,1.7673,1.727,1.705,1.5278,1.3855,-0.7679,0.0,-0.5439,-0.4642,0.0,-0.3439,-0.3117,-0.3148,-0.5216,-0.6072,-0.5914,-0.3902,-0.3586,-0.4472,-0.2476,-0.1587,-0.1586,-0.0427,0.0566,0.1555,0.1537,0.2479,0.4205,0.4205,0.515,0.6905,0.7848,0.8665,0.9472,1.0296,1.0641,1.0641,1.0502,1.0502,1.0779,1.1571,1.1954,1.1715,1.2309,1.3058,1.3942,1.4398,1.5277,1.6891,1.7038,0.0,0.0,0.0,0.0,0.0,0.0,0.0,0.0,0.0,0.0,0.6982,0.6685,0.6253,0.5846,0.5736,0.5493,0.5249,0.5197,0.4096,0.1472,0.1226,0.1232,0.1248,0.362,0.5363,0.6237,0.8609,0.9988,0.9981,0.9981,1.0242,1.1251,1.2686,1.4111,1.5441,1.7045,1.8195,1.8741,1.8828,1.8958,1.9307,1.9907,2.0903,2.2155,2.2918,2.3354,2.4147,2.3874,2.346,2.3289,2.2392,2.082,1.9908,1.9268,1.8573,1.7527,1.6255,1.5329,1.5555,1.5218,1.4891,1.5638,1.5532,1.5272,1.5355,1.5067,1.4794,1.3885,1.3301,1.2692,-0.9697,-0.9536,-0.7532,-0.6607,-0.675,-0.7056,-0.7213,-0.7178,-0.7193,-0.698,-0.6677,-0.6193,-0.6183,-0.6466,-0.4541,-0.3327,-0.3036,-0.1269,-0.0279,0.0,0.0,0.0668,0.1958,0.2086,0.2995,0.4815,0.6502,0.7417,0.78,0.963,1.0552,1.0552,1.0552,1.0568,1.0852,0.0,0.0,0.0,1.2167,1.2613,1.2668,1.3271,1.3889,1.4391,1.4689,0.0,1.4881,1.4429,1.3411,1.2012,1.1232,0.0,0.0,0.0,0.0,0.0,0.0,0.0,0.0,0.0,0.0,0.0,0.4221,0.3031,0.0,0.0,0.0,0.024,0.2871,0.4781,0.4901,0.7527,0.9323,0.9441,0.9441,0.9638,1.001,1.1016,1.2409,1.4245,1.5573,1.6878,1.8243,1.8504,1.853,1.8621,1.8659,1.9504,2.1375,2.1859,2.1633,2.1745,2.2746,2.3168,2.3787,2.1497,1.9529,1.8465,1.7323,1.6274,1.5383,1.4196,1.3078,1.3098,1.2634,1.2491,1.2872,1.2768,1.3046,1.2816,1.2921,1.2146,0.9961,1.0407,1.0862,-1.1914,-1.1636,-0.9671,-0.881,-0.8796,-1.0748,-1.1423,-1.1454,-1.1416,-1.0482,-0.8641,-0.6839,-0.7064,-0.865,-0.6304,-0.4525,-0.315,-0.2401,-0.1451,0.0,0.0,0.0131,0.0393,0.0,0.1176,0.2997,0.4686,0.6372,0.7805,0.963,1.0552,1.0552,1.0552,1.0568,1.0852,1.0865,1.1023,1.1326,1.1366,1.166,1.1768,1.1927,1.2481,1.3472,1.3636,1.3799,1.4234,1.3191,1.187,1.0284,0.9817,0.8302,0.5635,0.448,0.3697,0.0,0.2812,0.0,0.0,0.0,0.0,0.0,0.0,0.0,0.0,0.0,0.0233,0.0598,0.275,0.4301,0.5139,0.7052,0.8606,0.908,0.9198,0.9831,1.1505,1.1886,1.2996,1.5438,1.5834,1.6336,1.7242,1.7335,1.7543,1.7876,1.7967,1.8669,2.0457,2.2792,2.3933,2.2849,2.4934,2.4729,2.243,2.0594,1.8959,1.7228,1.5846,1.4774,1.3443,1.2036,1.1414,1.2332,1.1601,1.1196,1.2577,1.2692,1.2701,1.2376,1.2376,1.0862,0.6686,0.551,0.5299,-1.217,-1.2177,-1.1223,-1.0812,-1.0959,-1.192,-1.217,-1.217,-1.217,-1.1712,-1.0772,-0.9632,-0.9588,-1.0157,-0.8001,-0.6107,-0.4471,-0.3165,-0.1697,0.0,0.0,0.0,0.0,0.0,0.0393,0.1176,0.3721,0.5473,0.6234,0.89,1.0172,1.0172,1.0337,1.0489,1.0345,1.0506,1.086,1.1273,1.1273,1.1339,1.1465,1.1471,1.1673,1.2232,1.2239,1.2313,1.2598,1.1728,1.1033,1.0359,0.7914,0.6171,0.5437,0.4717,0.3628,0.0,0.0,0.0,0.0,0.0,0.0,0.0,0.0,0.0,0.0,0.0,0.0222,0.0333,0.2582,0.4194,0.443,0.6701,0.8285,0.851,0.8628,0.909,1.0267,1.1656,1.288,1.4086,1.5615,1.6643,1.6832,1.7012,1.7218,1.7452,1.7491,1.8016,1.9538,2.0821,2.1894,2.1953,2.3608,2.3872,2.1446,1.9333,1.7244,1.5236,1.3619,1.2462,1.1734,0.9809,0.8543,0.9032,0.8133,0.7334,0.7976,0.8083,0.8083,0.8083,0.8083,0.6793,0.3791,0.2481,0.1609,-1.217,-1.2307,-1.2606,-1.2733,-1.2647,-1.2505,-1.2356,-1.2058,-1.2065,-1.2025,-1.1939,-1.1715,-1.1451,-1.1023,-0.932,-0.7477,-0.5501,-0.3788,-0.1945,0.0,0.0,0.0,0.0,0.0,0.0,0.0,0.291,0.4516,0.5043,0.7886,0.9481,0.9858,1.0067,0.9895,0.97,0.9907,1.0322,1.1069,1.1069,1.1076,1.1076,1.1142,1.1214,1.1273,1.1273,1.1247,1.1181,1.0747,1.0353,1.0087,0.6514,0.4687,0.494,0.4481,0.0,0.0,0.0,0.0,0.0,0.0,0.0,0.0,0.0,0.0,0.0097,0.0,0.0316,0.0,0.2297,0.3828,0.4081,0.6122,0.0,0.0,0.8145,0.8366,0.9005,1.0904,1.2261,1.2738,1.4875,1.6382,1.6665,1.6883,1.7012,1.7114,1.7231,1.7621,1.8796,1.9252,1.99,2.0715,2.1981,2.2158,2.0451,1.8215,1.5914,1.3286,1.1436,1.0022,0.9695,0.756,0.5859,0.5868,0.4994,0.4338,0.445,0.423,0.4118,0.3034,0.2489,0.1836,0.0324,-0.1072,-0.2341,-1.217,-1.2424,-1.3987,-1.4182,-1.3602,-1.3336,-1.2619,-1.1755,-1.1748,-1.1603,-1.1353,-1.132,-1.1155,-1.0871,-0.9928,0.0,-0.5215,-0.444,-0.2673,0.0,0.0,0.0,0.0,0.0,0.0,0.0,0.1881,0.3548,0.5304,0.6823,0.8243,0.9487,0.9122,0.9001,0.913,0.9287,0.9683,1.0612,1.0619,1.0619,1.0625,1.0759,1.1023,1.126,1.1273,1.1148,1.0911,1.0621,0.9675,0.8099,0.6222,0.4567,0.3125,0.0,0.0,0.0,0.0,0.0,0.0,0.0,0.0,0.0,0.0,0.0,0.0,0.0,0.0,0.0,0.1678,0.0,0.4659,0.4984,0.0,0.0,0.0,0.8139,0.9112,0.9526,1.052,1.2656,0.0,0.0,1.6447,1.6768,1.6781,1.7114,1.7569,1.7825,1.7915,2.0106,2.1187,1.9855,2.1222,2.1659,1.9468,1.7646,1.5425,1.2286,0.9903,0.8316,0.7029,0.5419,0.4558,0.446,0.4345,0.4233,0.4239,0.4125,0.3034,-0.0651,-0.2375,-0.3872,-0.4945,-0.6524,-0.7673,-1.494,-1.5027,-1.4775,-1.4509,-1.4242,-1.3591,-1.2911,-1.2286,-1.2017,-1.1672,-1.1282,-1.1106,-1.087,-1.0566,-1.0025,0.0,0.0,0.0,-0.3218,-0.0892,-0.0383,-0.0128,0.0,0.0,0.0,0.0,0.1516,0.3269,0.5076,0.6412,0.7572,0.8164,0.0,0.0,0.834,0.8654,0.9128,0.9889,1.0067,1.0238,1.0552,1.0672,1.0647,1.0753,1.0759,1.0839,1.0601,1.0594,0.9857,0.8295,0.8317,0.6899,0.0,0.0,0.0,0.0,0.0,0.0,0.0,0.0,0.0,0.0,0.0,0.0918,0.0988,0.0,0.0,0.0,0.1934,0.2859,0.4296,0.4997,0.0,0.0,0.0,0.0,0.0,0.0,0.0,1.3646,1.4656,1.5531,1.6369,1.6575,1.6781,1.7114,1.7413,1.7884,1.8442,0.0,2.0379,1.8876,2.0101,2.0219,1.7619,1.6116,1.473,1.2984,1.0007,0.7531,0.632,0.4338,0.3039,0.2932,0.2283,0.174,0.1741,0.174,0.1087,-0.0544,-0.2703,-0.4305,-0.4949,-0.8345,-1.1199,-1.7988,0.0,0.0,0.0,0.0,-1.4291,-1.3578,-1.2921,-1.2547,-1.1981,-1.1489,-1.1059,0.0,0.0,0.0,0.0,0.0,0.0,-0.3317,-0.1221,-0.0617,-0.025,0.0,0.0,0.0,0.0126,0.1234,0.2805,0.4743,0.5853,0.672,0.7329,0.0,0.0,0.0,0.0,0.8754,0.9428,0.9836,1.012,1.0545,1.0552,1.0552,1.0552,1.0552,1.0552,1.0552,1.0525,0.9858,0.8487,0.8386,0.0,0.0,0.0,0.0,0.0,0.0,0.0,0.0,0.0,0.0,0.0,0.0,0.0,0.0,0.0,0.0,0.0,0.0,0.0,0.3887,0.4782,0.5889,0.0,0.0,0.0,0.0,0.0,0.0,0.0,0.0,0.0,1.6247,1.6577,1.6896,0.0,0.0,1.7723,1.8735,1.9539,1.9805,1.8838,1.9522,0.0,1.6335,1.5172,1.4196,1.3484,1.008,0.6798,0.4652,0.2183,0.0543,0.0869,0.0218,-0.0762,-0.152,-0.1737,-0.2061,-0.2921,-0.4945,-0.6843,-0.7891,-1.1469,-1.4864,0.0,0.0,0.0,0.0,0.0,0.0,0.0,0.0,-1.3183,-1.263,0.0,-1.1106,0.0,0.0,0.0,0.0,0.0,-0.3974,0.0,0.0,-0.0355,0.0,0.0,0.0,0.0119,0.0345,0.069,0.2063,0.4436,0.4815,0.0,0.0,0.0,0.0,0.0,0.0,0.8487,0.952,0.981,1.0113,1.0397,1.0545,1.0552,1.0545,1.0545,1.0545,1.0525,1.0521,0.9823,0.821,0.5134,0.0,0.0,0.0,0.0,0.0,0.0,0.0,0.0,0.0,0.0,0.0,0.0,0.0,0.0,0.0,0.0,0.0,0.0,0.0,0.0,0.4345,0.0,0.0,0.0,0.0,0.0,0.0,0.0,0.0,0.0,0.0,1.6198,1.6777,1.7217,1.7408,0.0,0.0,0.0,0.0,1.9919,1.9907,2.0019,1.9087,1.6301,1.5211,1.4185,1.2828,0.0,0.0,0.1145,-0.1773,-0.3149,-0.2173,-0.174,-0.2283,-0.5286,-0.5814,-0.6564,-0.8909,-1.1015,-1.3397,-1.5901,-1.7796,-1.9792,0.0,0.0,0.0,0.0,0.0,0.0,0.0,0.0,0.0,-1.2364,0.0,-1.0341,0.0,0.0,0.0,0.0,0.0,0.0,0.0,0.0,-0.1111,-0.0449,0.0,0.0,0.0115,0.0,0.0776,0.2141,0.0,0.0,0.0,0.0,0.0,0.0,0.0,0.0,0.8106,0.8601,0.9177,0.9559,0.9849,1.0034,1.0133,1.014,1.0318,1.0112,0.9496,0.9804,0.8854,0.0,0.0,0.0,0.0,0.0,0.0,0.0,0.0,0.0,0.0,0.0,0.0,0.0,0.0,0.0,0.0,0.0,0.0,0.0,0.0,0.0,0.0,0.0,0.5978,0.0,0.0,0.0,0.0,0.0,0.0,0.0,0.0,0.0,1.6007,1.7096,1.7803,1.7803,1.7817,1.8418,1.9948,0.0,0.0,0.0,0.0,0.0,0.0,0.0,1.5498,1.219,0.8745,0.4731,-0.0555,-0.5402,-0.8182,-0.6843,0.0,0.0,-0.8904,-1.0016,-1.0717,-1.1663,-1.5336,-1.825,-1.8347,-2.1636,-2.4383,0.0,0.0,0.0,0.0,0.0,0.0,0.0,0.0,0.0,-1.2303,-1.1003,0.0,0.0,0.0,0.0,0.0,0.0,0.0,0.0,0.0,0.0,0.0,-0.0105,0.0108,0.0,0.0,0.0,0.0,0.0,0.0,0.0,0.0,0.0,0.0,0.0,0.0,0.7964,0.8165,0.8821,0.9263,0.9559,0.9737,0.9708,0.9836,1.012,0.9871,0.8948,0.0,0.0,0.0,0.0,0.0,0.0,0.0,0.0,0.0,0.0,0.0,0.0,0.0,0.0,0.0,0.0,0.0,0.0,0.0,0.0,0.0,0.0,0.0,0.0,0.0,0.6757,0.0,0.0,0.0,0.0,0.0,0.0,0.0,0.0,0.0,0.0,0.0,1.85,1.8514,1.8803,1.9309,2.0368,2.071,2.0764,0.0,0.0,0.0,0.0,0.0,0.0,0.0,0.0,0.0,0.0,0.0,0.0,0.0,0.0,-1.2102,-1.4164,-1.5311,-1.6156,-1.6649,0.0,0.0,0.0,0.0,0.0,0.0,0.0,0.0,0.0,0.0,0.0,0.0,0.0,0.0,0.0,0.0,0.0,0.0,-0.7113,0.0,0.0,0.0,0.0,0.0,0.0,0.0,0.0,0.0,0.0,0.0,0.0,0.0,0.0,0.0,0.0,0.0,0.0,0.0,0.0,0.0,0.0,0.7951,0.8132,0.891,0.9344,0.9618,0.9546,0.9671,0.9559,0.983,0.9584,0.8792,0.0,0.0,0.0,0.0,0.0,0.0,0.0,0.0,0.0,0.0,0.0,0.0,0.0,0.0,0.0,0.0,0.0,0.0,0.0,0.0,0.0,0.0,0.0,0.0,0.0,0.0,0.8033,0.9146,0.9916,0.0,0.0,0.0,0.0,0.0,0.0,0.0,0.0,0.0,0.0,2.0107,2.0236,2.0217,2.1251,2.2103,2.2296,2.3307,2.1905,1.6034,1.5308,1.3476,0.0,0.0,0.0,0.0,0.0,0.0,0.0,0.0,0.0,0.0,0.0,0.0,0.0,0.0,0.0,0.0,0.0,0.0,0.0,0.0,0.0,0.0,0.0,0.0,0.0,0.0,0.0,0.0,0.0,0.0,0.0,0.0,0.0,0.0,0.0,0.0,0.0,0.0,0.0,0.0,0.0,0.0,0.0,0.0,0.0,0.0,0.0,0.0,0.0,0.0,0.0,0.0,0.0,0.0,0.8335,0.8961,0.9842,1.055,1.1251,1.0909,1.071,1.0726,1.0191,0.9458,0.0,0.0,0.0,0.0,0.0,0.0,0.0,0.0,0.0,0.0,0.0,0.0,0.0,0.0,0.0,0.0,0.0,0.0,0.0,0.0,0.0,0.0,0.0,0.0,0.0,0.0,0.0,0.0,1.0075,1.0841,1.1761,0.0,0.0,0.0,0.0,0.0,0.0,0.0,0.0,0.0,0.0,2.2462,2.3002,2.2027,2.1806,2.3476,2.4535,2.4195,2.1277,1.9154,1.7456,1.5709,0.0,0.0,0.0,0.0,0.0,0.0,0.0,0.0,0.0,0.0,0.0,0.0,0.0,0.0,0.0,0.0,0.0,0.0,0.0,0.0,0.0,0.0,0.0,0.0,0.0,0.0,0.0,0.0,0.0,0.0,0.0,0.0,0.0,0.0,0.0,0.0,0.0,0.0,0.0,0.0,0.0,0.0,0.0,0.0,0.0,0.0,0.0,0.0,0.0,0.0,0.0,0.0,0.0,0.8581,0.9466,1.0198,1.0769,1.1271,1.1124,1.0789,1.0366,0.9975,0.9322,0.0,0.0,0.0,0.0,0.0,0.0,0.0,0.0,0.0,0.0,0.0,0.0,0.0,0.0,0.0,0.0,0.0,0.0,0.0,0.0,0.0,0.0,0.0,0.0,0.0,0.0,0.0,0.0,1.155,1.1976,1.3237,0.0,0.0,0.0,0.0,0.0,0.0,0.0,0.0,0.0,0.0,2.3803,2.4041,2.2949,0.0,0.0,2.5945,2.5844,2.3471,2.1894,2.053,1.912,1.4642,0.0,0.0,0.0,0.0,0.0,0.0,0.0,0.0,0.0,0.0,0.0,0.0,0.0,0.0,0.0,0.0,0.0,0.0,0.0,0.0,0.0,0.0,0.0,0.0,0.0,0.0,0.0,0.0,0.0,0.0,0.0,0.0,0.0,0.0,0.0,0.0,0.0,0.0,0.0,0.0,0.0,0.0,0.0,0.0,0.0,0.0,0.0,0.0,0.0,0.0,0.0,0.0,0.0,0.9873,1.0337,1.0515,1.0306,1.0551,1.0227,0.9105,0.9396,0.9025,0.0,0.0,0.0,0.0,0.0,0.0,0.0,0.0,0.0,0.0,0.0,0.0,0.0,0.0,0.0,0.0,0.0,0.0,0.0,0.0,0.0,0.0,0.0,0.0,0.0,0.0,0.0,0.0,0.0,0.0,0.0,0.0,0.0,0.0,0.0,0.0,0.0,0.0,0.0,0.0,0.0,2.453,2.3768,2.4126,2.4762,0.0,0.0,2.7081,2.4043,2.4098,2.3424,2.047,0.0,0.0,0.0,0.0,0.0,0.0,0.0,0.0,0.0,0.0,0.0,0.0,0.0,0.0,0.0,0.0,0.0,0.0,0.0,0.0,0.0,0.0,0.0,0.0,0.0,0.0,0.0,0.0,0.0,0.0,0.0,0.0,0.0,0.0,0.0,0.0,0.0,0.0,0.0,0.0,0.0,0.0,0.0,0.0,0.0,0.0,0.0,0.0,0.0,0.0,0.0,0.0,0.0,0.0,1.1453,1.2147,1.3002,1.3889,1.2472,1.1729,1.1743,1.0467,0.0,0.0,0.0,0.0,0.0,0.0,0.0,0.0,0.0,0.0,0.0,0.0,0.0,0.0,0.0,0.0,0.0,0.0,0.0,0.0,0.0,0.0,0.0,0.0,0.0,0.0,0.0,1.6247,0.0,0.0,0.0,0.0,0.0,0.0,0.0,0.0,0.0,0.0,0.0,0.0,0.0,0.0,2.6036,2.5155,2.5308,2.593,0.0,0.0,3.0252,3.3405,3.0262,2.9149,0.0,0.0,0.0,0.0,0.0,0.0,0.0,0.0,0.0,0.0,0.0,0.0,0.0,0.0,0.0,0.0,0.0,0.0,0.0,0.0,0.0,0.0,0.0,0.0,0.0,0.0,0.0,0.0,0.0,0.0,0.0,0.0,0.0,0.0,0.0,0.0,0.0,0.0,0.0,0.0,0.0,0.0,0.0,0.0,0.0,0.0,0.0,0.0,0.0,0.0,0.0,0.0,0.0,0.0,1.1164,1.2306,1.2764,1.3438,1.4356,1.349,1.2864,1.2504,1.1492,1.0716,0.0,0.0,0.0,0.0,0.0,0.0,0.0,0.0,0.0,0.0,0.0,0.0,0.0,0.0,0.0,0.0,0.0,0.0,0.0,0.0,0.0,0.0,0.0,0.0,0.0,0.0,0.0,0.0,0.0,0.0,0.0,0.0,0.0,0.0,0.0,0.0,0.0,0.0,0.0,0.0,0.0,0.0,2.6192,2.7186,0.0,0.0,0.0,3.3465,3.6909,0.0,0.0,0.0,0.0,0.0,0.0,0.0,0.0,0.0,0.0,0.0,0.0,0.0,0.0,0.0,0.0,0.0,0.0,0.0,0.0,0.0,0.0,0.0,0.0,0.0,0.0,0.0,0.0,0.0,0.0,0.0,0.0,0.0,0.0,0.0,0.0,0.0,0.0,0.0,0.0,0.0,0.0,0.0,0.0,0.0,0.0,0.0,0.0,0.0,0.0,0.0,0.0,0.0,0.0,0.0,0.0,0.0,1.2697,1.269,1.299,1.3369,1.3752,1.3415,1.2254,1.2313,1.2209,0.0,0.0,0.0,0.0,0.0,0.0,0.0,0.0,0.0,0.0,0.0,0.0,0.0,0.0,0.0,0.0,0.0,0.0,0.0,0.0,0.0,0.0,0.0,0.0,0.0,0.0,0.0,0.0,0.0,0.0,0.0,0.0,0.0,0.0,0.0,0.0,0.0,0.0,0.0,0.0,0.0,2.7716,2.7191,2.9335,3.135,0.0,0.0,3.6609,3.7917,3.9204,0.0,0.0,0.0,0.0,0.0,0.0,0.0,0.0,0.0,0.0,0.0,0.0,0.0,0.0,0.0,0.0,0.0,0.0,0.0,0.0,0.0,0.0,0.0,0.0,0.0,0.0,0.0,0.0,0.0,0.0,0.0,0.0,0.0,0.0,0.0,0.0,0.0,0.0,0.0,0.0,0.0,0.0,0.0,0.0,0.0,0.0,0.0,0.0,0.0,0.0,0.0,0.0,0.0,0.0,0.0,0.0,1.3275,1.3351,1.375,1.4195,1.3339,1.2854,1.2926,1.2313,1.2386,0.0,0.0,0.0,0.0,0.0,0.0,0.0,0.0,0.0,0.0,0.0,0.0,0.0,0.0,0.0,0.0,0.0,0.0,0.0,0.0,0.0,0.0,0.0,0.0,0.0,0.0,0.0,0.0,0.0,0.0,0.0,0.0,0.0,0.0,0.0,0.0,0.0,0.0,0.0,0.0,0.0,2.9168,2.9321,3.1676,0.0,0.0,0.0,0.0,4.341,4.3861,0.0,0.0,0.0,0.0,0.0,0.0,0.0,0.0,0.0,0.0,0.0,0.0,0.0,0.0,0.0,0.0,0.0,0.0,0.0,0.0,0.0,0.0,0.0,0.0,0.0,0.0,0.0,0.0,0.0,0.0,0.0,0.0,0.0,0.0,0.0,0.0,0.0,0.0,0.0,0.0,0.0,0.0,0.0,0.0,0.0,0.0,0.0,0.0,0.0,0.0,0.0,0.0,0.0,0.0,0.0,0.0,1.3932,1.3853,1.4366,1.527,1.5071,1.5105,1.5401,1.4945,1.4993,0.0,0.0,0.0,0.0,0.0,0.0,0.0,0.0,0.0,0.0,0.0,0.0,0.0,0.0,0.0,0.0,0.0,0.0,0.0,0.0,0.0,0.0,0.0,0.0,0.0,0.0,0.0,0.0,0.0,0.0,0.0,0.0,0.0,0.0,0.0,0.0,0.0,0.0,0.0,0.0,3.0643,3.1022,3.0951,0.0,0.0,0.0,0.0,0.0,0.0,4.567,4.6654,0.0,0.0,0.0,0.0,0.0,0.0,0.0,0.0,0.0,0.0,0.0,0.0,0.0,0.0,0.0,0.0,0.0,0.0,0.0,0.0,0.0,0.0,0.0,0.0,0.0,0.0,0.0,0.0,0.0,0.0,0.0,0.0,0.0,0.0,0.0,0.0,0.0,0.0,0.0,0.0,0.0,0.0,0.0,0.0,0.0,0.0,0.0,0.0,0.0,0.0,0.0,0.0,0.0,0.0,0.0,1.4489,1.4352,1.4831,1.6069,1.7079,1.7564,1.7564,1.7647,1.801,1.8674,0.0,0.0,0.0,0.0,0.0,0.0,0.0,0.0,0.0,0.0,0.0,0.0,0.0,0.0,0.0,0.0,0.0,0.0,0.0,0.0,0.0,0.0,0.0,0.0,0.0,0.0,0.0,0.0,0.0,0.0,0.0,0.0,0.0,0.0,0.0,0.0,0.0,0.0,0.0,3.2052,3.3148,0.0,0.0,0.0,0.0,0.0,0.0,0.0,0.0,4.7601,0.0,0.0,0.0,0.0,0.0,0.0,0.0,0.0,0.0,0.0,0.0,0.0,0.0,0.0,0.0,0.0,0.0,0.0,0.0,0.0,0.0,0.0,0.0,0.0,0.0,0.0,0.0,0.0,0.0,0.0,0.0,0.0,0.0,0.0,0.0,0.0,0.0,0.0,0.0,0.0,0.0,0.0,0.0,0.0,0.0,0.0,0.0,0.0,0.0,0.0,0.0,0.0,0.0,0.0,0.0,0.0,1.4739,1.5008,1.5967,1.6624,1.7024,1.704,1.7325,1.8727,2.1125,0.0,0.0,0.0,0.0,0.0,0.0,0.0,0.0,0.0,0.0,0.0,0.0,0.0,0.0,0.0,0.0,0.0,0.0,0.0,0.0,0.0,0.0,0.0,0.0,0.0,0.0,0.0,0.0,0.0,0.0,0.0,0.0,0.0,0.0,0.0,0.0,0.0,0.0,3.2473,3.4157,0.0,0.0,0.0,0.0,0.0,0.0,0.0,0.0,4.7377,0.0,0.0,0.0,0.0,0.0,0.0,0.0,0.0,0.0,0.0,0.0,0.0,0.0,0.0,0.0,0.0,0.0,0.0,0.0,0.0,0.0,0.0,0.0,0.0,0.0,0.0,0.0,0.0,0.0,0.0,0.0,0.0,0.0,0.0,0.0,0.0,0.0,0.0,0.0,0.0,0.0,0.0,0.0,0.0,0.0,0.0,0.0,0.0,0.0,0.0,0.0,0.0,0.0,0.0,0.0,0.0,0.0,0.0,1.6427,1.6958,1.7492,1.8037,1.8579,1.9232,2.0269,0.0,0.0,0.0,0.0,0.0,0.0,0.0,0.0,0.0,0.0,0.0,0.0,0.0,0.0,0.0,0.0,0.0,0.0,0.0,0.0,0.0,0.0,0.0,0.0,0.0,0.0,0.0,0.0,0.0,0.0,0.0,0.0,0.0,0.0,0.0,0.0,0.0,0.0,0.0,0.0,0.0,0.0,0.0,0.0,0.0,0.0,0.0,0.0,0.0,0.0,0.0,0.0,0.0,0.0,0.0,0.0,0.0,0.0,0.0,0.0,0.0,0.0,0.0,0.0,0.0,0.0,0.0,0.0,0.0,0.0,0.0,0.0,0.0,0.0,0.0,0.0,0.0,0.0,0.0,0.0,0.0,0.0,0.0,0.0,0.0,0.0,0.0,0.0,0.0,0.0,0.0,0.0,0.0,0.0,0.0,0.0,0.0,0.0,0.0,0.0,0.0,0.0,0.0,0.0,0.0,0.0,0.0,0.0,1.8375,1.8346,1.8607,1.9192,1.9989,2.0977,2.1711,0.0,0.0,0.0,0.0,0.0,0.0,0.0,0.0,0.0,0.0,0.0,0.0,0.0,0.0,0.0,0.0,0.0,0.0,0.0,0.0,0.0,0.0,0.0,0.0,0.0,0.0,0.0,0.0,0.0,0.0,0.0,0.0,0.0,0.0,0.0,0.0,0.0,0.0,0.0,0.0,0.0,0.0,0.0,0.0,0.0,0.0,0.0,0.0,4.6283,0.0,0.0,0.0,0.0,0.0,0.0,0.0,0.0,0.0,0.0,0.0,0.0,0.0,0.0,0.0,0.0,0.0,0.0,0.0,0.0,0.0,0.0,0.0,0.0,0.0,0.0,0.0,0.0,0.0,0.0,0.0,0.0,0.0,0.0,0.0,0.0,0.0,0.0,0.0,0.0,0.0,0.0,0.0,0.0,0.0,0.0,0.0,0.0,0.0,0.0,0.0,0.0,0.0,0.0,0.0,0.0,0.0,0.0,0.0,2.0435,1.9838,1.9827,1.9894,2.0045,2.1145,2.2147,0.0,0.0,0.0,0.0,0.0,0.0,0.0,0.0,0.0,0.0,0.0,0.0,0.0,0.0,0.0,0.0,0.0,0.0,0.0,0.0,0.0,0.0,0.0,0.0,0.0,0.0,0.0,0.0,0.0,0.0,0.0,0.0,0.0,0.0,0.0,0.0,0.0,0.0,0.0,0.0,0.0,0.0,0.0,0.0,0.0,0.0,0.0,0.0,0.0,0.0,0.0,0.0,0.0,0.0,0.0,0.0,0.0,0.0,0.0,0.0,0.0,0.0,0.0,0.0,0.0,0.0,0.0,0.0,0.0,0.0,0.0,0.0,0.0,0.0,0.0,0.0,0.0,0.0,0.0,0.0,0.0,0.0,0.0,0.0,0.0,0.0,0.0,0.0,0.0,0.0,0.0,0.0,0.0,0.0,0.0,0.0,0.0,0.0,0.0,0.0,0.0,0.0,0.0,0.0,0.0,0.0,0.0,0.0,1.9722,1.9698,1.9316,1.9667,2.07,2.1072,2.195,0.0,0.0,0.0,0.0,0.0,0.0,0.0,0.0,0.0,0.0,0.0,0.0,0.0,0.0,0.0,0.0,0.0,0.0,0.0,0.0,0.0,0.0,0.0,0.0,0.0,0.0,0.0,0.0,0.0,0.0,0.0,0.0,0.0,0.0,0.0,0.0,0.0,0.0,0.0,0.0,0.0,0.0,0.0,0.0,0.0,0.0,0.0,0.0,0.0,0.0,0.0,0.0,0.0,0.0,0.0,0.0,0.0,0.0,0.0,0.0,0.0,0.0,0.0,0.0,0.0,0.0,0.0,0.0,0.0,0.0,0.0,0.0,0.0,0.0,0.0,0.0,0.0,0.0,0.0,0.0,0.0,0.0,0.0,0.0,0.0,0.0,0.0,0.0,0.0,0.0,0.0,0.0,0.0,0.0,0.0,0.0,0.0,0.0,0.0,0.0,0.0,0.0,0.0,0.0,0.0,0.0,0.0,0.0,0.0,1.9827,1.9474,1.9818,2.102,2.1114,2.1912,0.0,0.0,0.0,0.0,0.0,0.0,0.0,0.0,0.0,0.0,0.0,0.0,0.0,0.0,0.0,0.0,0.0,0.0,0.0,0.0,0.0,0.0,0.0,0.0,0.0,0.0,0.0,0.0,0.0,0.0,0.0,0.0,0.0,0.0,0.0,0.0,0.0,0.0,0.0,0.0,0.0,0.0,0.0,0.0,0.0,0.0,0.0,0.0,0.0,0.0,0.0,0.0,0.0,0.0,0.0,0.0,0.0,0.0,0.0,0.0,0.0,0.0,0.0,0.0,0.0,0.0,0.0,0.0,0.0,0.0,0.0,0.0,0.0,0.0,0.0,0.0,0.0,0.0,0.0,0.0,0.0,0.0,0.0,0.0,0.0,0.0,0.0,0.0,0.0,0.0,0.0,0.0,0.0,0.0,0.0,0.0,0.0,0.0,0.0,0.0,0.0,0.0,0.0,0.0,0.0,0.0,0.0,0.0,0.0,2.1062,2.1209,2.1083,2.0855,2.1383,2.2201,0.0,0.0,0.0,0.0,0.0,0.0,0.0,0.0,0.0,0.0,0.0,0.0,0.0,0.0,0.0,0.0,0.0,0.0,0.0,0.0,0.0,0.0,0.0,0.0,0.0,0.0,0.0,0.0,0.0,0.0,0.0,0.0,0.0,0.0,0.0,0.0,0.0,0.0,0.0,0.0,0.0,0.0,0.0,0.0,0.0,0.0,0.0,0.0,0.0,0.0,0.0,0.0,0.0,0.0,0.0,0.0,0.0,0.0,0.0,0.0,0.0,0.0,0.0,0.0,0.0,0.0,0.0,0.0,0.0,0.0,0.0,0.0,0.0,0.0,0.0,0.0,0.0,0.0,0.0,0.0,0.0,0.0,0.0,0.0,0.0,0.0,0.0,0.0,0.0,0.0,0.0,0.0,0.0,0.0,0.0,0.0,0.0,0.0,0.0,0.0,0.0,0.0,0.0,0.0,0.0,0.0,0.0,0.0,0.0,2.1874,2.2065,2.2286,2.2642,2.1152,2.1349,2.3232,0.0,0.0,0.0,0.0,0.0,0.0,0.0,0.0,0.0,0.0,0.0,0.0,0.0,0.0,0.0,0.0,0.0,0.0,0.0,0.0,0.0,0.0,0.0,0.0,0.0,0.0,0.0,0.0,0.0,0.0,0.0,0.0,0.0,0.0,0.0,0.0,0.0,0.0,0.0,0.0,0.0,0.0,0.0,0.0,0.0,0.0,0.0,0.0,0.0,0.0,0.0,0.0,0.0,0.0,0.0,0.0,0.0,0.0,0.0,0.0,0.0,0.0,0.0,0.0,0.0,0.0,0.0,0.0,0.0,0.0,0.0,0.0,0.0,0.0,0.0,0.0,0.0,0.0,0.0,0.0,0.0,0.0,0.0,0.0,0.0,0.0,0.0,0.0,0.0,0.0,0.0,0.0,0.0,0.0,0.0,0.0,0.0,0.0,0.0,0.0,0.0,0.0,0.0,0.0,0.0,0.0,0.0,0.0,2.3588,2.3971,2.3967,2.3466,2.2118,2.1705,0.0,0.0,0.0,0.0,0.0,0.0,0.0,0.0,0.0,0.0,0.0,0.0,0.0,0.0,0.0,0.0,0.0,0.0,0.0,0.0,0.0,0.0,0.0,0.0,0.0,0.0,0.0,0.0,0.0,0.0,0.0,0.0,0.0,0.0,0.0,0.0,0.0,0.0,0.0,0.0,0.0,0.0,0.0,0.0,0.0,0.0,0.0,0.0,0.0,0.0,0.0,0.0,0.0,0.0,0.0,0.0,0.0,0.0,0.0,0.0,0.0,0.0,0.0,0.0,0.0,0.0,0.0,0.0,0.0,0.0,0.0,0.0,0.0,0.0,0.0,0.0,0.0,0.0,0.0,0.0,0.0,0.0,0.0,0.0,0.0,0.0,0.0,0.0,0.0,0.0,0.0,0.0,0.0,0.0,0.0,0.0,0.0,0.0,0.0,0.0,0.0,0.0,0.0,0.0,0.0,0.0,0.0,0.0,2.3749,2.6502,2.714,2.6056,2.3304,2.4268,2.3534,0.0,0.0,0.0,0.0,0.0,0.0,0.0,0.0,0.0,0.0,0.0,0.0,0.0,0.0,0.0,0.0,0.0,0.0,0.0,0.0,0.0,0.0,0.0,0.0,0.0,0.0,0.0,0.0,0.0,0.0,0.0,0.0,0.0,0.0,0.0,0.0,0.0,0.0,0.0,0.0,0.0,0.0,0.0,0.0,0.0,0.0,0.0,0.0,0.0,0.0,0.0,0.0,0.0,0.0,0.0,0.0,0.0,0.0,0.0,0.0,0.0,0.0,0.0,0.0,0.0,0.0,0.0,0.0,0.0,0.0,0.0,0.0,0.0,0.0,0.0,0.0,0.0,0.0,0.0,0.0,0.0,0.0,0.0,0.0,0.0,0.0,0.0,0.0,0.0,0.0,0.0,0.0,0.0,0.0,0.0,0.0,0.0,0.0,0.0,0.0,0.0,0.0,0.0,0.0,0.0,0.0,0.0,0.0,0.0,2.8082,0.0,2.7203,0.0,2.4141,2.2821,0.0,0.0,0.0,0.0,0.0,0.0,0.0,0.0,0.0,0.0,0.0,0.0,0.0,0.0,0.0,0.0,0.0,0.0,0.0,0.0,0.0,0.0,0.0,0.0,0.0,0.0,0.0,0.0,0.0,0.0,0.0,0.0,0.0,0.0,0.0,0.0,0.0,0.0,0.0,0.0,0.0,0.0,0.0,0.0,0.0,0.0,0.0,0.0,0.0,0.0,0.0,0.0,0.0,0.0,0.0,0.0,0.0,0.0,0.0,0.0,0.0,0.0,0.0,0.0,0.0,0.0,0.0,0.0,0.0,0.0,0.0,0.0,0.0,0.0,0.0,0.0,0.0,0.0,0.0,0.0,0.0,0.0,0.0,0.0,0.0,0.0,0.0,0.0,0.0,0.0,0.0,0.0,0.0,0.0,0.0,0.0,0.0,0.0,0.0,0.0,0.0,0.0,0.0,0.0,0.0,0.0,0.0,0.0,0.0,2.9839,2.9609,2.8844,2.7724,2.617,2.4438,0.0,0.0,0.0,0.0,0.0,0.0,0.0,0.0,0.0,0.0,0.0,0.0,0.0,0.0,0.0,0.0,0.0,0.0,0.0,0.0,0.0,0.0,0.0,0.0,0.0,0.0,0.0,0.0,0.0,0.0,0.0,0.0,0.0,0.0,0.0,0.0,0.0,0.0,0.0,0.0,0.0,0.0,0.0,0.0,0.0,0.0,0.0,0.0,0.0,0.0,0.0,0.0,0.0,0.0,0.0,0.0,0.0,0.0,0.0,0.0,0.0,0.0,0.0,0.0,0.0,0.0,0.0,0.0,0.0,0.0,0.0,0.0,0.0,0.0,0.0,0.0,0.0,0.0,0.0,0.0,0.0,0.0,0.0,0.0,0.0,0.0,0.0,0.0,0.0,0.0,0.0,0.0,0.0,0.0,0.0,0.0,0.0,0.0,0.0,0.0,0.0,0.0,0.0,0.0,0.0,0.0,0.0,0.0,0.0,0.0,3.184,3.0953,2.9163,2.9846,2.7869,0.0,0.0,0.0,0.0,0.0,0.0,0.0,0.0,0.0,0.0,0.0,0.0,0.0,0.0,0.0,0.0,0.0,0.0,0.0,0.0,0.0,0.0,0.0,0.0,0.0,0.0,0.0,0.0,0.0,0.0,0.0,0.0,0.0,0.0,0.0,0.0,0.0,0.0,0.0,0.0,0.0,0.0,0.0,0.0,0.0,0.0,0.0,0.0,0.0,0.0,0.0,0.0,0.0,0.0,0.0,0.0,0.0,0.0,0.0,0.0,0.0,0.0,0.0,0.0,0.0,0.0,0.0,0.0,0.0,0.0,0.0,0.0,0.0,0.0,0.0,0.0,0.0,0.0,0.0,0.0,0.0,0.0,0.0,0.0,0.0,0.0,0.0,0.0,0.0,0.0,0.0,0.0,0.0,0.0,0.0,0.0,0.0,0.0,0.0,0.0,0.0,0.0,0.0,0.0,0.0,0.0,0.0,0.0,0.0,0.0,3.2032,0.0,3.1164,2.8528,2.599,2.3745,0.0,0.0,0.0,0.0,0.0,0.0,0.0,0.0,0.0,0.0,0.0,0.0,0.0,0.0,0.0,0.0,0.0,0.0,0.0,0.0,0.0,0.0,0.0,0.0,0.0,0.0,0.0,0.0,0.0,0.0,0.0,0.0,0.0,0.0,0.0,0.0,0.0,0.0,0.0,0.0,0.0,0.0,0.0,0.0,0.0,0.0,0.0,0.0,0.0,0.0,0.0,0.0,0.0,0.0,0.0,0.0,0.0,0.0,0.0,0.0,0.0,0.0,0.0,0.0,0.0,0.0,0.0,0.0,0.0,0.0,0.0,0.0,0.0,0.0,0.0,0.0,0.0,0.0,0.0,0.0,0.0,0.0,0.0,0.0,0.0,0.0,0.0,0.0,0.0,0.0,0.0,0.0,0.0,0.0,0.0,0.0,0.0,0.0,0.0,0.0,0.0,0.0,0.0,0.0,0.0,0.0,0.0,0.0,0.0,0.0,0.0,3.214,2.9573,2.7139,0.0,0.0,0.0,0.0,0.0,0.0,0.0,0.0,0.0,0.0,0.0,0.0,0.0,0.0,0.0,0.0,0.0,0.0,0.0,0.0,0.0,0.0,0.0,0.0,0.0,0.0,0.0,0.0,0.0,0.0,0.0,0.0,0.0,0.0,0.0,0.0,0.0,0.0,0.0,0.0,0.0,0.0,0.0,0.0,0.0,0.0,0.0,0.0,0.0,0.0,0.0,0.0,0.0,0.0,0.0,0.0,0.0,0.0,0.0,0.0,0.0,0.0,0.0,0.0,0.0,0.0,0.0,0.0,0.0,0.0,0.0,0.0,0.0,0.0,0.0,0.0,0.0,0.0,0.0,0.0,0.0,0.0,0.0,0.0,0.0,0.0,0.0,0.0,0.0,0.0,0.0,0.0,0.0,0.0,0.0,0.0,0.0,0.0,0.0,0.0,0.0,0.0,0.0,0.0,0.0,0.0,0.0,0.0,0.0,0.0,0.0,3.214,3.214,3.2091,0.0,2.5874,0.0,0.0,0.0,0.0,0.0,0.0,0.0,0.0,0.0,0.0,0.0,0.0,0.0,0.0,0.0,0.0,0.0,0.0,0.0,0.0,0.0,0.0,0.0,0.0,0.0,0.0,0.0,0.0,0.0,0.0,0.0,0.0,0.0,0.0,0.0,0.0,0.0,0.0,0.0,0.0,0.0,0.0,0.0,0.0,0.0,0.0,0.0,0.0,0.0,0.0,0.0,0.0,0.0,0.0,0.0,0.0,0.0,0.0,0.0,0.0,0.0,0.0,0.0,0.0,0.0,0.0,0.0,0.0,0.0,0.0,0.0,0.0,0.0,0.0,0.0,0.0,0.0,0.0,0.0,0.0,0.0,0.0,0.0,0.0,0.0,0.0,0.0,0.0,0.0,0.0,0.0,0.0,0.0,0.0,0.0,0.0,0.0,0.0,0.0,0.0,0.0,0.0,0.0,0.0,0.0,0.0,0.0,0.0,0.0,0.0,0.0,0.0,3.214,3.009,2.5776,0.0,0.0,0.0,0.0,0.0,0.0,0.0,0.0,0.0,0.0,0.0,0.0,0.0,0.0,0.0,0.0,0.0,0.0,0.0,0.0,0.0,0.0,0.0,0.0,0.0,0.0,0.0,0.0,0.0,0.0,0.0,0.0,0.0,0.0,0.0,0.0,0.0,0.0,0.0,0.0,0.0,0.0,0.0,0.0,0.0,0.0,0.0,0.0,0.0,0.0,0.0,0.0,0.0,0.0,0.0,0.0,0.0,0.0,0.0,0.0,0.0,0.0,0.0,0.0,0.0,0.0,0.0,0.0,0.0,0.0,0.0,0.0,0.0,0.0,0.0,0.0,0.0,0.0,0.0,0.0,0.0,0.0,0.0,0.0,0.0,0.0,0.0,0.0,0.0,0.0,0.0,0.0,0.0,0.0,0.0,0.0,0.0,0.0,0.0,0.0,0.0,0.0,0.0,0.0,0.0,0.0,0.0,0.0,0.0,0.0,3.214,3.2115,3.1164,2.9114,2.5752,0.0,0.0,0.0,0.0,0.0,0.0,0.0,0.0,0.0,0.0,0.0,0.0,0.0,0.0,0.0,0.0,0.0,0.0,0.0,0.0,0.0,0.0,0.0,0.0,0.0,0.0,0.0,0.0,0.0,0.0,0.0,0.0,0.0,0.0,0.0,0.0,0.0,0.0,0.0,0.0,0.0,0.0,0.0,0.0,0.0,0.0,0.0,0.0,0.0,0.0,0.0,0.0,0.0,0.0,0.0,0.0,0.0,0.0,0.0,0.0,0.0,0.0,0.0,0.0,0.0,0.0,0.0,0.0,0.0,0.0,0.0,0.0,0.0,0.0,0.0,0.0,0.0,0.0,0.0,0.0,0.0,0.0,0.0,0.0,0.0,0.0,0.0,0.0,0.0,0.0,0.0,0.0,0.0,0.0,0.0,0.0,0.0,0.0,0.0,0.0,0.0,0.0,0.0,0.0,0.0,0.0,0.0,0.0,0.0,0.0,0.0,0.0,0.0,0.0,2.5728,0.0,0.0,0.0,0.0,0.0,0.0,0.0,0.0,0.0,0.0,0.0,0.0,0.0,0.0,0.0,0.0,0.0,0.0,0.0,0.0,0.0,0.0,0.0,0.0,0.0,0.0,0.0,0.0,0.0,0.0,0.0,0.0,0.0,0.0,0.0,0.0,0.0,0.0,0.0,0.0,0.0,0.0,0.0,0.0,0.0,0.0,0.0,0.0,0.0,0.0,0.0,0.0,0.0,0.0,0.0,0.0,0.0,0.0,0.0,0.0,0.0,0.0,0.0,0.0,0.0,0.0,0.0,0.0,0.0,0.0,0.0,0.0,0.0,0.0,0.0,0.0,0.0,0.0,0.0,0.0,0.0,0.0,0.0,0.0,0.0,0.0,0.0,0.0,0.0,0.0,0.0,0.0,0.0,0.0,0.0,0.0,0.0,0.0,0.0,0.0,0.0,0.0,0.0,0.0,0.0,0.0,0.0,0.0,0.0,0.0,0.0,0.0,0.0,0.0,0.0,0.0,0.0,0.0,0.0,0.0,0.0,0.0,0.0,0.0,0.0,0.0,0.0,0.0,0.0,0.0,0.0,0.0,0.0,0.0,0.0,0.0,0.0,0.0,0.0,0.0,0.0,0.0,0.0,0.0,0.0,0.0,0.0,0.0,0.0,0.0,0.0,0.0,0.0,0.0,0.0,0.0,0.0,0.0,0.0,0.0,0.0,0.0,0.0,0.0,0.0,0.0,0.0,0.0,0.0,0.0,0.0,0.0,0.0,0.0,0.0,0.0,0.0,0.0,0.0,0.0,0.0,0.0,0.0,0.0,0.0,0.0,0.0,0.0,0.0,0.0,0.0,0.0,0.0,0.0,0.0,0.0,0.0,0.0,0.0,0.0,0.0,0.0,0.0,0.0,0.0,0.0,0.0,0.0,0.0,0.0,0.0,0.0,0.0,0.0,0.0,0.0,0.0,0.0,0.0,0.0,0.0,0.0,0.0,0.0,0.0,0.0,0.0,0.0,0.0,0.0,0.0,0.0,0.0,0.0,0.0,0.0,0.0,0.0,0.0,0.0,0.0,0.0,0.0,0.0,0.0,0.0,0.0,0.0,0.0,0.0,0.0,0.0,0.0,0.0,0.0,0.0,0.0,0.0,0.0,0.0,0.0,0.0,0.0,0.0,0.0,0.0,0.0,0.0,0.0,0.0,0.0,0.0,0.0,0.0,0.0,0.0,0.0,0.0,0.0,0.0,0.0,0.0,0.0,0.0,0.0,0.0,0.0,0.0,0.0,0.0,0.0,0.0,0.0,0.0,0.0,0.0,0.0,0.0,0.0,0.0,0.0,0.0,0.0,0.0,0.0,0.0,0.0,0.0,0.0,0.0,0.0,0.0,0.0,0.0,0.0,0.0,0.0,0.0,0.0,0.0,0.0,0.0,0.0,0.0,0.0,0.0,0.0,0.0,0.0,0.0,0.0,0.0,0.0,0.0,0.0,0.0,0.0,0.0,0.0,0.0,0.0,0.0,0.0,0.0,0.0,0.0,0.0,0.0,0.0,0.0,0.0,0.0,0.0,0.0,0.0,0.0,0.0,0.0,0.0,0.0,0.0,0.0,0.0,0.0,0.0,0.0,0.0,0.0,0.0,0.0,0.0,0.0,0.0,0.0,0.0,0.0,0.0,0.0,0.0,0.0,0.0,0.0,0.0,0.0,0.0,0.0,0.0,0.0,0.0,0.0,0.0,0.0,0.0,0.0,0.0,0.0,0.0,0.0,0.0,0.0,0.0,0.0,0.0,0.0,0.0,0.0,0.0,0.0,0.0,0.0,0.0,0.0,0.0,0.0,0.0,0.0,0.0,0.0,0.0,0.0,0.0,0.0,0.0,0.0,0.0,0.0,0.0,0.0,0.0,0.0,0.0,0.0,0.0,0.0,0.0,0.0,0.0,0.0,0.0,0.0,0.0,0.0,0.0,0.0,0.0,0.0,0.0,0.0,0.0,0.0,0.0,0.0,0.0,0.0,0.0,0.0,0.0,0.0,0.0,0.0,0.0,0.0,0.0,0.0,0.0,0.0,0.0,0.0,0.0,0.0,0.0,0.0,0.0,0.0,0.0,0.0,0.0,0.0,0.0,0.0,0.0,0.0,0.0,0.0,0.0,0.0,0.0,0.0,0.0,0.0,0.0,0.0,0.0,0.0,0.0,0.0,0.0,0.0,0.0,0.0,0.0,0.0,0.0,0.0,0.0,0.0,0.0,0.0,0.0,0.0,0.0,0.0,0.0,0.0,0.0,0.0,0.0,0.0,0.0,0.0,0.0,0.0,0.0,0.0,0.0,0.0,0.0,0.0,0.0,0.0,0.0,0.0,0.0,0.0,0.0,0.0,0.0,0.0,0.0,0.0,0.0,0.0,0.0,0.0,0.0,0.0,0.0,0.0,0.0,0.0,0.0,0.0,0.0,0.0,0.0,0.0,0.0,0.0,0.0,0.0,0.0,0.0,0.0,0.0,0.0,0.0,0.0,0.0,0.0,0.0,0.0,0.0,0.0,0.0,0.0,0.0,0.0,0.0,0.0,0.0,0.0,0.0,0.0,0.0,0.0,0.0,0.0,0.0,0.0,0.0,0.0,0.0,0.0,0.0,0.0,0.0,0.0,0.0,0.0,0.0,0.0,0.0,0.0,0.0,0.0,0.0,0.0,0.0,0.0,0.0,0.0,0.0,0.0,0.0,0.0,0.0,0.0,0.0,0.0,0.0,0.0,0.0,0.0,0.0,0.0,0.0,0.0,0.0,0.0,0.0,0.0,0.0,0.0,0.0,0.0,0.0,0.0,0.0,0.0,0.0,0.0,0.0,0.0,0.0,0.0,0.0,0.0,0.0,0.0,0.0,0.0,0.0,0.0,0.0,0.0,0.0,0.0,0.0,0.0,0.0,0.0,0.0,0.0,0.0,0.0,0.0,0.0,0.0,0.0,0.0,0.0,0.0,0.0,0.0,0.0,0.0,0.0,0.0,0.0,0.0,0.0,0.0,0.0,0.0,0.0,0.0,0.0,0.0,0.0,0.0,0.0,0.0,0.0,0.0,0.0,0.0,0.0,0.0,0.0,0.0,0.0,0.0,0.0,0.0,0.0,0.0,0.0,0.0,0.0,0.0,0.0,0.0,0.0,0.0,0.0,0.0,0.0,0.0,0.0,0.0,0.0,0.0,0.0,0.0,0.0,0.0,0.0,0.0,0.0,0.0,0.0,0.0,0.0,0.0,0.0,0.0,0.0,0.0,0.0,0.0,0.0,0.0,0.0,0.0,0.0,0.0,0.0,0.0,0.0,0.0,0.0,0.0,0.0,0.0,0.0,0.0,0.0,0.0,0.0,0.0,0.0,0.0,0.0,0.0,0.0,0.0,0.0,0.0,0.0,0.0,0.0,0.0,0.0,0.0,0.0,0.0,0.0,0.0,0.0,0.0,0.0,0.0,0.0,0.0,0.0,0.0,0.0,0.0,0.0,0.0,0.0,0.0,0.0,0.0,0.0,0.0,0.0,0.0,0.0,0.0,0.0,0.0,0.0,0.0,0.0,0.0,0.0,0.0,0.0,0.0,0.0,0.0,0.0,0.0,0.0,0.0,0.0,0.0,0.0,0.0,0.0,0.0,0.0,0.0,0.0,0.0,0.0,0.0,0.0,0.0,0.0,0.0,0.0,0.0,0.0,0.0,0.0,0.0,0.0,0.0,0.0,0.0,0.0,0.0,0.0,0.0,0.0,0.0,0.0,0.0,0.0,0.0,0.0,0.0,0.0,0.0,0.0,0.0,0.0,0.0,0.0,0.0,0.0,0.0,0.0,0.0,0.0,0.0,0.0,0.0,0.0,0.0,0.0,0.0,0.0,0.0,0.0,0.0,0.0,0.0,0.0,0.0,0.0,0.0,0.0,0.0,0.0,0.0,0.0,0.0,0.0,0.0,0.0,0.0,0.0,0.0,0.0,0.0,0.0,0.0,0.0,0.0,0.0,0.0,0.0,0.0,0.0,0.0,0.0,0.0,0.0,0.0,0.0,0.0,0.0,0.0,0.0,0.0,0.0,0.0,0.0,0.0,0.0,0.0,0.0,0.0,0.0,0.0,0.0,0.0,0.0,0.0,0.0,0.0,0.0,0.0,0.0,0.0,0.0,0.0,0.0,0.0,0.0,0.0,0.0,0.0,0.0,0.0,0.0,0.0,0.0,0.0,0.0,0.0,0.0,0.0,0.0,0.0,0.0,0.0,0.0,0.0,0.0,0.0,0.0,0.0,0.0,0.0,0.0,0.0,0.0,0.0,0.0,0.0,0.0,0.0,0.0,0.0,0.0,0.0,0.0,0.0,0.0,0.0,0.0,0.0,0.0,0.0]}],[{"header":{"parameterUnit":"kt","parameterCategory":2,"dx":1,"dy":1,"la1":29.587661999999998,"la2":31.0,"lo1":-88.76705300000003,"lo2":-86.6583820000003,"nx":115,"ny":88,"refTime":"2022-10-29T00:00:00:Z","depth":0,"parameterNumber":2,"parameterNumberName":"V-component_of_WINDS"},"data":[8.8732,8.9505,8.9092,8.9348,9.0162,9.0219,9.1063,9.2309,9.2109,9.2473,9.3295,9.345,9.299,9.094,9.0886,9.0886,9.1272,9.0527,9.0311,8.9789,8.9155,8.9314,8.913,8.8665,8.887,8.826,8.745,8.6844,8.7459,8.7163,8.6768,8.6965,8.6801,8.6735,8.6702,8.6702,8.6637,8.6637,8.6637,8.6637,8.6637,8.6637,8.6637,8.6637,8.6637,8.6637,8.6637,8.6637,8.6637,8.6637,8.6637,8.6637,8.6637,8.6637,8.6637,8.6637,8.6637,8.6637,8.6637,8.6637,8.6637,8.6637,8.6637,8.6637,8.6571,8.6538,8.5848,8.5848,8.5157,8.4664,8.4467,8.4105,8.3908,8.3053,8.2527,8.296,8.3492,8.3157,8.2757,8.2691,8.2691,8.2691,8.2724,8.2757,8.279,8.2856,8.2888,8.2888,8.2987,8.2395,8.1836,8.1573,8.131,7.9798,7.8483,7.8581,7.8581,7.822,7.7989,7.8121,7.8121,7.7924,7.7924,7.7924,7.7924,7.7661,7.6996,7.6423,7.5945,7.5037,7.3872,7.2944,7.2923,7.2403,7.1197,8.7111,8.7469,8.9155,9.0069,9.0127,9.0127,9.1446,9.299,9.1446,9.1272,9.2473,9.345,9.3749,9.345,9.3337,9.2635,9.1822,9.0617,8.9635,8.8896,8.8095,8.8265,8.8397,8.8273,8.7901,8.735,8.6896,8.6713,8.6637,8.6637,8.6637,8.6637,8.6637,8.6637,8.6637,8.6637,8.6637,8.6637,8.6637,8.6637,8.6637,8.6637,8.6637,8.6637,8.6637,8.6637,8.6637,8.6637,8.6637,8.6637,8.6637,8.6637,8.6637,8.6637,8.6637,8.6637,8.6637,8.6538,8.6407,8.6275,8.6308,8.6407,8.6637,8.6604,8.6505,8.5913,8.473,8.4039,8.3184,8.2691,8.2658,8.2494,8.2428,8.2099,8.17,8.1602,8.2198,8.2631,8.24,8.2132,8.2099,8.2099,8.2132,8.2165,8.2198,8.2297,8.2297,8.2231,8.1869,8.0949,8.039,8.0159,7.9962,7.9305,7.8252,7.8121,7.8187,7.7924,7.7924,7.7924,7.7924,7.7924,7.7924,7.7891,7.7463,7.7097,7.6423,7.5314,7.4576,7.3747,7.2325,7.0924,7.0777,6.9854,6.8989,8.7645,8.7923,8.9539,9.0127,9.0127,9.0127,9.1238,9.2555,9.1822,9.1652,9.2192,9.2555,9.2438,9.1787,9.1787,9.115,9.0886,9.0436,9.0011,8.9539,8.9092,8.8197,8.7993,8.8331,8.7602,8.6986,8.6779,8.6637,8.6637,8.6637,8.6637,8.6637,8.6637,8.6637,8.6637,8.6637,8.6637,8.6637,8.6637,8.6637,8.6637,8.6637,8.6637,8.6637,8.6637,8.6637,8.6637,8.6637,8.6637,8.6637,8.6637,8.6637,8.6505,8.6407,8.6505,8.6505,8.6341,8.6275,8.5552,8.5058,8.4664,8.4441,8.4474,8.4737,8.4836,8.4072,8.2888,8.2691,8.1836,8.1244,8.1179,8.0981,8.0916,8.0521,8.0159,7.9894,8.0324,8.0721,8.0589,8.0357,8.0324,8.0324,8.0357,8.0357,8.0225,8.0225,7.9896,7.9633,7.9568,7.9042,7.8943,7.8811,7.868,7.8154,7.7924,7.7924,7.7924,7.7924,7.7924,7.7924,7.7924,7.7924,7.776,7.7497,7.7165,7.6363,7.5048,7.3619,7.2799,7.1399,7.0029,6.8902,6.792,6.7121,6.6295,8.893,8.8994,8.9789,9.0436,9.0617,9.0617,9.1446,9.2555,9.2555,9.2555,9.2555,9.2555,9.2157,9.1787,9.1702,9.1702,9.1359,9.1272,9.0797,9.0617,9.0069,8.9155,8.8633,8.8332,8.7686,8.7045,8.6637,8.6637,8.6637,8.6637,8.6637,8.6637,8.6637,8.6637,8.6637,8.6637,8.6637,8.6637,8.6637,8.6637,8.6637,8.6637,8.6637,8.6637,8.6637,8.6637,8.6637,8.6637,8.6637,8.6604,8.6637,8.6374,8.6078,8.5683,8.5585,8.5552,8.519,8.4664,8.4105,8.3678,8.3382,8.2993,8.2861,8.2696,8.2268,8.1508,8.1146,8.1113,8.0784,8.0258,7.9864,7.9568,7.9272,7.868,7.8121,7.8121,7.8121,7.8154,7.8154,7.8121,7.8088,7.8121,7.8187,7.8121,7.7924,7.7924,7.7924,7.7957,7.8187,7.8285,7.8318,7.8252,7.7957,7.7924,7.7924,7.7924,7.7924,7.7924,7.7825,7.7858,7.7924,7.7792,7.7628,7.7234,7.6145,7.4517,7.311,7.1853,7.0203,6.863,6.7478,6.7091,6.6085,6.5005,6.3955,9.0069,9.0069,9.0162,9.0886,9.1906,9.2025,9.2635,9.3714,9.3638,9.3714,9.3638,9.3714,9.3562,9.3069,9.3069,9.3104,9.2796,9.2274,9.1906,9.1906,9.1238,9.0162,8.9252,8.8533,8.8399,8.733,8.6713,8.7004,8.6821,8.6637,8.6637,8.6637,8.6637,8.6637,8.6637,8.6637,8.6637,8.6637,8.6637,8.6637,8.6637,8.6637,8.6637,8.6637,8.6637,8.6505,8.6538,8.6571,8.6637,8.6604,8.6341,8.5617,8.4664,8.371,8.3119,8.2954,8.325,8.2856,8.256,8.233,8.2099,8.1968,8.2198,8.1771,8.0985,8.0028,7.9436,7.9272,7.9403,7.8976,7.8877,7.868,7.8581,7.8187,7.7924,7.7924,7.7924,7.7924,7.7924,7.7924,7.7924,7.7924,7.7924,7.7924,7.7924,7.7924,7.7924,7.7924,7.8022,7.8022,7.8022,7.8022,7.7924,7.7924,7.7924,7.7924,7.7924,7.7792,7.7694,7.7628,7.7233,7.7233,7.7462,7.599,7.4415,7.2827,7.1025,6.9359,6.7677,6.6297,6.5651,6.5266,6.4332,6.3082,6.2326,9.1359,9.1359,9.1394,9.2109,9.3069,9.3218,9.345,9.3825,9.3935,9.3935,9.3935,9.3935,9.3935,9.3935,9.3935,9.3899,9.3825,9.326,9.3069,9.299,9.2831,9.1532,9.1009,9.0652,8.9729,8.8896,8.8265,8.7541,8.7541,8.7291,8.6637,8.6637,8.6637,8.6637,8.6538,8.6439,8.6505,8.6439,8.6505,8.6637,8.6637,8.6637,8.6637,8.6637,8.6637,8.6012,8.5387,8.5223,8.4697,8.4039,8.3973,8.3579,8.3151,8.2625,8.2198,8.2001,8.1935,8.1606,8.1047,8.0916,8.039,7.9864,7.9535,7.9732,7.9107,7.8877,7.8351,7.7924,7.7924,7.7924,7.7924,7.7924,7.7924,7.7924,7.7924,7.7924,7.7924,7.7924,7.7924,7.7924,7.7924,7.7924,7.7924,7.7924,7.7924,7.7924,7.7924,7.7726,7.7496,7.7332,7.7167,7.7135,7.7332,7.7463,7.7924,7.7924,7.7661,7.7398,7.7135,7.6576,7.6411,7.6148,7.5655,7.436,7.2861,7.0986,6.9158,6.731,6.5813,6.4741,6.4042,6.3634,6.2849,6.1889,6.1657,9.2635,9.2635,9.2671,9.3104,9.3825,9.3935,9.3935,9.3935,9.3935,9.3935,9.3935,9.3935,9.3935,9.3935,9.3935,9.3935,9.3935,9.3935,9.3935,9.3825,9.3562,9.3025,9.2392,9.1822,9.115,9.0162,8.9092,8.8298,8.8197,8.7218,8.667,8.6604,8.6637,8.6637,8.6341,8.5749,8.5322,8.5058,8.496,8.4927,8.4993,8.496,8.4993,8.496,8.4927,8.4598,8.3973,8.3776,8.3447,8.256,8.233,8.1836,8.1738,8.1606,8.1212,8.1113,8.0916,8.0686,7.9732,7.9469,7.9173,7.845,7.8187,7.7924,7.7924,7.8022,7.8022,7.7924,7.7924,7.7924,7.7924,7.7924,7.7924,7.7924,7.7924,7.7924,7.7924,7.7924,7.7924,7.7924,7.7924,7.7924,7.7924,7.7792,7.7398,7.7726,7.7694,7.7167,7.6773,7.6247,7.5984,7.5918,7.5984,7.5754,7.628,7.674,7.6773,7.6707,7.5819,7.5162,7.503,7.4702,7.4044,7.3271,7.244,7.0427,6.7895,6.6013,6.469,6.3559,6.2877,6.2151,6.1544,6.1428,6.1224,9.3825,9.3825,9.3825,9.3825,9.3899,9.3757,9.3792,9.3828,9.3864,9.3935,9.3935,9.3935,9.3935,9.3935,9.3935,9.3935,9.3935,9.3935,9.3935,9.3935,9.3935,9.326,9.2635,9.2274,9.1822,9.0527,8.9348,8.8831,8.8366,8.6992,8.6416,8.6439,8.5979,8.6211,8.5655,8.48,8.3637,8.36,8.36,8.3563,8.3316,8.2954,8.3119,8.3184,8.3086,8.2823,8.2362,8.2066,8.1902,8.1836,8.1869,8.1179,8.062,8.0159,7.9239,7.8614,7.8351,7.845,7.8252,7.8318,7.7989,7.7989,7.7924,7.7924,7.7924,7.7924,7.7924,7.7924,7.7924,7.7924,7.7924,7.7924,7.7924,7.7891,7.7891,7.7726,7.7726,7.7628,7.7628,7.7299,7.7233,7.7167,7.7003,7.7167,7.6641,7.6773,7.6477,7.6017,7.5458,7.4965,7.4965,7.4899,7.4669,7.4307,7.4274,7.4702,7.4899,7.526,7.4406,7.3715,7.3649,7.3419,7.2663,7.2013,7.1692,7.0277,6.7734,6.5618,6.3885,6.291,6.214,6.1648,6.137,6.1195,6.1166,9.3935,9.3935,9.3935,9.3935,9.3757,9.2829,9.2365,9.2579,9.3471,9.3935,9.3864,9.3864,9.3828,9.3828,9.3935,9.3935,9.3935,9.3899,9.3864,9.3935,9.3864,9.3424,9.3195,9.3295,9.2363,9.2239,9.0886,8.9498,8.9198,8.6579,8.551,8.5107,8.4204,8.4843,8.5204,8.4762,8.3657,8.2945,8.2549,8.2548,8.2141,8.2001,8.2066,8.2034,8.1935,8.1672,8.0814,7.999,7.9432,7.9403,7.9305,7.9074,7.8877,7.8647,7.8417,7.8121,7.7924,7.7924,7.7891,7.7858,7.7726,7.7726,7.7924,7.7924,7.7924,7.7595,7.7661,7.7694,7.7924,7.7858,7.7792,7.7924,7.7891,7.7956,7.7661,7.7003,7.6839,7.6444,7.628,7.526,7.4932,7.4965,7.4932,7.5293,7.5425,7.5293,7.5129,7.4669,7.411,7.4077,7.411,7.4044,7.388,7.3485,7.3288,7.3123,7.3189,7.3617,7.3058,7.2301,7.217,7.1874,7.1216,7.0503,6.9831,6.8769,6.6961,6.5477,6.3705,6.2475,6.1696,6.1391,6.1279,6.1166,6.1166,9.2294,9.233,9.233,9.233,9.2187,9.1188,9.0795,9.101,9.1794,9.2294,9.233,9.233,9.233,9.233,9.2187,9.2151,9.2187,9.2294,9.2294,9.2222,9.208,9.2472,9.2508,9.2149,9.222,9.2024,9.0565,8.9031,8.9289,8.6614,8.5046,8.4613,8.4438,8.3799,8.3896,8.35,8.3299,8.2633,8.2167,8.1716,8.0888,8.0653,8.0587,8.0554,8.0521,8.0127,7.9403,7.881,7.8416,7.8318,7.8285,7.8187,7.8088,7.8055,7.7957,7.7924,7.7924,7.7924,7.7891,7.7332,7.7233,7.6937,7.6609,7.6181,7.6444,7.6477,7.651,7.6345,7.6082,7.6148,7.6543,7.6543,7.6674,7.6707,7.6609,7.6017,7.5622,7.5228,7.4734,7.3748,7.3682,7.3978,7.4044,7.4537,7.3584,7.309,7.2301,7.1874,7.2071,7.2334,7.2597,7.2597,7.2597,7.24,7.2104,7.1479,7.1381,7.1545,7.1216,7.092,7.0559,7.0197,6.9747,6.9846,6.855,6.7242,6.6644,6.5839,6.3808,6.2217,6.1696,6.1279,6.1166,6.1166,6.1166,8.9368,8.9226,8.9368,8.9297,8.9119,8.9154,8.919,8.9226,8.9511,8.9654,8.9725,8.9654,8.9654,8.969,9.0011,9.0046,8.9939,8.9797,8.9761,8.9939,9.0189,9.0118,9.0225,9.0403,9.0653,9.0152,8.9074,8.7998,8.7694,8.5708,8.5215,8.4955,8.4674,8.4161,8.1617,8.0374,7.9722,7.9519,7.902,7.887,7.8548,7.8548,7.8614,7.8614,7.8647,7.8746,7.8384,7.799,7.8022,7.7924,7.7924,7.7924,7.7924,7.7924,7.7924,7.7924,7.7924,7.7924,7.7759,7.6477,7.5885,7.5655,7.5096,7.4537,7.4044,7.3945,7.4274,7.4767,7.4373,7.4143,7.3945,7.3945,7.4175,7.434,7.4471,7.4208,7.3945,7.3617,7.3189,7.2433,7.2992,7.3518,7.3452,7.309,7.171,7.0723,6.9638,6.9408,6.9803,7.0098,7.0394,7.0493,7.0559,7.0559,7.0592,6.9901,6.9671,6.9441,6.9507,6.977,6.9605,6.9441,6.932,6.9255,6.847,6.7737,6.6928,6.6131,6.4193,6.2327,6.1696,6.1166,6.1166,6.1166,6.1166,8.9226,8.9226,8.9226,8.7977,8.6193,8.7121,8.7585,8.7799,8.8655,8.9226,8.9226,8.9226,8.9226,8.9226,8.9154,8.9083,8.8905,8.8976,8.9083,8.9012,8.8833,8.894,8.8905,8.894,8.9261,9.0009,8.8734,8.7373,8.7128,8.5085,8.4437,8.4441,8.4468,8.4408,8.3397,8.3142,8.2315,8.1156,8.0253,7.9666,7.8086,7.8086,7.8086,7.7989,7.8086,7.8086,7.7989,7.7924,7.7924,7.7924,7.7924,7.7924,7.7924,7.7924,7.7924,7.7924,7.7924,7.7924,7.7266,7.5951,7.4373,7.4274,7.3682,7.3551,7.3715,7.3715,7.3255,7.3386,7.3518,7.3748,7.3781,7.3353,7.3222,7.2926,7.2992,7.2663,7.24,7.2137,7.1644,7.1282,7.0888,7.092,7.0986,7.1052,7.0164,6.9901,6.9276,6.9276,6.9276,6.9276,6.9276,6.9276,6.9276,6.9276,6.9276,6.9408,6.9474,6.9276,6.9276,6.9276,6.9276,6.9276,6.9189,6.8948,6.8649,6.8225,6.721,6.6034,6.4368,6.2436,6.1807,6.1166,6.1166,6.1166,6.1166,8.7406,8.7442,8.7442,8.63,8.4624,8.5551,8.6015,8.6193,8.7014,8.7406,8.7335,8.7442,8.7406,8.7371,8.7442,8.7406,8.7406,8.7442,8.7335,8.7406,8.7406,8.7016,8.6909,8.7085,8.7797,8.7764,8.716,8.6363,8.6288,8.493,8.4014,8.3924,8.4391,8.452,8.4516,8.4174,8.3397,8.2194,8.1355,8.077,7.9337,7.9279,7.9001,7.8659,7.8564,7.8407,7.7989,7.7924,7.7924,7.7924,7.7924,7.7924,7.7924,7.7924,7.7595,7.7069,7.697,7.6609,7.5852,7.4767,7.3419,7.309,7.2301,7.1841,7.1644,7.1874,7.194,7.2038,7.1808,7.1578,7.194,7.2005,7.217,7.2005,7.1677,7.1249,7.092,7.069,7.0361,7.0296,6.9671,6.9276,6.9276,6.9276,6.9276,6.9276,6.9276,6.9276,6.9276,6.9276,6.9276,6.9276,6.9276,6.9276,6.9276,6.9276,6.9276,6.9276,6.9276,6.9276,6.9276,6.9156,6.8948,6.8649,6.8348,6.705,6.6103,6.5549,6.4368,6.2406,6.1502,6.1166,6.1166,6.1166,6.1166,8.4516,8.4516,8.4588,8.4624,8.4552,8.4516,8.4588,8.4766,8.4695,8.4838,8.5016,8.4695,8.4945,8.4802,8.5087,8.5016,8.4695,8.4552,8.4945,8.4909,8.4552,8.4945,8.5052,8.5052,8.498,8.5052,8.5129,8.4883,8.4488,8.4463,8.4527,8.4516,8.4453,8.4485,8.4516,8.4516,8.3896,8.3177,8.2115,8.1438,8.1023,8.0651,8.0253,7.9509,7.927,7.8968,7.7989,7.7924,7.7924,7.7924,7.7694,7.7464,7.7299,7.7102,7.6444,7.5885,7.5655,7.5141,7.4142,7.3216,7.2615,7.147,7.0516,6.9901,7.0033,6.9539,6.9375,6.977,7.0131,6.9868,6.9638,6.9342,7.0,7.0164,7.0329,7.0066,7.0,6.9704,6.9638,6.9375,6.9276,6.9276,6.9276,6.9276,6.9276,6.9276,6.9276,6.9276,6.9276,6.9276,6.9276,6.9276,6.9276,6.9276,6.9276,6.9276,6.9276,6.9276,6.9276,6.9276,6.9156,6.8948,6.8738,6.8438,6.8012,6.5945,6.4458,6.4428,6.3882,6.2078,6.1166,6.1166,6.1166,6.1166,6.1166,8.4516,8.4516,8.4516,8.4516,8.4516,8.4516,8.4516,8.4516,8.4516,8.4516,8.4516,8.4516,8.4516,8.4516,8.4516,8.4516,8.4516,8.4516,8.4516,8.4516,8.4516,8.4516,8.4516,8.4516,8.4516,8.4588,8.4516,8.4516,8.4516,8.4516,8.4516,8.4516,8.4516,8.4516,8.4516,8.4516,8.4449,8.3931,8.3029,8.2194,8.1403,8.0651,8.0098,7.9509,7.8781,7.8247,7.7989,7.7857,7.7824,7.7562,7.6874,7.6382,7.6214,7.5684,7.4988,7.4559,7.4164,7.365,7.2487,7.1549,7.0741,7.0462,6.9964,6.9265,6.9298,6.9276,6.9276,6.9276,6.9276,6.9276,6.9276,6.9276,6.9276,6.9276,6.9276,6.9276,6.9309,6.9408,6.9375,6.9276,6.9276,6.9276,6.9276,6.9276,6.9276,6.9276,6.9276,6.9276,6.9276,6.9276,6.9276,6.9276,6.9276,6.9276,6.9276,6.9276,6.9276,6.9276,6.9276,6.9156,6.9068,6.8827,6.8738,6.8315,6.792,6.6326,6.4837,6.4143,6.3343,6.2217,6.1166,6.1166,6.1166,6.1166,6.1137,8.4516,8.4516,8.4516,8.4516,8.4516,8.4516,8.4516,8.4516,8.4516,8.4516,8.4516,8.4516,8.4516,8.4516,8.4516,8.4516,8.4516,8.4516,8.4516,8.4516,8.4516,8.4516,8.4516,8.4516,8.4516,8.4516,8.4516,8.4516,8.4516,8.4516,8.4516,8.4516,8.4516,8.4374,8.4516,8.4516,8.4481,8.4275,8.393,8.3324,8.2698,8.2089,8.1532,8.1073,7.9797,7.8689,7.7847,7.7148,7.6581,7.5984,7.5468,7.4913,7.4673,7.4539,7.3849,7.3451,7.282,7.2053,7.1284,7.0383,7.0066,6.9997,6.9966,6.9665,6.933,6.924,6.9276,6.9244,6.9244,6.9276,6.9276,6.9276,6.9276,6.9276,6.9276,6.9276,6.9276,6.9276,6.9276,6.9276,6.9276,6.9276,6.9276,6.9276,6.9276,6.9276,6.9276,6.9276,6.9276,6.9276,6.9276,6.9276,6.9276,6.9276,6.9276,6.9276,6.9276,6.9276,6.9276,6.9156,6.8948,6.8859,6.8948,6.8649,6.792,6.6865,6.5638,6.4532,6.3524,6.2406,6.1279,6.1166,6.1166,6.1108,6.0668,8.4516,8.4516,8.4516,8.4516,8.4516,8.4516,8.4516,8.4516,8.4516,8.4516,8.4516,8.4516,8.4516,8.4516,8.4516,8.4516,8.4516,8.4516,8.4516,8.4516,8.4516,8.4516,8.4516,8.4516,8.4516,8.4516,8.4516,8.4445,8.3589,8.3518,8.3732,8.3625,8.3482,8.3874,8.3339,8.3232,8.4017,8.391,8.3803,8.3701,8.353,8.3184,8.255,8.1722,8.0427,7.8852,7.7314,7.6312,7.5501,7.458,7.4119,7.3828,7.3786,7.4485,7.3851,7.2986,7.1871,7.0753,7.0787,7.0753,7.0756,7.0619,7.0621,7.0361,7.0054,6.9848,6.9864,6.9438,6.9244,6.9244,6.9276,6.9276,6.9276,6.9276,6.9276,6.9276,6.9276,6.9276,6.9276,6.9276,6.9276,6.9276,6.9276,6.9276,6.9276,6.9276,6.9276,6.9276,6.9276,6.9276,6.9276,6.9276,6.9276,6.9276,6.9276,6.9276,6.9276,6.9276,6.9276,6.9156,6.8948,6.8649,6.8859,6.8738,6.7829,6.6865,6.5638,6.4532,6.3599,6.2385,6.086,6.0813,6.1046,6.061,5.997,8.4516,8.4516,8.4516,8.4516,8.4516,8.4516,8.4445,8.4516,8.4409,8.4338,8.4516,8.4445,8.4374,8.4445,8.4409,8.4409,8.4516,8.4409,8.4267,8.4195,8.4231,8.4409,8.4481,8.4516,8.4231,8.3946,8.4088,8.3232,8.1662,8.127,8.0985,8.1234,8.0985,8.0878,8.1092,8.1341,8.0842,8.0842,8.0842,8.0842,8.0576,7.9936,7.9272,7.8989,7.8003,7.7335,7.6827,7.6135,7.5768,7.5292,7.4724,7.4231,7.4103,7.3384,7.3123,7.3322,7.3289,7.3493,7.3288,7.294,7.2012,7.1962,7.2051,7.1618,7.1147,7.1045,7.1072,7.0463,6.978,6.9244,6.9276,6.9276,6.9276,6.9276,6.9276,6.9276,6.9276,6.9276,6.9276,6.9276,6.9276,6.9276,6.9276,6.9276,6.9276,6.9276,6.9276,6.9276,6.9276,6.9276,6.9276,6.9276,6.9276,6.9276,6.9276,6.9276,6.9276,6.9276,6.9276,6.9276,6.8948,6.8616,6.8827,6.9036,6.7947,6.642,6.5513,6.446,6.271,6.1231,6.0298,5.9824,5.965,5.9301,5.8807,8.2305,8.2305,8.2305,8.2305,8.2305,8.2305,8.2305,8.2305,8.2305,8.2305,8.2305,8.2305,8.2305,8.2305,8.2305,8.2305,8.2233,8.2305,8.2305,8.2305,8.2305,8.2305,8.2198,8.2233,8.2305,8.2305,8.2269,8.127,8.0021,7.9843,8.0093,7.9851,7.9886,7.9886,7.9851,7.9807,8.0021,8.0021,7.9958,7.9958,7.9858,7.9491,7.9155,7.8737,7.7903,7.6848,7.6391,7.5731,7.5033,7.457,7.3866,7.3467,7.3462,7.3532,7.3764,7.3662,7.3627,7.376,7.346,7.356,7.3011,7.328,7.3114,7.2766,7.2366,7.1852,7.0913,7.0166,6.9417,6.9276,6.9276,6.9276,6.9276,6.9276,6.9276,6.9276,6.9276,6.9276,6.9276,6.9276,6.9276,6.9276,6.9276,6.9276,6.9276,6.9276,6.9276,6.9276,6.9276,6.9276,6.9276,6.9276,6.9276,6.9276,6.9276,6.9276,6.9276,6.9276,6.9276,6.9276,6.9068,6.8948,6.9036,6.8434,6.7267,6.5685,6.4482,6.2817,6.1211,5.9645,5.9157,5.8594,5.839,5.7934,5.744,7.9886,7.9886,7.9886,7.9886,7.9922,7.9922,8.0128,7.9886,8.0164,7.9986,8.0057,7.9958,8.02,8.0128,7.9986,7.9986,8.0378,8.0449,8.0342,8.0307,8.0307,8.0342,8.0449,8.0521,7.9807,7.9343,7.9094,7.9129,7.888,7.9165,7.8594,7.8951,7.888,7.8844,7.8773,7.9094,7.8701,7.8523,7.8594,7.863,7.8666,7.8504,7.8441,7.8334,7.7381,7.653,7.5734,7.4653,7.358,7.2906,7.2764,7.2868,7.3359,7.4463,7.4547,7.4222,7.4093,7.3927,7.3595,7.3627,7.3756,7.3716,7.3822,7.3805,7.3358,7.2533,7.1845,7.0719,7.0216,6.9642,6.9331,6.9276,6.9276,6.9276,6.9276,6.9276,6.9276,6.9276,6.9276,6.9276,6.9276,6.9276,6.9276,6.9276,6.9276,6.9276,6.9276,6.9276,6.9276,6.9276,6.9276,6.9276,6.9276,6.9276,6.9276,6.9276,6.9276,6.9276,6.9178,6.9178,6.9178,6.9211,6.8085,6.6579,6.5283,6.4017,6.2541,6.1075,5.9685,5.8784,5.818,5.7491,5.7007,5.6393,5.5956,7.9886,7.9886,7.9886,7.9886,7.9886,7.9779,7.9672,7.9807,7.9886,7.9522,7.9851,7.9886,7.945,7.9807,7.97,7.9815,7.9807,7.97,7.9379,7.9415,7.9415,7.9379,7.945,7.9236,7.8452,7.6097,7.6275,7.6275,7.6275,7.599,7.6561,7.6133,7.6061,7.6454,7.6168,7.599,7.6311,7.6454,7.6489,7.6418,7.6347,7.6311,7.6347,7.6382,7.5883,7.569,7.5451,7.5131,7.4846,7.4769,7.4769,7.4769,7.4866,7.5181,7.5085,7.4989,7.4866,7.4672,7.4484,7.4707,7.4892,7.4989,7.4928,7.4938,7.4751,7.4163,7.3357,7.2729,7.1852,7.0913,6.9471,6.9298,6.9331,6.9276,6.9276,6.9276,6.9276,6.9276,6.9276,6.9276,6.9276,6.9276,6.9276,6.9276,6.9276,6.9276,6.9276,6.9276,6.9276,6.9276,6.9276,6.9276,6.9276,6.9276,6.9276,6.9276,6.9276,6.9211,6.9079,6.9046,6.9013,6.8434,6.7256,6.5279,6.34,6.1765,6.0346,5.9186,5.8468,5.7963,5.7198,5.6379,5.5635,5.4981,5.4648,7.7417,7.7417,7.7417,7.7453,7.7453,7.7453,7.7417,7.7417,7.7417,7.7417,7.7417,7.7453,7.7453,7.7453,7.7417,7.7488,7.7453,7.7417,7.7488,7.7524,7.7524,7.7488,7.7417,7.7203,7.6882,7.5633,7.5241,7.5241,7.5241,7.5312,7.5241,7.5241,7.5276,7.5241,7.5241,7.5312,7.5241,7.5241,7.5241,7.5241,7.5241,7.5241,7.5241,7.5241,7.5241,7.5241,7.5241,7.5241,7.5241,7.5241,7.5241,7.5241,7.5241,7.5241,7.5241,7.5241,7.5241,7.5241,7.5241,7.5241,7.5241,7.5241,7.5241,7.4928,7.4511,7.435,7.3927,7.3115,7.2477,7.1769,7.0249,6.9999,6.9609,6.9384,6.9276,6.9276,6.9276,6.9276,6.9276,6.9276,6.9276,6.9276,6.9276,6.9276,6.9244,6.8981,6.8981,6.8915,6.8948,6.8685,6.8816,6.875,6.8915,6.8981,6.8948,6.8882,6.8718,6.8553,6.8257,6.8126,6.7646,6.6937,6.6196,6.4675,6.2859,6.0853,5.9249,5.7666,5.679,5.6434,5.6008,5.5251,5.4742,5.466,5.4357,7.5241,7.5241,7.5241,7.5241,7.5241,7.5241,7.5276,7.5348,7.5312,7.5526,7.5312,7.5312,7.5383,7.5348,7.5526,7.5241,7.549,7.549,7.5241,7.5241,7.5241,7.5241,7.5348,7.549,7.5312,7.5276,7.5241,7.5241,7.5241,7.5241,7.5241,7.5241,7.5241,7.5241,7.5241,7.5241,7.5241,7.5241,7.5241,7.5241,7.5241,7.5241,7.5241,7.5241,7.5241,7.5241,7.5241,7.5241,7.5241,7.5241,7.5241,7.5241,7.5241,7.5241,7.5241,7.5241,7.5241,7.5241,7.5241,7.5241,7.5241,7.5241,7.5145,7.4831,7.4058,7.4122,7.3729,7.315,7.2693,7.2258,7.1151,7.074,6.9949,6.9417,6.9276,6.9276,6.9276,6.9276,6.9276,6.9276,6.9276,6.9276,6.9276,6.9276,6.9013,6.875,6.8652,6.8586,6.829,6.7896,6.7698,6.7402,6.7435,6.7271,6.7271,6.7205,6.7205,6.7172,6.6843,6.658,6.561,6.4722,6.3328,6.2314,6.1727,6.0732,5.9104,5.7526,5.6364,5.5565,5.4849,5.4584,5.4362,5.4555,5.4357,7.5241,7.5241,7.5241,7.5241,7.5241,7.5241,7.5265,7.5241,7.5241,7.5241,7.5241,7.5241,7.5241,7.5241,7.5241,7.5241,7.5241,7.5241,7.5241,7.5241,7.5241,7.5241,7.5241,7.5241,7.5241,7.5241,7.5241,7.5241,7.5241,7.5241,7.5241,7.5241,7.5241,7.5241,7.5241,7.5241,7.5241,7.5241,7.5241,7.5241,7.5241,7.5241,7.5241,7.5241,7.5241,7.5241,7.5241,7.5241,7.5241,7.5241,7.5241,7.5241,7.5241,7.5241,7.5241,7.5241,7.5241,7.5241,7.5241,7.5241,7.5241,7.5241,7.5241,7.5145,7.4989,7.4892,7.4769,7.4582,7.4028,7.3219,7.2258,7.0511,6.9831,6.9405,6.9166,6.9178,6.9276,6.9276,6.9276,6.9276,6.9178,6.9244,6.9276,6.9145,6.8718,6.7435,6.7271,6.7008,6.658,6.6515,6.6383,6.6219,6.6054,6.5726,6.5693,6.5693,6.5857,6.6021,6.5726,6.5101,6.4132,6.2611,6.0906,5.985,5.9973,5.9394,5.8503,5.789,5.6789,5.5943,5.5668,5.486,5.4088,5.4567,5.4701,7.5969,7.5716,7.6074,7.5862,7.5265,7.5528,7.5507,7.5265,7.5241,7.5241,7.5241,7.5241,7.5241,7.5241,7.5241,7.5241,7.5241,7.5241,7.5241,7.5241,7.5241,7.5241,7.5241,7.5241,7.5241,7.5241,7.5241,7.5241,7.5241,7.5241,7.5241,7.5241,7.5241,7.5241,7.5241,7.5241,7.5241,7.5241,7.5241,7.5241,7.5241,7.5241,7.5241,7.5241,7.5241,7.5241,7.5241,7.5241,7.5241,7.5241,7.5241,7.5241,7.5241,7.5241,7.5241,7.5241,7.5241,7.5241,7.5241,7.5241,7.5241,7.5241,7.5241,7.5241,7.5205,7.5241,7.5241,7.5134,7.4866,7.442,7.3831,7.2658,7.1395,6.9964,6.8502,6.7259,6.6712,6.6927,6.6745,6.6745,6.6745,6.6712,6.6745,6.6712,6.6383,6.6021,6.5824,6.5397,6.4871,6.5035,6.5101,6.5298,6.5265,6.5002,6.4871,6.4871,6.5002,6.5167,6.4871,6.4114,6.2851,6.1263,6.0427,6.0125,5.893,5.8253,5.8263,5.7923,5.7037,5.6562,5.6512,5.6003,5.5235,5.5098,5.5174,7.6661,7.6359,7.6792,7.6395,7.5564,7.5862,7.568,7.5265,7.5241,7.5241,7.5241,7.5241,7.5241,7.5241,7.5241,7.5241,7.5241,7.5241,7.5241,7.5241,7.5241,7.5241,7.5241,7.5241,7.5241,7.5241,7.5241,7.5241,7.5241,7.5241,7.5241,7.5241,7.5241,7.5241,7.5241,7.5241,7.5241,7.5241,7.5241,7.5241,7.5241,7.5241,7.5241,7.5241,7.5241,7.5241,7.5241,7.5241,7.5241,7.5241,7.5241,7.5241,7.5241,7.5241,7.5241,7.5241,7.5241,7.5241,7.5241,7.5241,7.5241,7.5241,7.4777,7.4634,7.4634,7.4242,7.3992,7.4028,7.4028,7.3731,7.3395,7.262,7.1552,6.9932,6.7947,6.6539,6.6084,6.5468,6.5355,6.556,6.5568,6.5587,6.5573,6.5378,6.4969,6.4509,6.4312,6.4147,6.3424,6.326,6.3062,6.3588,6.395,6.3917,6.395,6.395,6.3983,6.4082,6.3621,6.2799,6.178,6.0618,6.0662,6.0531,5.9321,5.9113,5.8821,5.7766,5.7452,5.6833,5.6104,5.4647,5.4486,5.4849,5.4706,7.6974,7.6893,7.6974,7.6614,7.6002,7.6105,7.5862,7.5324,7.5324,7.5383,7.5288,7.5405,7.5324,7.5265,7.5405,7.5405,7.5265,7.5324,7.5324,7.5324,7.5324,7.5265,7.5241,7.5241,7.5241,7.5241,7.5241,7.5241,7.5241,7.5241,7.5241,7.5241,7.5241,7.5241,7.5241,7.5241,7.5241,7.5241,7.5241,7.5241,7.5241,7.5241,7.5241,7.5241,7.5241,7.5241,7.5241,7.5241,7.5241,7.5241,7.5241,7.5241,7.5241,7.5241,7.5241,7.5241,7.5241,7.5098,7.5169,7.4884,7.4884,7.467,7.3742,7.2993,7.2886,7.2066,7.1423,7.1388,7.1245,7.0745,7.0138,6.9793,6.9167,6.7888,6.6953,6.6814,6.7508,6.6505,6.5761,6.6313,6.6539,6.6081,6.5516,6.4878,6.4063,6.326,6.2865,6.2372,6.1813,6.1616,6.1122,6.1221,6.1681,6.1813,6.2207,6.2207,6.224,6.224,6.1879,6.1451,6.0859,6.0629,6.0629,6.029,5.9786,5.9994,5.9534,5.7539,5.6549,5.6437,5.5189,5.3036,5.2657,5.3425,5.3524,7.7875,7.7642,7.795,7.7528,7.6661,7.7064,7.692,7.6345,7.6331,7.6295,7.6331,7.6331,7.6331,7.6331,7.6331,7.6331,7.6244,7.5898,7.5735,7.5735,7.5735,7.5528,7.5205,7.5241,7.5241,7.5241,7.5241,7.5241,7.5241,7.5241,7.5241,7.5241,7.5241,7.5241,7.5241,7.5241,7.5241,7.5241,7.5241,7.5241,7.5241,7.5241,7.5241,7.5241,7.5241,7.5241,7.5241,7.5241,7.5241,7.5241,7.5241,7.5241,7.5241,7.5169,7.5241,7.5062,7.442,7.3778,7.3707,7.3479,7.3073,7.2515,7.2373,7.2179,7.148,7.1031,7.0531,7.0531,7.046,7.0383,6.9989,6.9931,6.8822,6.6706,6.5697,6.5422,6.5435,6.4459,6.3724,6.353,6.3234,6.2792,6.2715,6.2364,6.2022,6.1616,6.1418,6.1057,6.0892,6.0629,6.0695,6.0728,6.0629,6.0629,6.0629,6.0629,6.0629,6.0366,6.0202,5.9972,5.9939,5.9939,5.9774,5.9371,5.849,5.8349,5.8045,5.6389,5.5612,5.5668,5.5431,5.3618,5.2266,5.2737,5.2161,7.851,7.8239,7.8611,7.813,7.7401,7.7758,7.7562,7.7019,7.6974,7.6974,7.6974,7.6974,7.6974,7.6974,7.6974,7.6974,7.6974,7.6755,7.6651,7.6603,7.6372,7.5985,7.5584,7.5449,7.5405,7.5241,7.5241,7.5241,7.5241,7.5241,7.5241,7.5241,7.5241,7.5241,7.5241,7.5241,7.5241,7.5241,7.5241,7.5241,7.5241,7.5241,7.5241,7.5241,7.5241,7.467,7.3885,7.3778,7.3778,7.3707,7.3778,7.3778,7.3778,7.3742,7.3742,7.3671,7.2708,7.2137,7.2066,7.1858,7.1337,7.0837,7.0659,7.0445,6.9889,6.9283,6.8926,6.8926,6.9033,6.9069,6.9069,6.9033,6.8016,6.5965,6.5075,6.4792,6.4691,6.3817,6.2849,6.2313,6.2,6.1718,6.157,6.1231,6.1248,6.088,6.0728,6.0728,6.0629,6.0629,6.0629,6.0629,6.0629,6.0629,6.0629,6.0629,5.9807,5.8887,5.8624,5.8393,5.8558,5.8591,5.8393,5.7893,5.6634,5.5956,5.5655,5.5086,5.4804,5.4683,5.4269,5.3493,5.2591,5.1715,5.0915,7.8704,7.8673,7.8704,7.8375,7.7987,7.7987,7.7602,7.7152,7.7108,7.7195,7.7195,7.7108,7.7195,7.7064,7.7195,7.7064,7.7238,7.7642,7.7797,7.7719,7.7195,7.6614,7.6054,7.6017,7.5826,7.5155,7.5193,7.5193,7.4872,7.4824,7.4836,7.4991,7.4777,7.4634,7.5062,7.4741,7.4955,7.4848,7.4777,7.492,7.5169,7.4848,7.4777,7.492,7.4884,7.3635,7.0924,7.0817,7.0995,7.0888,7.0853,7.0639,7.096,7.1016,7.0837,7.1036,7.0694,7.0623,7.0587,7.0445,7.0175,6.9889,6.8926,6.8195,6.7927,6.6981,6.6267,6.6286,6.6215,6.6036,6.6143,6.6231,6.6105,6.5715,6.5627,6.5271,6.494,6.5162,6.5575,6.5127,6.4234,6.3993,6.3208,6.1903,6.1019,6.0419,6.0202,6.007,5.9939,5.9906,6.0366,6.0366,5.9906,5.9544,6.007,6.0366,5.8722,5.7407,5.7177,5.721,5.7473,5.7506,5.7341,5.6519,5.5272,5.488,5.4613,5.3994,5.3738,5.3477,5.2664,5.2072,5.1648,5.1273,5.0319,7.8704,7.8704,7.8704,7.8605,7.8478,7.8515,7.8341,7.8202,7.813,7.8167,7.813,7.8164,7.8167,7.813,7.8164,7.813,7.8202,7.8304,7.8273,7.7949,7.7682,7.7275,7.6718,7.6636,7.5987,7.4855,7.4719,7.3915,7.2727,7.2583,7.2405,7.2158,7.2066,7.2066,7.2066,7.2051,7.2108,7.2066,7.2022,7.2115,7.2066,7.2066,7.2066,7.2066,7.2066,7.153,7.0639,7.0531,7.0531,7.0531,7.0531,7.0531,7.0587,7.0861,7.1123,7.0979,7.0078,6.9552,6.9394,6.8085,6.7285,6.7214,6.6754,6.6446,6.6446,6.6302,6.6051,6.5783,6.5715,6.5715,6.5783,6.6015,6.6028,6.5783,6.5715,6.561,6.5326,6.493,6.4855,6.4672,6.3654,6.2781,6.2245,6.0704,5.9731,5.9257,5.8262,5.7841,5.7736,5.7736,5.7703,5.7736,5.79,5.7966,5.7815,5.7743,5.6486,5.6289,5.6228,5.6492,5.6651,5.6585,5.6223,5.5237,5.4579,5.4185,5.3626,5.2968,5.2606,5.254,5.2081,5.1686,5.1308,5.089,5.0299,7.894,7.894,7.8848,7.8784,7.8734,7.8704,7.8704,7.8704,7.8704,7.8704,7.8704,7.8704,7.8704,7.8629,7.7507,7.6984,7.6984,7.6984,7.6825,7.649,7.6493,7.6133,7.5554,7.5531,7.4785,7.3777,7.36,7.2903,7.1681,7.1403,7.1138,7.0844,7.0698,7.0389,7.0119,7.0357,7.077,7.1016,7.0746,7.0567,7.0639,7.0531,7.0246,6.9711,6.964,6.9675,6.9675,6.9104,6.8892,6.9086,6.9086,6.919,6.9444,6.976,6.991,6.9838,6.901,6.8464,6.8311,6.7084,6.6307,6.6354,6.6352,6.6433,6.6423,6.6642,6.6695,6.6449,6.6354,6.639,6.6402,6.6642,6.6606,6.6149,6.6037,6.5843,6.5073,6.4828,6.4254,6.3312,6.2346,6.1431,6.0996,5.9674,5.8489,5.8039,5.7128,5.659,5.6426,5.6426,5.6486,5.6426,5.636,5.6134,5.5482,5.5051,5.4846,5.4846,5.4911,5.4846,5.4785,5.4654,5.4686,5.3662,5.3728,5.3396,5.2969,5.2311,5.2245,5.2114,5.2114,5.1686,5.1185,5.1631,5.0907,7.9311,7.9264,7.9137,7.8978,7.8755,7.8755,7.8755,7.8813,7.8763,7.8763,7.8763,7.8621,7.8547,7.8127,7.5433,7.3983,7.3955,7.4105,7.4113,7.4151,7.4076,7.3636,7.2945,7.2945,7.269,7.2295,7.2254,7.2066,7.1762,7.1338,7.1137,7.0929,7.0324,6.9727,6.8994,6.9588,7.0734,7.1091,7.0412,7.0143,7.0175,7.0389,6.9854,6.8641,6.823,6.8372,6.8158,6.675,6.6151,6.6604,6.6665,6.6832,6.7348,6.743,6.758,6.7583,6.755,6.7552,6.7589,6.7473,6.736,6.74,6.7327,6.744,6.732,6.74,6.74,6.74,6.7217,6.7185,6.711,6.678,6.6467,6.5981,6.6216,6.5358,6.3482,6.4232,6.3904,6.1934,6.1237,6.0846,6.006,5.9147,5.8022,5.7219,5.648,5.5932,5.5734,5.5969,5.5973,5.594,5.5808,5.5449,5.3539,5.3284,5.2638,5.2738,5.3166,5.2376,5.2337,5.2365,5.237,5.237,5.2727,5.2664,5.2177,5.2014,5.2078,5.2238,5.2302,5.1812,5.1387,5.2126,5.1504,7.9311,7.9296,7.9247,7.9216,7.9159,7.9159,7.9159,7.9102,7.9037,7.9015,7.8878,7.7586,7.6415,7.5309,7.4469,7.3972,7.3871,7.388,7.388,7.388,7.388,7.3785,7.3622,7.3592,7.2896,7.1765,7.151,7.0953,6.9848,6.8994,6.8262,6.7808,6.7277,6.6928,6.6714,6.6821,6.7195,6.7445,6.7195,6.7053,6.7356,6.9318,7.0353,6.9925,6.9854,6.9889,6.9818,6.8284,6.7445,6.762,6.6509,6.6001,6.6162,6.6515,6.6957,6.74,6.7818,6.7997,6.7997,6.7633,6.744,6.7516,6.7818,6.7855,6.7632,6.7818,6.7855,6.7448,6.7027,6.6517,6.6106,6.5078,6.403,6.324,6.314,6.2845,6.1901,6.1983,6.2031,6.122,6.0721,6.076,5.975,5.7796,5.6306,5.5734,5.4356,5.31,5.3167,5.3693,5.3981,5.3978,5.4011,5.3702,5.3187,5.2735,5.2797,5.2735,5.2769,5.2521,5.2078,5.2078,5.2078,5.2521,5.2238,5.2174,5.2583,5.2769,5.2891,5.3253,5.3092,5.2367,5.1336,5.1715,5.1088,7.9619,7.9543,7.8799,7.8006,7.7367,7.7329,7.7329,7.7314,7.7254,7.7197,7.7006,7.5335,7.4056,7.3199,7.2445,7.2105,7.2034,7.1971,7.1997,7.1934,7.1916,7.1861,7.1861,7.1861,7.1413,7.0441,7.0403,6.989,6.9013,6.8367,6.7782,6.7206,6.6651,6.6485,6.6557,6.6474,6.6295,6.6208,6.6733,6.6581,6.616,6.8248,6.9533,6.9533,6.9533,6.9533,6.9318,6.7321,6.6315,6.6631,6.5272,6.4596,6.4993,6.5274,6.5646,6.6035,6.6956,6.7822,6.8492,6.8271,6.8066,6.8103,6.8335,6.8436,6.8171,6.8335,6.7767,6.6389,6.5647,6.5316,6.4949,6.4102,6.3203,6.2526,6.2376,6.1847,6.0622,6.0415,5.9955,5.9222,5.9115,5.889,5.8254,5.684,5.5682,5.5021,5.3652,5.2624,5.2398,5.2458,5.2583,5.2645,5.316,5.3371,5.3133,5.3073,5.3073,5.31,5.3279,5.3455,5.3073,5.304,5.3126,5.2919,5.3304,5.3595,5.3479,5.3571,5.3629,5.3665,5.3448,5.2131,5.0672,5.0953,5.0482,8.007,7.9804,7.8059,7.6226,7.4965,7.4687,7.4649,7.4611,7.4508,7.4394,7.3968,7.2441,7.176,7.1482,7.0209,6.9566,6.9526,6.9277,6.9316,6.9332,6.9085,6.9009,6.9169,6.9132,6.902,6.9068,6.9068,6.9095,6.8993,6.8742,6.8424,6.7978,6.7303,6.6847,6.6991,6.6844,6.6707,6.6614,6.8274,6.8147,6.6228,6.7481,6.8284,6.8284,6.8301,6.8284,6.8499,6.5232,6.4097,6.4899,6.3624,6.3024,6.3739,6.3897,6.3922,6.3972,6.5368,6.6889,6.8309,6.8571,6.8331,6.8545,6.832,6.832,6.8294,6.8459,6.7176,6.4857,6.3922,6.3759,6.3711,6.3424,6.2871,6.2216,6.2295,6.1847,5.9806,5.9273,5.8561,5.6636,5.6805,5.6359,5.6634,5.6471,5.599,5.5287,5.3926,5.2952,5.2952,5.2707,5.2491,5.2395,5.3336,5.3925,5.3571,5.3312,5.3338,5.3455,5.3858,5.4005,5.4083,5.4412,5.494,5.388,5.4431,5.4538,5.4412,5.4131,5.4027,5.3915,5.3014,5.151,5.0237,4.9871,4.9201,8.007,7.9956,7.8208,7.7253,7.6752,7.5458,7.4888,7.4885,7.4668,7.3242,7.1127,7.0637,7.0345,7.0208,6.9867,6.9556,6.9453,6.9398,6.9291,6.9184,6.916,6.9119,6.8982,6.902,6.902,6.902,6.902,6.902,6.8833,6.7674,6.6775,6.6162,6.4396,6.3102,6.211,6.2769,6.3566,6.4651,6.8299,6.9595,6.8364,6.9782,7.0428,7.0052,6.9961,7.0144,7.0417,6.7124,6.5682,6.6548,6.4578,6.3186,6.2774,6.3104,6.3354,6.342,6.408,6.472,6.5057,6.5094,6.5094,6.5094,6.5094,6.5094,6.5119,6.5172,6.4851,6.4137,6.2934,6.2235,6.2061,6.1093,6.0015,5.9482,5.9387,5.9171,5.8278,5.7839,5.7419,5.7117,5.6632,5.6368,5.6323,5.6323,5.6059,5.5244,5.3993,5.3133,5.3133,5.3547,5.3338,5.3336,5.4022,5.4762,5.48,5.4303,5.4193,5.4697,5.452,5.4323,5.4254,5.4323,5.4323,5.4205,5.4328,5.4349,5.4731,5.4014,5.3512,5.3705,5.2658,5.1368,5.0313,4.8984,4.7158,7.8767,7.8539,7.7069,7.6425,7.6197,7.3729,7.2742,7.2742,7.2576,7.1519,7.0047,7.0009,6.993,6.9875,6.9875,6.9781,6.9663,6.9613,6.954,6.9375,6.859,6.8112,6.7895,6.7159,6.6751,6.6702,6.6702,6.6702,6.6627,6.5767,6.5204,6.4837,6.3709,6.2754,6.2188,6.3327,6.4177,6.465,6.6857,6.8069,6.821,6.8983,6.9219,6.8897,6.8846,6.8875,6.9147,6.6469,6.5118,6.5278,6.2596,6.1004,6.0927,6.1134,6.1311,6.1348,6.2304,6.2888,6.2888,6.3524,6.3935,6.3935,6.3935,6.3417,6.2034,6.1988,6.1999,6.1961,6.1201,6.0661,6.0526,5.9665,5.8968,5.8696,5.867,5.8462,5.7972,5.7755,5.7406,5.6883,5.6747,5.6632,5.6368,5.6323,5.6151,5.5801,5.5179,5.4358,5.3744,5.48,5.5469,5.4918,5.5558,5.5707,5.4469,5.4377,5.4802,5.5109,5.5179,5.4984,5.4233,5.4178,5.3862,5.3288,5.3078,5.3223,5.3423,5.289,5.2625,5.2794,5.173,5.0686,4.9927,4.8316,4.6705,7.68,7.6693,7.5464,7.4943,7.4716,7.1641,7.0312,7.0312,7.0044,6.9927,6.9891,6.9704,6.9629,6.959,6.9363,6.9249,6.9287,6.915,6.9076,6.8987,6.7479,6.6611,6.6304,6.4911,6.4137,6.397,6.4007,6.3983,6.3935,6.3748,6.3636,6.3598,6.3374,6.3225,6.3411,6.4856,6.5731,6.5849,6.5605,6.616,6.7364,6.7275,6.7145,6.6885,6.6832,6.6751,6.6804,6.5409,6.4282,6.3419,6.0409,5.8898,5.9388,5.906,5.876,5.8835,5.9942,6.0601,6.0623,6.2121,6.2982,6.2968,6.3193,6.2165,5.9455,5.9174,5.925,5.9515,5.9492,5.9334,5.9267,5.9172,5.9089,5.9089,5.9089,5.8858,5.8341,5.8226,5.763,5.6198,5.6443,5.6376,5.5635,5.5548,5.5503,5.586,5.5317,5.5411,5.4749,5.5951,5.6786,5.6977,5.7607,5.701,5.5566,5.5008,5.5144,5.5343,5.5412,5.4594,5.3662,5.3614,5.3151,5.1796,5.1832,5.198,5.2117,5.173,5.1368,5.1261,5.0125,4.9055,4.8909,4.8098,4.7095,7.489,7.4901,7.4752,7.4747,7.4563,7.2776,7.2059,7.1945,0.0,0.0,0.0,6.836,6.7799,6.7646,6.6398,6.5832,6.5832,6.5831,6.5741,6.5605,6.5287,6.5056,6.4897,6.4595,6.4299,6.4119,6.4119,6.4053,6.3898,6.2664,6.2028,6.1916,6.0645,5.9972,6.0023,6.1189,6.3348,6.6261,6.7624,6.8238,6.8029,6.8032,6.7708,6.7036,6.6993,6.7156,6.7476,6.7081,6.6538,6.5701,6.2963,6.1425,6.1088,5.8627,5.7224,5.7299,5.6322,5.5697,5.5718,5.7255,5.819,5.8195,5.9468,5.9557,5.7849,5.7704,5.8273,5.9569,5.9498,5.9393,5.9301,5.9172,5.9089,5.9089,5.9089,5.9008,5.888,5.8334,5.6958,5.504,5.465,5.4105,5.2872,5.2652,5.2979,5.4042,5.3981,5.3736,5.4693,5.4922,5.578,5.7867,5.9544,6.0668,5.9347,5.7161,5.5547,5.5658,5.3562,5.1846,5.1997,5.2374,5.2018,5.07,5.1438,5.2131,5.2649,5.1173,4.9839,4.9807,4.8555,4.7449,4.7488,4.7729,4.7924,7.3061,0.0,7.3186,7.3279,0.0,7.1597,7.1383,7.2104,7.0195,6.9402,6.9339,6.8721,6.8434,6.823,6.6736,6.6117,6.6079,6.5299,6.4881,6.4789,6.403,6.3088,6.2083,6.2083,6.1974,6.1803,6.1691,6.1658,6.1539,6.0713,6.0346,6.0346,5.956,5.956,6.036,6.0947,6.2961,6.644,6.8069,6.878,6.8529,6.8473,6.8205,6.7745,6.7708,0.0,0.0,0.0,0.0,0.0,0.0,0.0,0.0,0.0,0.0,5.6863,5.5446,5.4885,5.5617,5.5743,5.5767,5.5791,5.6558,5.6801,5.6208,5.6176,5.6479,5.7201,5.7138,5.7,5.695,5.6755,5.6644,5.6607,5.6607,5.6637,5.6562,5.6063,5.5564,5.521,5.4059,5.2841,5.1843,5.173,5.2087,5.2687,5.2544,5.2728,5.3819,5.4654,5.6035,5.8296,5.9841,5.9556,5.6925,5.5076,5.4594,5.3963,5.258,5.1378,5.0902,5.1163,5.0933,4.9712,4.9776,5.0271,5.0362,4.964,4.8806,4.87,4.8154,4.7643,4.7639,4.7963,4.8206,7.125,7.1233,7.1664,7.1908,7.1742,7.0072,7.0094,7.1281,6.9905,6.9316,6.9346,6.9048,6.8935,6.8718,6.7046,6.6242,6.6218,6.4643,6.3934,6.3934,6.2681,6.1273,5.9802,5.9721,5.9645,5.9525,5.9365,5.9334,5.9247,5.9131,5.9089,5.9089,5.9089,5.9934,6.1542,0.0,0.0,0.0,6.7285,6.8052,6.8351,6.8275,6.8268,6.8436,6.8373,0.0,6.7826,6.7885,6.6661,6.4032,6.452,0.0,0.0,0.0,0.0,0.0,0.0,0.0,0.0,0.0,0.0,0.0,5.3631,5.337,5.3569,5.4177,5.4671,5.4974,5.4785,5.4652,5.4641,5.4418,5.4255,5.4235,5.4235,5.3969,5.336,5.3549,5.375,5.4589,5.2999,5.1561,5.0811,5.0838,5.091,5.1159,5.1266,5.1479,5.1924,5.4104,5.6356,5.7775,5.849,5.7343,5.3742,5.3882,5.3657,5.2143,5.1773,5.0839,4.9925,4.992,4.9675,4.8884,4.8417,4.8298,4.804,4.8068,4.8269,4.8252,4.8224,4.8268,4.8417,4.844,4.8495,6.9334,6.9535,7.1062,7.1748,7.1635,6.9832,6.9186,6.9373,6.9148,6.9104,6.9129,6.7919,6.7209,6.6831,6.4004,6.2746,6.2716,6.1115,6.0462,6.0669,6.0479,6.0251,5.9984,6.0024,5.986,5.9683,5.9536,5.9379,5.9284,5.9131,5.9089,5.9089,5.9089,5.9934,6.1542,6.1617,6.2514,6.4234,6.4458,6.5293,6.6739,6.6788,6.7343,6.8507,6.8552,6.7822,6.6257,6.6318,6.5641,6.4025,6.2869,6.2014,6.1322,5.8562,5.641,0.0,5.3648,0.0,0.0,0.0,0.0,0.0,0.0,0.0,0.0,5.114,5.3455,5.4857,5.4753,5.4653,5.4619,5.4482,5.4335,5.4258,5.4238,5.3046,5.0335,5.2001,5.2126,4.8594,4.9465,4.9541,4.8024,4.7627,4.8198,4.945,4.97,4.9603,4.9387,5.2106,5.4715,5.5505,5.7343,5.8258,5.7309,5.545,5.3539,5.2245,5.0257,4.8324,4.8475,4.8726,4.8953,4.9004,4.8792,4.8497,4.8197,4.8206,4.8243,4.8288,4.8288,4.8495,4.913,4.9314,4.9376,6.902,6.9057,6.9872,7.0244,7.0183,6.9372,6.902,6.902,6.902,6.9061,6.8983,6.7464,6.6128,6.5044,6.2896,6.2002,6.1989,6.0396,5.981,6.0062,6.01,6.01,6.01,6.01,6.0022,5.986,5.8729,5.8172,5.8096,5.7824,5.7691,5.7691,5.8626,5.9486,6.0204,6.114,6.2388,6.3935,6.3935,6.4309,6.5019,6.5057,6.5368,6.5999,6.6037,6.5637,6.4809,6.4856,6.4208,6.2743,6.1146,5.9973,5.9167,5.5305,5.3561,0.0,0.0,0.0,0.0,0.0,0.0,0.0,0.0,0.0,0.0,0.0,5.0987,5.0835,5.1417,5.1844,5.1938,5.1771,5.158,5.1543,5.1562,5.0904,4.9362,4.9989,4.9805,4.7936,4.8059,4.7994,4.7204,4.7058,4.7306,4.7949,4.8056,4.851,4.992,5.1534,5.3516,5.5375,5.6299,5.6929,5.736,5.4977,5.2679,5.1436,4.9529,4.8188,4.8409,4.8758,4.9073,4.9333,4.9258,4.9076,4.8976,4.8958,4.8958,4.8958,4.8958,4.9116,4.9552,4.9407,4.9139,6.902,6.8918,6.8015,6.7875,6.8239,6.8304,6.8331,6.8384,6.8422,6.8197,6.7711,6.644,6.4944,6.3324,6.1447,6.0895,6.1334,5.979,5.9422,6.0062,6.01,5.9834,5.9492,5.9872,5.9834,5.9378,5.7938,5.7378,5.7639,5.7013,5.6654,5.6628,5.7093,5.7585,5.7965,5.92,6.0863,6.2776,6.2776,6.2813,6.2813,6.3187,6.3598,6.3935,6.3935,6.3785,6.3411,6.3371,6.2706,6.1095,5.9478,5.7936,5.6467,5.2543,0.0,0.0,0.0,0.0,0.0,0.0,0.0,0.0,0.0,4.5711,4.4458,0.0,4.8253,0.0,4.782,4.8635,4.911,4.8974,0.0,0.0,4.9333,4.9334,4.9183,4.8681,4.8278,4.7958,4.7538,4.7241,4.7061,4.7024,4.7058,4.7021,4.7342,4.8412,5.0609,5.1493,5.2872,5.5039,5.5446,5.5539,5.619,5.4438,5.2462,5.0915,4.9533,4.8715,4.8742,4.9119,4.9503,4.9579,4.9598,4.9584,4.9612,4.9593,4.9564,4.9604,4.9559,4.9473,4.9544,4.9116,4.873,6.902,6.8705,6.5106,6.4637,6.6118,6.6289,6.6467,6.6664,6.6627,6.5804,6.4384,6.4197,6.3262,6.1654,5.8542,0.0,5.9606,5.8032,5.8292,6.01,6.01,5.9226,5.7822,5.934,5.9264,5.7784,5.7449,5.8017,5.9141,5.7647,5.6848,5.6692,5.3789,5.3077,5.4557,5.4762,5.635,5.9425,5.9463,5.9463,5.95,6.1019,6.2514,6.386,6.3935,6.3225,6.1879,6.1813,6.1085,5.9513,5.7982,5.646,5.5037,0.0,0.0,0.0,0.0,0.0,0.0,0.0,0.0,0.0,0.0,0.0,0.0,0.0,0.0,0.0,4.5224,0.0,4.7304,4.7424,0.0,0.0,0.0,4.9295,4.9163,4.9008,4.8454,4.7234,0.0,0.0,4.7098,4.7025,4.706,4.7021,4.827,4.9308,4.9558,5.137,5.3106,5.4184,5.4927,5.5695,5.6538,5.5542,5.3793,5.1673,4.9785,4.9035,4.9236,4.9477,4.9602,4.9725,4.9659,4.9631,4.9706,4.964,4.9604,4.9731,4.945,4.9203,4.9107,4.8731,4.8448,6.5362,6.3197,6.0954,6.0433,6.1081,6.1307,6.2074,6.3207,6.3297,6.2976,6.2391,6.1419,6.0112,5.8431,5.6136,0.0,0.0,0.0,5.6667,5.8422,5.8504,5.8733,5.9112,5.9758,5.972,5.9037,5.7878,5.7577,5.8018,5.6281,5.3875,5.083,0.0,0.0,4.9839,5.1711,5.3826,5.6083,5.7093,5.8065,5.9089,5.9762,6.0383,6.0981,6.1019,6.0696,6.0121,6.0084,5.8901,5.6341,5.5647,5.4233,0.0,0.0,0.0,0.0,0.0,0.0,0.0,0.0,0.0,0.0,0.0,4.2056,4.1143,0.0,0.0,0.0,4.4302,4.5127,4.5661,4.5628,0.0,0.0,0.0,0.0,0.0,0.0,0.0,4.7589,4.7566,4.7448,4.7205,4.7133,4.706,4.7021,4.7518,4.8154,4.8999,0.0,5.2404,5.4051,5.5226,5.6314,5.7181,5.6202,5.4971,5.4083,5.2085,5.039,4.9676,4.9584,4.968,4.9725,4.9797,4.9819,4.9856,4.9819,4.9837,4.9846,4.9509,4.9205,4.9145,4.8568,4.8029,6.0243,0.0,0.0,0.0,0.0,5.732,5.8234,5.951,5.9668,5.9552,5.9107,5.7566,0.0,0.0,0.0,0.0,0.0,0.0,5.4227,5.5948,5.6565,5.7214,5.7898,5.8391,5.8391,5.7859,5.6555,5.5853,5.5608,5.344,5.0198,4.6273,0.0,0.0,0.0,0.0,5.1618,5.416,5.5784,5.7392,5.9052,5.9089,5.9089,5.9089,5.9089,5.9089,5.9089,5.8206,5.6628,5.4354,5.2947,0.0,0.0,0.0,0.0,0.0,0.0,0.0,0.0,0.0,0.0,0.0,0.0,0.0,0.0,0.0,0.0,0.0,0.0,0.0,4.3335,4.3665,4.3989,0.0,0.0,0.0,0.0,0.0,0.0,0.0,0.0,0.0,4.6524,4.6811,4.7059,0.0,0.0,4.7403,4.8806,5.0246,5.1933,5.3944,5.5514,0.0,5.6969,5.6622,5.5895,5.4586,5.3733,5.2524,5.0623,4.9991,4.977,4.9765,4.9886,4.9881,4.975,4.9743,4.9692,4.9535,4.9107,4.8687,4.8451,4.777,4.7143,0.0,0.0,0.0,0.0,0.0,0.0,0.0,0.0,5.5987,5.5258,0.0,5.225,0.0,0.0,0.0,0.0,0.0,4.9119,0.0,0.0,5.429,5.4215,5.2962,5.4443,5.4329,5.2771,5.273,5.2504,5.2014,4.8891,0.0,0.0,0.0,0.0,0.0,0.0,4.9391,5.3989,5.5635,5.7354,5.8962,5.9052,5.9089,5.9052,5.9052,5.9052,5.8939,5.6084,5.4321,5.4127,4.9889,0.0,0.0,0.0,0.0,0.0,0.0,0.0,0.0,0.0,0.0,0.0,0.0,0.0,0.0,0.0,0.0,0.0,0.0,0.0,0.0,4.1345,0.0,0.0,0.0,0.0,0.0,0.0,0.0,0.0,0.0,0.0,4.4809,4.6093,4.6984,4.6872,0.0,0.0,0.0,0.0,5.189,5.3599,5.5377,5.6227,5.5476,5.6768,5.6368,5.1933,0.0,0.0,5.2494,5.0767,4.9711,4.9763,4.9819,4.9797,4.9262,4.9126,4.9032,4.866,4.8188,4.7502,4.6844,4.6361,4.5793,0.0,0.0,0.0,0.0,0.0,0.0,0.0,0.0,0.0,5.0053,0.0,4.7133,0.0,0.0,0.0,0.0,0.0,0.0,0.0,0.0,5.0938,5.1403,5.0912,5.2582,5.2506,0.0,5.083,4.9043,0.0,0.0,0.0,0.0,0.0,0.0,0.0,0.0,4.6567,4.941,5.2045,5.4214,5.5859,5.6906,5.7467,5.7504,5.8514,5.8087,5.5997,5.4903,5.291,0.0,0.0,0.0,0.0,0.0,0.0,0.0,0.0,0.0,0.0,0.0,0.0,0.0,0.0,0.0,0.0,0.0,0.0,0.0,0.0,0.0,0.0,0.0,4.0603,0.0,0.0,0.0,0.0,0.0,0.0,0.0,0.0,0.0,4.31,4.5124,4.6683,4.6683,4.6719,4.7056,4.8159,0.0,0.0,0.0,0.0,0.0,0.0,0.0,5.4049,5.4423,5.2966,5.1492,5.0909,4.9326,4.8249,4.8687,0.0,0.0,4.8044,4.763,4.7361,4.7215,4.791,4.7854,4.5696,4.5876,4.5858,0.0,0.0,0.0,0.0,0.0,0.0,0.0,0.0,0.0,4.5127,4.4132,0.0,0.0,0.0,0.0,0.0,0.0,0.0,0.0,0.0,0.0,0.0,4.8292,4.9431,0.0,0.0,0.0,0.0,0.0,0.0,0.0,0.0,0.0,0.0,0.0,0.0,4.5166,4.6904,5.0026,5.2531,5.4214,5.5223,5.5768,5.5784,5.7392,5.6703,5.3471,0.0,0.0,0.0,0.0,0.0,0.0,0.0,0.0,0.0,0.0,0.0,0.0,0.0,0.0,0.0,0.0,0.0,0.0,0.0,0.0,0.0,0.0,0.0,0.0,0.0,3.9326,0.0,0.0,0.0,0.0,0.0,0.0,0.0,0.0,0.0,0.0,0.0,4.6371,4.6406,4.6249,4.6616,4.7983,4.9692,5.1394,0.0,0.0,0.0,0.0,0.0,0.0,0.0,0.0,0.0,0.0,0.0,0.0,0.0,0.0,4.7222,4.6327,4.5761,4.5308,4.5129,0.0,0.0,0.0,0.0,0.0,0.0,0.0,0.0,0.0,0.0,0.0,0.0,0.0,0.0,0.0,0.0,0.0,0.0,3.4196,0.0,0.0,0.0,0.0,0.0,0.0,0.0,0.0,0.0,0.0,0.0,0.0,0.0,0.0,0.0,0.0,0.0,0.0,0.0,0.0,0.0,0.0,4.5091,4.6717,4.9895,5.2324,5.3856,5.4139,5.4155,5.4214,5.5747,5.5057,5.1842,0.0,0.0,0.0,0.0,0.0,0.0,0.0,0.0,0.0,0.0,0.0,0.0,0.0,0.0,0.0,0.0,0.0,0.0,0.0,0.0,0.0,0.0,0.0,0.0,0.0,0.0,3.9046,3.884,3.8689,0.0,0.0,0.0,0.0,0.0,0.0,0.0,0.0,0.0,0.0,4.5697,4.6262,4.8211,4.9463,5.0832,5.2526,5.2044,5.2238,5.413,5.3827,5.3062,0.0,0.0,0.0,0.0,0.0,0.0,0.0,0.0,0.0,0.0,0.0,0.0,0.0,0.0,0.0,0.0,0.0,0.0,0.0,0.0,0.0,0.0,0.0,0.0,0.0,0.0,0.0,0.0,0.0,0.0,0.0,0.0,0.0,0.0,0.0,0.0,0.0,0.0,0.0,0.0,0.0,0.0,0.0,0.0,0.0,0.0,0.0,0.0,0.0,0.0,0.0,0.0,0.0,0.0,4.3901,4.308,4.7318,4.9108,4.8251,5.0778,5.2062,5.2136,5.4987,5.5041,0.0,0.0,0.0,0.0,0.0,0.0,0.0,0.0,0.0,0.0,0.0,0.0,0.0,0.0,0.0,0.0,0.0,0.0,0.0,0.0,0.0,0.0,0.0,0.0,0.0,0.0,0.0,0.0,3.8609,3.844,3.8169,0.0,0.0,0.0,0.0,0.0,0.0,0.0,0.0,0.0,0.0,4.7627,5.0474,5.0658,5.1373,5.3671,5.2316,5.1301,5.2333,5.0556,4.8956,4.8707,0.0,0.0,0.0,0.0,0.0,0.0,0.0,0.0,0.0,0.0,0.0,0.0,0.0,0.0,0.0,0.0,0.0,0.0,0.0,0.0,0.0,0.0,0.0,0.0,0.0,0.0,0.0,0.0,0.0,0.0,0.0,0.0,0.0,0.0,0.0,0.0,0.0,0.0,0.0,0.0,0.0,0.0,0.0,0.0,0.0,0.0,0.0,0.0,0.0,0.0,0.0,0.0,0.0,4.2654,4.1415,4.5532,4.7115,4.606,4.867,5.0222,5.0388,5.3173,5.2868,0.0,0.0,0.0,0.0,0.0,0.0,0.0,0.0,0.0,0.0,0.0,0.0,0.0,0.0,0.0,0.0,0.0,0.0,0.0,0.0,0.0,0.0,0.0,0.0,0.0,0.0,0.0,0.0,3.8075,3.7983,3.7642,0.0,0.0,0.0,0.0,0.0,0.0,0.0,0.0,0.0,0.0,4.6716,4.9565,4.9495,0.0,0.0,4.984,4.8606,5.0048,4.7766,4.5841,4.616,4.574,0.0,0.0,0.0,0.0,0.0,0.0,0.0,0.0,0.0,0.0,0.0,0.0,0.0,0.0,0.0,0.0,0.0,0.0,0.0,0.0,0.0,0.0,0.0,0.0,0.0,0.0,0.0,0.0,0.0,0.0,0.0,0.0,0.0,0.0,0.0,0.0,0.0,0.0,0.0,0.0,0.0,0.0,0.0,0.0,0.0,0.0,0.0,0.0,0.0,0.0,0.0,0.0,0.0,4.1125,4.4332,4.6005,4.6013,4.7592,4.8633,4.9126,5.0694,4.9295,0.0,0.0,0.0,0.0,0.0,0.0,0.0,0.0,0.0,0.0,0.0,0.0,0.0,0.0,0.0,0.0,0.0,0.0,0.0,0.0,0.0,0.0,0.0,0.0,0.0,0.0,0.0,0.0,0.0,0.0,0.0,0.0,0.0,0.0,0.0,0.0,0.0,0.0,0.0,0.0,0.0,4.4483,4.6648,4.6593,4.6817,0.0,0.0,4.4629,4.6934,4.4848,4.3141,4.3403,0.0,0.0,0.0,0.0,0.0,0.0,0.0,0.0,0.0,0.0,0.0,0.0,0.0,0.0,0.0,0.0,0.0,0.0,0.0,0.0,0.0,0.0,0.0,0.0,0.0,0.0,0.0,0.0,0.0,0.0,0.0,0.0,0.0,0.0,0.0,0.0,0.0,0.0,0.0,0.0,0.0,0.0,0.0,0.0,0.0,0.0,0.0,0.0,0.0,0.0,0.0,0.0,0.0,0.0,3.8975,4.2016,4.3545,4.339,4.5356,4.7042,4.8446,4.9242,0.0,0.0,0.0,0.0,0.0,0.0,0.0,0.0,0.0,0.0,0.0,0.0,0.0,0.0,0.0,0.0,0.0,0.0,0.0,0.0,0.0,0.0,0.0,0.0,0.0,0.0,0.0,3.6278,0.0,0.0,0.0,0.0,0.0,0.0,0.0,0.0,0.0,0.0,0.0,0.0,0.0,0.0,4.5553,4.7812,4.6611,4.5831,0.0,0.0,4.2217,4.0165,3.7537,3.5996,0.0,0.0,0.0,0.0,0.0,0.0,0.0,0.0,0.0,0.0,0.0,0.0,0.0,0.0,0.0,0.0,0.0,0.0,0.0,0.0,0.0,0.0,0.0,0.0,0.0,0.0,0.0,0.0,0.0,0.0,0.0,0.0,0.0,0.0,0.0,0.0,0.0,0.0,0.0,0.0,0.0,0.0,0.0,0.0,0.0,0.0,0.0,0.0,0.0,0.0,0.0,0.0,0.0,0.0,3.9256,3.8156,4.0481,4.198,4.2597,4.4469,4.5996,4.7078,4.7413,4.5958,0.0,0.0,0.0,0.0,0.0,0.0,0.0,0.0,0.0,0.0,0.0,0.0,0.0,0.0,0.0,0.0,0.0,0.0,0.0,0.0,0.0,0.0,0.0,0.0,0.0,0.0,0.0,0.0,0.0,0.0,0.0,0.0,0.0,0.0,0.0,0.0,0.0,0.0,0.0,0.0,0.0,0.0,4.5595,4.3718,0.0,0.0,0.0,3.766,3.5178,0.0,0.0,0.0,0.0,0.0,0.0,0.0,0.0,0.0,0.0,0.0,0.0,0.0,0.0,0.0,0.0,0.0,0.0,0.0,0.0,0.0,0.0,0.0,0.0,0.0,0.0,0.0,0.0,0.0,0.0,0.0,0.0,0.0,0.0,0.0,0.0,0.0,0.0,0.0,0.0,0.0,0.0,0.0,0.0,0.0,0.0,0.0,0.0,0.0,0.0,0.0,0.0,0.0,0.0,0.0,0.0,0.0,3.7948,3.9349,4.0887,4.24,4.3951,4.4928,4.5337,4.5163,4.3656,0.0,0.0,0.0,0.0,0.0,0.0,0.0,0.0,0.0,0.0,0.0,0.0,0.0,0.0,0.0,0.0,0.0,0.0,0.0,0.0,0.0,0.0,0.0,0.0,0.0,0.0,0.0,0.0,0.0,0.0,0.0,0.0,0.0,0.0,0.0,0.0,0.0,0.0,0.0,0.0,0.0,4.1479,4.187,3.9644,3.7528,0.0,0.0,3.2247,3.1118,2.6944,0.0,0.0,0.0,0.0,0.0,0.0,0.0,0.0,0.0,0.0,0.0,0.0,0.0,0.0,0.0,0.0,0.0,0.0,0.0,0.0,0.0,0.0,0.0,0.0,0.0,0.0,0.0,0.0,0.0,0.0,0.0,0.0,0.0,0.0,0.0,0.0,0.0,0.0,0.0,0.0,0.0,0.0,0.0,0.0,0.0,0.0,0.0,0.0,0.0,0.0,0.0,0.0,0.0,0.0,0.0,0.0,3.775,3.7964,3.883,4.0364,4.1054,4.2043,4.3291,4.2244,4.1154,0.0,0.0,0.0,0.0,0.0,0.0,0.0,0.0,0.0,0.0,0.0,0.0,0.0,0.0,0.0,0.0,0.0,0.0,0.0,0.0,0.0,0.0,0.0,0.0,0.0,0.0,0.0,0.0,0.0,0.0,0.0,0.0,0.0,0.0,0.0,0.0,0.0,0.0,0.0,0.0,0.0,4.0331,4.0173,3.775,0.0,0.0,0.0,0.0,2.6601,2.1274,0.0,0.0,0.0,0.0,0.0,0.0,0.0,0.0,0.0,0.0,0.0,0.0,0.0,0.0,0.0,0.0,0.0,0.0,0.0,0.0,0.0,0.0,0.0,0.0,0.0,0.0,0.0,0.0,0.0,0.0,0.0,0.0,0.0,0.0,0.0,0.0,0.0,0.0,0.0,0.0,0.0,0.0,0.0,0.0,0.0,0.0,0.0,0.0,0.0,0.0,0.0,0.0,0.0,0.0,0.0,0.0,3.7512,3.7299,3.7917,3.9522,3.9518,3.987,4.0651,3.9971,3.9059,0.0,0.0,0.0,0.0,0.0,0.0,0.0,0.0,0.0,0.0,0.0,0.0,0.0,0.0,0.0,0.0,0.0,0.0,0.0,0.0,0.0,0.0,0.0,0.0,0.0,0.0,0.0,0.0,0.0,0.0,0.0,0.0,0.0,0.0,0.0,0.0,0.0,0.0,0.0,0.0,3.9222,3.8826,3.8737,0.0,0.0,0.0,0.0,0.0,0.0,1.8105,1.3048,0.0,0.0,0.0,0.0,0.0,0.0,0.0,0.0,0.0,0.0,0.0,0.0,0.0,0.0,0.0,0.0,0.0,0.0,0.0,0.0,0.0,0.0,0.0,0.0,0.0,0.0,0.0,0.0,0.0,0.0,0.0,0.0,0.0,0.0,0.0,0.0,0.0,0.0,0.0,0.0,0.0,0.0,0.0,0.0,0.0,0.0,0.0,0.0,0.0,0.0,0.0,0.0,0.0,0.0,0.0,3.726,3.6906,3.7411,3.8794,3.836,3.8098,3.8098,3.806,3.7131,3.5306,0.0,0.0,0.0,0.0,0.0,0.0,0.0,0.0,0.0,0.0,0.0,0.0,0.0,0.0,0.0,0.0,0.0,0.0,0.0,0.0,0.0,0.0,0.0,0.0,0.0,0.0,0.0,0.0,0.0,0.0,0.0,0.0,0.0,0.0,0.0,0.0,0.0,0.0,0.0,3.8029,3.6976,0.0,0.0,0.0,0.0,0.0,0.0,0.0,0.0,1.0335,0.0,0.0,0.0,0.0,0.0,0.0,0.0,0.0,0.0,0.0,0.0,0.0,0.0,0.0,0.0,0.0,0.0,0.0,0.0,0.0,0.0,0.0,0.0,0.0,0.0,0.0,0.0,0.0,0.0,0.0,0.0,0.0,0.0,0.0,0.0,0.0,0.0,0.0,0.0,0.0,0.0,0.0,0.0,0.0,0.0,0.0,0.0,0.0,0.0,0.0,0.0,0.0,0.0,0.0,0.0,0.0,3.6712,3.6685,3.6941,3.6691,3.6507,3.6542,3.6323,3.5406,3.3807,0.0,0.0,0.0,0.0,0.0,0.0,0.0,0.0,0.0,0.0,0.0,0.0,0.0,0.0,0.0,0.0,0.0,0.0,0.0,0.0,0.0,0.0,0.0,0.0,0.0,0.0,0.0,0.0,0.0,0.0,0.0,0.0,0.0,0.0,0.0,0.0,0.0,0.0,3.752,3.6151,0.0,0.0,0.0,0.0,0.0,0.0,0.0,0.0,1.3697,0.0,0.0,0.0,0.0,0.0,0.0,0.0,0.0,0.0,0.0,0.0,0.0,0.0,0.0,0.0,0.0,0.0,0.0,0.0,0.0,0.0,0.0,0.0,0.0,0.0,0.0,0.0,0.0,0.0,0.0,0.0,0.0,0.0,0.0,0.0,0.0,0.0,0.0,0.0,0.0,0.0,0.0,0.0,0.0,0.0,0.0,0.0,0.0,0.0,0.0,0.0,0.0,0.0,0.0,0.0,0.0,0.0,0.0,3.7112,3.6161,3.5864,3.5592,3.5313,3.4875,3.4238,0.0,0.0,0.0,0.0,0.0,0.0,0.0,0.0,0.0,0.0,0.0,0.0,0.0,0.0,0.0,0.0,0.0,0.0,0.0,0.0,0.0,0.0,0.0,0.0,0.0,0.0,0.0,0.0,0.0,0.0,0.0,0.0,0.0,0.0,0.0,0.0,0.0,0.0,0.0,0.0,0.0,0.0,0.0,0.0,0.0,0.0,0.0,0.0,0.0,0.0,0.0,0.0,0.0,0.0,0.0,0.0,0.0,0.0,0.0,0.0,0.0,0.0,0.0,0.0,0.0,0.0,0.0,0.0,0.0,0.0,0.0,0.0,0.0,0.0,0.0,0.0,0.0,0.0,0.0,0.0,0.0,0.0,0.0,0.0,0.0,0.0,0.0,0.0,0.0,0.0,0.0,0.0,0.0,0.0,0.0,0.0,0.0,0.0,0.0,0.0,0.0,0.0,0.0,0.0,0.0,0.0,0.0,0.0,3.7883,3.6202,3.5555,3.4983,3.4622,3.3898,3.3433,0.0,0.0,0.0,0.0,0.0,0.0,0.0,0.0,0.0,0.0,0.0,0.0,0.0,0.0,0.0,0.0,0.0,0.0,0.0,0.0,0.0,0.0,0.0,0.0,0.0,0.0,0.0,0.0,0.0,0.0,0.0,0.0,0.0,0.0,0.0,0.0,0.0,0.0,0.0,0.0,0.0,0.0,0.0,0.0,0.0,0.0,0.0,0.0,1.7998,0.0,0.0,0.0,0.0,0.0,0.0,0.0,0.0,0.0,0.0,0.0,0.0,0.0,0.0,0.0,0.0,0.0,0.0,0.0,0.0,0.0,0.0,0.0,0.0,0.0,0.0,0.0,0.0,0.0,0.0,0.0,0.0,0.0,0.0,0.0,0.0,0.0,0.0,0.0,0.0,0.0,0.0,0.0,0.0,0.0,0.0,0.0,0.0,0.0,0.0,0.0,0.0,0.0,0.0,0.0,0.0,0.0,0.0,0.0,3.8841,3.731,3.5586,3.4632,3.4545,3.3839,3.3146,0.0,0.0,0.0,0.0,0.0,0.0,0.0,0.0,0.0,0.0,0.0,0.0,0.0,0.0,0.0,0.0,0.0,0.0,0.0,0.0,0.0,0.0,0.0,0.0,0.0,0.0,0.0,0.0,0.0,0.0,0.0,0.0,0.0,0.0,0.0,0.0,0.0,0.0,0.0,0.0,0.0,0.0,0.0,0.0,0.0,0.0,0.0,0.0,0.0,0.0,0.0,0.0,0.0,0.0,0.0,0.0,0.0,0.0,0.0,0.0,0.0,0.0,0.0,0.0,0.0,0.0,0.0,0.0,0.0,0.0,0.0,0.0,0.0,0.0,0.0,0.0,0.0,0.0,0.0,0.0,0.0,0.0,0.0,0.0,0.0,0.0,0.0,0.0,0.0,0.0,0.0,0.0,0.0,0.0,0.0,0.0,0.0,0.0,0.0,0.0,0.0,0.0,0.0,0.0,0.0,0.0,0.0,0.0,3.7885,3.6091,3.5391,3.4762,3.4113,3.2761,3.2087,0.0,0.0,0.0,0.0,0.0,0.0,0.0,0.0,0.0,0.0,0.0,0.0,0.0,0.0,0.0,0.0,0.0,0.0,0.0,0.0,0.0,0.0,0.0,0.0,0.0,0.0,0.0,0.0,0.0,0.0,0.0,0.0,0.0,0.0,0.0,0.0,0.0,0.0,0.0,0.0,0.0,0.0,0.0,0.0,0.0,0.0,0.0,0.0,0.0,0.0,0.0,0.0,0.0,0.0,0.0,0.0,0.0,0.0,0.0,0.0,0.0,0.0,0.0,0.0,0.0,0.0,0.0,0.0,0.0,0.0,0.0,0.0,0.0,0.0,0.0,0.0,0.0,0.0,0.0,0.0,0.0,0.0,0.0,0.0,0.0,0.0,0.0,0.0,0.0,0.0,0.0,0.0,0.0,0.0,0.0,0.0,0.0,0.0,0.0,0.0,0.0,0.0,0.0,0.0,0.0,0.0,0.0,0.0,0.0,3.5586,3.5131,3.4326,3.3154,3.1599,3.1004,0.0,0.0,0.0,0.0,0.0,0.0,0.0,0.0,0.0,0.0,0.0,0.0,0.0,0.0,0.0,0.0,0.0,0.0,0.0,0.0,0.0,0.0,0.0,0.0,0.0,0.0,0.0,0.0,0.0,0.0,0.0,0.0,0.0,0.0,0.0,0.0,0.0,0.0,0.0,0.0,0.0,0.0,0.0,0.0,0.0,0.0,0.0,0.0,0.0,0.0,0.0,0.0,0.0,0.0,0.0,0.0,0.0,0.0,0.0,0.0,0.0,0.0,0.0,0.0,0.0,0.0,0.0,0.0,0.0,0.0,0.0,0.0,0.0,0.0,0.0,0.0,0.0,0.0,0.0,0.0,0.0,0.0,0.0,0.0,0.0,0.0,0.0,0.0,0.0,0.0,0.0,0.0,0.0,0.0,0.0,0.0,0.0,0.0,0.0,0.0,0.0,0.0,0.0,0.0,0.0,0.0,0.0,0.0,0.0,3.6851,3.478,3.2935,3.136,3.068,3.014,0.0,0.0,0.0,0.0,0.0,0.0,0.0,0.0,0.0,0.0,0.0,0.0,0.0,0.0,0.0,0.0,0.0,0.0,0.0,0.0,0.0,0.0,0.0,0.0,0.0,0.0,0.0,0.0,0.0,0.0,0.0,0.0,0.0,0.0,0.0,0.0,0.0,0.0,0.0,0.0,0.0,0.0,0.0,0.0,0.0,0.0,0.0,0.0,0.0,0.0,0.0,0.0,0.0,0.0,0.0,0.0,0.0,0.0,0.0,0.0,0.0,0.0,0.0,0.0,0.0,0.0,0.0,0.0,0.0,0.0,0.0,0.0,0.0,0.0,0.0,0.0,0.0,0.0,0.0,0.0,0.0,0.0,0.0,0.0,0.0,0.0,0.0,0.0,0.0,0.0,0.0,0.0,0.0,0.0,0.0,0.0,0.0,0.0,0.0,0.0,0.0,0.0,0.0,0.0,0.0,0.0,0.0,0.0,0.0,3.4501,3.3655,3.2731,3.1743,2.8979,2.8075,2.9207,0.0,0.0,0.0,0.0,0.0,0.0,0.0,0.0,0.0,0.0,0.0,0.0,0.0,0.0,0.0,0.0,0.0,0.0,0.0,0.0,0.0,0.0,0.0,0.0,0.0,0.0,0.0,0.0,0.0,0.0,0.0,0.0,0.0,0.0,0.0,0.0,0.0,0.0,0.0,0.0,0.0,0.0,0.0,0.0,0.0,0.0,0.0,0.0,0.0,0.0,0.0,0.0,0.0,0.0,0.0,0.0,0.0,0.0,0.0,0.0,0.0,0.0,0.0,0.0,0.0,0.0,0.0,0.0,0.0,0.0,0.0,0.0,0.0,0.0,0.0,0.0,0.0,0.0,0.0,0.0,0.0,0.0,0.0,0.0,0.0,0.0,0.0,0.0,0.0,0.0,0.0,0.0,0.0,0.0,0.0,0.0,0.0,0.0,0.0,0.0,0.0,0.0,0.0,0.0,0.0,0.0,0.0,0.0,3.4002,3.3919,3.2988,3.1282,2.8825,2.7656,0.0,0.0,0.0,0.0,0.0,0.0,0.0,0.0,0.0,0.0,0.0,0.0,0.0,0.0,0.0,0.0,0.0,0.0,0.0,0.0,0.0,0.0,0.0,0.0,0.0,0.0,0.0,0.0,0.0,0.0,0.0,0.0,0.0,0.0,0.0,0.0,0.0,0.0,0.0,0.0,0.0,0.0,0.0,0.0,0.0,0.0,0.0,0.0,0.0,0.0,0.0,0.0,0.0,0.0,0.0,0.0,0.0,0.0,0.0,0.0,0.0,0.0,0.0,0.0,0.0,0.0,0.0,0.0,0.0,0.0,0.0,0.0,0.0,0.0,0.0,0.0,0.0,0.0,0.0,0.0,0.0,0.0,0.0,0.0,0.0,0.0,0.0,0.0,0.0,0.0,0.0,0.0,0.0,0.0,0.0,0.0,0.0,0.0,0.0,0.0,0.0,0.0,0.0,0.0,0.0,0.0,0.0,0.0,3.4075,3.5979,3.5691,3.3651,2.9828,3.0372,2.9062,0.0,0.0,0.0,0.0,0.0,0.0,0.0,0.0,0.0,0.0,0.0,0.0,0.0,0.0,0.0,0.0,0.0,0.0,0.0,0.0,0.0,0.0,0.0,0.0,0.0,0.0,0.0,0.0,0.0,0.0,0.0,0.0,0.0,0.0,0.0,0.0,0.0,0.0,0.0,0.0,0.0,0.0,0.0,0.0,0.0,0.0,0.0,0.0,0.0,0.0,0.0,0.0,0.0,0.0,0.0,0.0,0.0,0.0,0.0,0.0,0.0,0.0,0.0,0.0,0.0,0.0,0.0,0.0,0.0,0.0,0.0,0.0,0.0,0.0,0.0,0.0,0.0,0.0,0.0,0.0,0.0,0.0,0.0,0.0,0.0,0.0,0.0,0.0,0.0,0.0,0.0,0.0,0.0,0.0,0.0,0.0,0.0,0.0,0.0,0.0,0.0,0.0,0.0,0.0,0.0,0.0,0.0,0.0,0.0,3.693,0.0,3.4199,0.0,2.9547,2.7684,0.0,0.0,0.0,0.0,0.0,0.0,0.0,0.0,0.0,0.0,0.0,0.0,0.0,0.0,0.0,0.0,0.0,0.0,0.0,0.0,0.0,0.0,0.0,0.0,0.0,0.0,0.0,0.0,0.0,0.0,0.0,0.0,0.0,0.0,0.0,0.0,0.0,0.0,0.0,0.0,0.0,0.0,0.0,0.0,0.0,0.0,0.0,0.0,0.0,0.0,0.0,0.0,0.0,0.0,0.0,0.0,0.0,0.0,0.0,0.0,0.0,0.0,0.0,0.0,0.0,0.0,0.0,0.0,0.0,0.0,0.0,0.0,0.0,0.0,0.0,0.0,0.0,0.0,0.0,0.0,0.0,0.0,0.0,0.0,0.0,0.0,0.0,0.0,0.0,0.0,0.0,0.0,0.0,0.0,0.0,0.0,0.0,0.0,0.0,0.0,0.0,0.0,0.0,0.0,0.0,0.0,0.0,0.0,0.0,3.7681,3.6893,3.5461,3.3483,3.1466,2.9253,0.0,0.0,0.0,0.0,0.0,0.0,0.0,0.0,0.0,0.0,0.0,0.0,0.0,0.0,0.0,0.0,0.0,0.0,0.0,0.0,0.0,0.0,0.0,0.0,0.0,0.0,0.0,0.0,0.0,0.0,0.0,0.0,0.0,0.0,0.0,0.0,0.0,0.0,0.0,0.0,0.0,0.0,0.0,0.0,0.0,0.0,0.0,0.0,0.0,0.0,0.0,0.0,0.0,0.0,0.0,0.0,0.0,0.0,0.0,0.0,0.0,0.0,0.0,0.0,0.0,0.0,0.0,0.0,0.0,0.0,0.0,0.0,0.0,0.0,0.0,0.0,0.0,0.0,0.0,0.0,0.0,0.0,0.0,0.0,0.0,0.0,0.0,0.0,0.0,0.0,0.0,0.0,0.0,0.0,0.0,0.0,0.0,0.0,0.0,0.0,0.0,0.0,0.0,0.0,0.0,0.0,0.0,0.0,0.0,0.0,3.8454,3.7217,3.4755,3.5569,3.3213,0.0,0.0,0.0,0.0,0.0,0.0,0.0,0.0,0.0,0.0,0.0,0.0,0.0,0.0,0.0,0.0,0.0,0.0,0.0,0.0,0.0,0.0,0.0,0.0,0.0,0.0,0.0,0.0,0.0,0.0,0.0,0.0,0.0,0.0,0.0,0.0,0.0,0.0,0.0,0.0,0.0,0.0,0.0,0.0,0.0,0.0,0.0,0.0,0.0,0.0,0.0,0.0,0.0,0.0,0.0,0.0,0.0,0.0,0.0,0.0,0.0,0.0,0.0,0.0,0.0,0.0,0.0,0.0,0.0,0.0,0.0,0.0,0.0,0.0,0.0,0.0,0.0,0.0,0.0,0.0,0.0,0.0,0.0,0.0,0.0,0.0,0.0,0.0,0.0,0.0,0.0,0.0,0.0,0.0,0.0,0.0,0.0,0.0,0.0,0.0,0.0,0.0,0.0,0.0,0.0,0.0,0.0,0.0,0.0,0.0,3.8344,0.0,3.7139,3.3998,3.0974,2.8298,0.0,0.0,0.0,0.0,0.0,0.0,0.0,0.0,0.0,0.0,0.0,0.0,0.0,0.0,0.0,0.0,0.0,0.0,0.0,0.0,0.0,0.0,0.0,0.0,0.0,0.0,0.0,0.0,0.0,0.0,0.0,0.0,0.0,0.0,0.0,0.0,0.0,0.0,0.0,0.0,0.0,0.0,0.0,0.0,0.0,0.0,0.0,0.0,0.0,0.0,0.0,0.0,0.0,0.0,0.0,0.0,0.0,0.0,0.0,0.0,0.0,0.0,0.0,0.0,0.0,0.0,0.0,0.0,0.0,0.0,0.0,0.0,0.0,0.0,0.0,0.0,0.0,0.0,0.0,0.0,0.0,0.0,0.0,0.0,0.0,0.0,0.0,0.0,0.0,0.0,0.0,0.0,0.0,0.0,0.0,0.0,0.0,0.0,0.0,0.0,0.0,0.0,0.0,0.0,0.0,0.0,0.0,0.0,0.0,0.0,0.0,3.8303,3.5401,3.2487,0.0,0.0,0.0,0.0,0.0,0.0,0.0,0.0,0.0,0.0,0.0,0.0,0.0,0.0,0.0,0.0,0.0,0.0,0.0,0.0,0.0,0.0,0.0,0.0,0.0,0.0,0.0,0.0,0.0,0.0,0.0,0.0,0.0,0.0,0.0,0.0,0.0,0.0,0.0,0.0,0.0,0.0,0.0,0.0,0.0,0.0,0.0,0.0,0.0,0.0,0.0,0.0,0.0,0.0,0.0,0.0,0.0,0.0,0.0,0.0,0.0,0.0,0.0,0.0,0.0,0.0,0.0,0.0,0.0,0.0,0.0,0.0,0.0,0.0,0.0,0.0,0.0,0.0,0.0,0.0,0.0,0.0,0.0,0.0,0.0,0.0,0.0,0.0,0.0,0.0,0.0,0.0,0.0,0.0,0.0,0.0,0.0,0.0,0.0,0.0,0.0,0.0,0.0,0.0,0.0,0.0,0.0,0.0,0.0,0.0,0.0,3.8303,3.8303,3.8245,0.0,3.0972,0.0,0.0,0.0,0.0,0.0,0.0,0.0,0.0,0.0,0.0,0.0,0.0,0.0,0.0,0.0,0.0,0.0,0.0,0.0,0.0,0.0,0.0,0.0,0.0,0.0,0.0,0.0,0.0,0.0,0.0,0.0,0.0,0.0,0.0,0.0,0.0,0.0,0.0,0.0,0.0,0.0,0.0,0.0,0.0,0.0,0.0,0.0,0.0,0.0,0.0,0.0,0.0,0.0,0.0,0.0,0.0,0.0,0.0,0.0,0.0,0.0,0.0,0.0,0.0,0.0,0.0,0.0,0.0,0.0,0.0,0.0,0.0,0.0,0.0,0.0,0.0,0.0,0.0,0.0,0.0,0.0,0.0,0.0,0.0,0.0,0.0,0.0,0.0,0.0,0.0,0.0,0.0,0.0,0.0,0.0,0.0,0.0,0.0,0.0,0.0,0.0,0.0,0.0,0.0,0.0,0.0,0.0,0.0,0.0,0.0,0.0,0.0,3.8303,3.586,3.0856,0.0,0.0,0.0,0.0,0.0,0.0,0.0,0.0,0.0,0.0,0.0,0.0,0.0,0.0,0.0,0.0,0.0,0.0,0.0,0.0,0.0,0.0,0.0,0.0,0.0,0.0,0.0,0.0,0.0,0.0,0.0,0.0,0.0,0.0,0.0,0.0,0.0,0.0,0.0,0.0,0.0,0.0,0.0,0.0,0.0,0.0,0.0,0.0,0.0,0.0,0.0,0.0,0.0,0.0,0.0,0.0,0.0,0.0,0.0,0.0,0.0,0.0,0.0,0.0,0.0,0.0,0.0,0.0,0.0,0.0,0.0,0.0,0.0,0.0,0.0,0.0,0.0,0.0,0.0,0.0,0.0,0.0,0.0,0.0,0.0,0.0,0.0,0.0,0.0,0.0,0.0,0.0,0.0,0.0,0.0,0.0,0.0,0.0,0.0,0.0,0.0,0.0,0.0,0.0,0.0,0.0,0.0,0.0,0.0,0.0,3.8303,3.8274,3.7139,3.4696,3.0826,0.0,0.0,0.0,0.0,0.0,0.0,0.0,0.0,0.0,0.0,0.0,0.0,0.0,0.0,0.0,0.0,0.0,0.0,0.0,0.0,0.0,0.0,0.0,0.0,0.0,0.0,0.0,0.0,0.0,0.0,0.0,0.0,0.0,0.0,0.0,0.0,0.0,0.0,0.0,0.0,0.0,0.0,0.0,0.0,0.0,0.0,0.0,0.0,0.0,0.0,0.0,0.0,0.0,0.0,0.0,0.0,0.0,0.0,0.0,0.0,0.0,0.0,0.0,0.0,0.0,0.0,0.0,0.0,0.0,0.0,0.0,0.0,0.0,0.0,0.0,0.0,0.0,0.0,0.0,0.0,0.0,0.0,0.0,0.0,0.0,0.0,0.0,0.0,0.0,0.0,0.0,0.0,0.0,0.0,0.0,0.0,0.0,0.0,0.0,0.0,0.0,0.0,0.0,0.0,0.0,0.0,0.0,0.0,0.0,0.0,0.0,0.0,0.0,0.0,3.0797,0.0,0.0,0.0,0.0,0.0,0.0,0.0,0.0,0.0,0.0,0.0,0.0,0.0,0.0,0.0,0.0,0.0,0.0,0.0,0.0,0.0,0.0,0.0,0.0,0.0,0.0,0.0,0.0,0.0,0.0,0.0,0.0,0.0,0.0,0.0,0.0,0.0,0.0,0.0,0.0,0.0,0.0,0.0,0.0,0.0,0.0,0.0,0.0,0.0,0.0,0.0,0.0,0.0,0.0,0.0,0.0,0.0,0.0,0.0,0.0,0.0,0.0,0.0,0.0,0.0,0.0,0.0,0.0,0.0,0.0,0.0,0.0,0.0,0.0,0.0,0.0,0.0,0.0,0.0,0.0,0.0,0.0,0.0,0.0,0.0,0.0,0.0,0.0,0.0,0.0,0.0,0.0,0.0,0.0,0.0,0.0,0.0,0.0,0.0,0.0,0.0,0.0,0.0,0.0,0.0,0.0,0.0,0.0,0.0,0.0,0.0,0.0,0.0,0.0,0.0,0.0,0.0,0.0,0.0,0.0,0.0,0.0,0.0,0.0,0.0,0.0,0.0,0.0,0.0,0.0,0.0,0.0,0.0,0.0,0.0,0.0,0.0,0.0,0.0,0.0,0.0,0.0,0.0,0.0,0.0,0.0,0.0,0.0,0.0,0.0,0.0,0.0,0.0,0.0,0.0,0.0,0.0,0.0,0.0,0.0,0.0,0.0,0.0,0.0,0.0,0.0,0.0,0.0,0.0,0.0,0.0,0.0,0.0,0.0,0.0,0.0,0.0,0.0,0.0,0.0,0.0,0.0,0.0,0.0,0.0,0.0,0.0,0.0,0.0,0.0,0.0,0.0,0.0,0.0,0.0,0.0,0.0,0.0,0.0,0.0,0.0,0.0,0.0,0.0,0.0,0.0,0.0,0.0,0.0,0.0,0.0,0.0,0.0,0.0,0.0,0.0,0.0,0.0,0.0,0.0,0.0,0.0,0.0,0.0,0.0,0.0,0.0,0.0,0.0,0.0,0.0,0.0,0.0,0.0,0.0,0.0,0.0,0.0,0.0,0.0,0.0,0.0,0.0,0.0,0.0,0.0,0.0,0.0,0.0,0.0,0.0,0.0,0.0,0.0,0.0,0.0,0.0,0.0,0.0,0.0,0.0,0.0,0.0,0.0,0.0,0.0,0.0,0.0,0.0,0.0,0.0,0.0,0.0,0.0,0.0,0.0,0.0,0.0,0.0,0.0,0.0,0.0,0.0,0.0,0.0,0.0,0.0,0.0,0.0,0.0,0.0,0.0,0.0,0.0,0.0,0.0,0.0,0.0,0.0,0.0,0.0,0.0,0.0,0.0,0.0,0.0,0.0,0.0,0.0,0.0,0.0,0.0,0.0,0.0,0.0,0.0,0.0,0.0,0.0,0.0,0.0,0.0,0.0,0.0,0.0,0.0,0.0,0.0,0.0,0.0,0.0,0.0,0.0,0.0,0.0,0.0,0.0,0.0,0.0,0.0,0.0,0.0,0.0,0.0,0.0,0.0,0.0,0.0,0.0,0.0,0.0,0.0,0.0,0.0,0.0,0.0,0.0,0.0,0.0,0.0,0.0,0.0,0.0,0.0,0.0,0.0,0.0,0.0,0.0,0.0,0.0,0.0,0.0,0.0,0.0,0.0,0.0,0.0,0.0,0.0,0.0,0.0,0.0,0.0,0.0,0.0,0.0,0.0,0.0,0.0,0.0,0.0,0.0,0.0,0.0,0.0,0.0,0.0,0.0,0.0,0.0,0.0,0.0,0.0,0.0,0.0,0.0,0.0,0.0,0.0,0.0,0.0,0.0,0.0,0.0,0.0,0.0,0.0,0.0,0.0,0.0,0.0,0.0,0.0,0.0,0.0,0.0,0.0,0.0,0.0,0.0,0.0,0.0,0.0,0.0,0.0,0.0,0.0,0.0,0.0,0.0,0.0,0.0,0.0,0.0,0.0,0.0,0.0,0.0,0.0,0.0,0.0,0.0,0.0,0.0,0.0,0.0,0.0,0.0,0.0,0.0,0.0,0.0,0.0,0.0,0.0,0.0,0.0,0.0,0.0,0.0,0.0,0.0,0.0,0.0,0.0,0.0,0.0,0.0,0.0,0.0,0.0,0.0,0.0,0.0,0.0,0.0,0.0,0.0,0.0,0.0,0.0,0.0,0.0,0.0,0.0,0.0,0.0,0.0,0.0,0.0,0.0,0.0,0.0,0.0,0.0,0.0,0.0,0.0,0.0,0.0,0.0,0.0,0.0,0.0,0.0,0.0,0.0,0.0,0.0,0.0,0.0,0.0,0.0,0.0,0.0,0.0,0.0,0.0,0.0,0.0,0.0,0.0,0.0,0.0,0.0,0.0,0.0,0.0,0.0,0.0,0.0,0.0,0.0,0.0,0.0,0.0,0.0,0.0,0.0,0.0,0.0,0.0,0.0,0.0,0.0,0.0,0.0,0.0,0.0,0.0,0.0,0.0,0.0,0.0,0.0,0.0,0.0,0.0,0.0,0.0,0.0,0.0,0.0,0.0,0.0,0.0,0.0,0.0,0.0,0.0,0.0,0.0,0.0,0.0,0.0,0.0,0.0,0.0,0.0,0.0,0.0,0.0,0.0,0.0,0.0,0.0,0.0,0.0,0.0,0.0,0.0,0.0,0.0,0.0,0.0,0.0,0.0,0.0,0.0,0.0,0.0,0.0,0.0,0.0,0.0,0.0,0.0,0.0,0.0,0.0,0.0,0.0,0.0,0.0,0.0,0.0,0.0,0.0,0.0,0.0,0.0,0.0,0.0,0.0,0.0,0.0,0.0,0.0,0.0,0.0,0.0,0.0,0.0,0.0,0.0,0.0,0.0,0.0,0.0,0.0,0.0,0.0,0.0,0.0,0.0,0.0,0.0,0.0,0.0,0.0,0.0,0.0,0.0,0.0,0.0,0.0,0.0,0.0,0.0,0.0,0.0,0.0,0.0,0.0,0.0,0.0,0.0,0.0,0.0,0.0,0.0,0.0,0.0,0.0,0.0,0.0,0.0,0.0,0.0,0.0,0.0,0.0,0.0,0.0,0.0,0.0,0.0,0.0,0.0,0.0,0.0,0.0,0.0,0.0,0.0,0.0,0.0,0.0,0.0,0.0,0.0,0.0,0.0,0.0,0.0,0.0,0.0,0.0,0.0,0.0,0.0,0.0,0.0,0.0,0.0,0.0,0.0,0.0,0.0,0.0,0.0,0.0,0.0,0.0,0.0,0.0,0.0,0.0,0.0,0.0,0.0,0.0,0.0,0.0,0.0,0.0,0.0,0.0,0.0,0.0,0.0,0.0,0.0,0.0,0.0,0.0,0.0,0.0,0.0,0.0,0.0,0.0,0.0,0.0,0.0,0.0,0.0,0.0,0.0,0.0,0.0,0.0,0.0,0.0,0.0,0.0,0.0,0.0,0.0,0.0,0.0,0.0,0.0,0.0,0.0,0.0,0.0,0.0,0.0,0.0,0.0,0.0,0.0,0.0,0.0,0.0,0.0,0.0,0.0,0.0,0.0,0.0,0.0,0.0,0.0,0.0,0.0,0.0,0.0,0.0,0.0,0.0,0.0,0.0,0.0,0.0,0.0,0.0,0.0,0.0,0.0,0.0,0.0,0.0,0.0,0.0,0.0,0.0,0.0,0.0,0.0,0.0,0.0,0.0,0.0,0.0,0.0,0.0,0.0,0.0,0.0,0.0,0.0,0.0,0.0,0.0,0.0,0.0,0.0,0.0,0.0,0.0,0.0,0.0,0.0,0.0,0.0,0.0,0.0,0.0,0.0,0.0,0.0,0.0,0.0,0.0,0.0,0.0,0.0,0.0,0.0,0.0,0.0,0.0,0.0,0.0,0.0,0.0,0.0,0.0,0.0,0.0,0.0,0.0,0.0,0.0,0.0,0.0,0.0,0.0,0.0,0.0,0.0,0.0,0.0,0.0,0.0,0.0,0.0,0.0,0.0,0.0,0.0,0.0,0.0,0.0,0.0,0.0,0.0,0.0,0.0,0.0,0.0,0.0,0.0,0.0,0.0,0.0,0.0,0.0,0.0,0.0,0.0,0.0,0.0,0.0,0.0,0.0,0.0,0.0,0.0,0.0,0.0,0.0,0.0,0.0,0.0,0.0,0.0,0.0,0.0,0.0,0.0,0.0,0.0,0.0,0.0,0.0,0.0,0.0,0.0,0.0,0.0,0.0,0.0,0.0,0.0,0.0,0.0,0.0,0.0,0.0,0.0,0.0,0.0,0.0,0.0,0.0,0.0,0.0,0.0,0.0,0.0,0.0,0.0,0.0,0.0,0.0,0.0,0.0,0.0,0.0,0.0,0.0,0.0,0.0,0.0]}]]]